Missouri River (Missouri), Glasgow (06906500)

StateMissouriLatestUnknown (34300 cfs)
RiverMissouri RiverRatingObservedEstimated
Updated2021-01-24 7:30 (1 hour ago)Flood - The river is flooding. Obstacles can be treacherous or deadly. The river should be avoided at this stage for casual trips and definitely for the inexperienced. Trips should be attempted only with protective gear and equipment.Flood(none)(none)
Discharge34300 cfs (median: 34400 cfs)High - The river is high and potentially dangerous, especially for the young and / or inexperienced. Normal stream obstacles are sometimes difficult to navigate. Extended distances can be attempted, but canoe travel may not be advisable.High(none)(none)
Height9.31 feetGood - Conditions are ideal for a canoe or kayak. Boats typically will drag on fewer than one-quarter of riffles, if at all, and portages are unnecessary or rare. Normal float lengths can be attempted without a problem.Good(none)(none)
TrendSteady (falling over 24 hours)Low - River is low but can still be floated. Some riffles are okay but most come with significant dragging and might need a portage. Float lengths should be reduced to accommodate low flow, dragging, and portages.Low(none)(none)
USGSExternal icon USGS Site (External icon Google Maps)Poor - River is too low to float comfortably. Most or all riffles will drag or must be portaged and some obstacles (such as slick shelf rock) cause undue problems. Avoid the river at this stage for casual paddling trips.Poor(none)(none)

Trending Data

Plot Image

Trips for Missouri River (Missouri), Glasgow (06906500)

DateStartEndDistanceConditionDischargeHeightFishingDetails

A total of 0 rows are displayed.

Condition Descriptions

Fishing Conditions

Fish Species

Notes

Classic Trip List

The classic River Trips application is still available for use. It is updated with the new system using a data retrofit. It is no longer maintained. The original River Trips application is no longer updated (as of 1 Dec 2016) but can be checked for errors or for the condition of the data before it was converted to the new system.

Gauge Data Table

ObservationHeightDischargeMaximum
Discharge
Minimum
Discharge
Mean
Discharge
P05P10P20P25P50
(Median)
P75P80P90P95
2021-01-24 07:30 9.31 34300 107000 (2010) 19800 (2003) 40800 20000 23000 25300 25600 34400 49900 56300 70300 105000
2021-01-24 06:30 9.32 34300 107000 (2010) 19800 (2003) 40800 20000 23000 25300 25600 34400 49900 56300 70300 105000
2021-01-24 05:30 9.33 34400 107000 (2010) 19800 (2003) 40800 20000 23000 25300 25600 34400 49900 56300 70300 105000
2021-01-24 04:30 9.29 34200 107000 (2010) 19800 (2003) 40800 20000 23000 25300 25600 34400 49900 56300 70300 105000
2021-01-24 03:30 9.25 34000 107000 (2010) 19800 (2003) 40800 20000 23000 25300 25600 34400 49900 56300 70300 105000
2021-01-24 02:30 9.25 34000 107000 (2010) 19800 (2003) 40800 20000 23000 25300 25600 34400 49900 56300 70300 105000
2021-01-24 01:30 9.31 34300 107000 (2010) 19800 (2003) 40800 20000 23000 25300 25600 34400 49900 56300 70300 105000
2021-01-24 00:30 9.28 34100 107000 (2010) 19800 (2003) 40800 20000 23000 25300 25600 34400 49900 56300 70300 105000
2021-01-23 23:30 9.29 34200 92800 (2010) 20000 (2003) 39900 20100 22100 25400 25800 33900 48400 56300 71000 91700
2021-01-23 22:30 9.30 34200 92800 (2010) 20000 (2003) 39900 20100 22100 25400 25800 33900 48400 56300 71000 91700
2021-01-23 21:30 9.29 34200 92800 (2010) 20000 (2003) 39900 20100 22100 25400 25800 33900 48400 56300 71000 91700
2021-01-23 20:30 9.27 34100 92800 (2010) 20000 (2003) 39900 20100 22100 25400 25800 33900 48400 56300 71000 91700
2021-01-23 19:30 9.28 34100 92800 (2010) 20000 (2003) 39900 20100 22100 25400 25800 33900 48400 56300 71000 91700
2021-01-23 18:30 9.26 34100 92800 (2010) 20000 (2003) 39900 20100 22100 25400 25800 33900 48400 56300 71000 91700
2021-01-23 17:30 9.25 34000 92800 (2010) 20000 (2003) 39900 20100 22100 25400 25800 33900 48400 56300 71000 91700
2021-01-23 16:30 9.22 33900 92800 (2010) 20000 (2003) 39900 20100 22100 25400 25800 33900 48400 56300 71000 91700
2021-01-23 15:30 9.22 33900 92800 (2010) 20000 (2003) 39900 20100 22100 25400 25800 33900 48400 56300 71000 91700
2021-01-23 14:30 9.22 33900 92800 (2010) 20000 (2003) 39900 20100 22100 25400 25800 33900 48400 56300 71000 91700
2021-01-23 13:30 9.20 33800 92800 (2010) 20000 (2003) 39900 20100 22100 25400 25800 33900 48400 56300 71000 91700
2021-01-23 12:30 9.23 33900 92800 (2010) 20000 (2003) 39900 20100 22100 25400 25800 33900 48400 56300 71000 91700
2021-01-23 11:30 9.20 33800 92800 (2010) 20000 (2003) 39900 20100 22100 25400 25800 33900 48400 56300 71000 91700
2021-01-23 10:30 9.23 33900 92800 (2010) 20000 (2003) 39900 20100 22100 25400 25800 33900 48400 56300 71000 91700
2021-01-23 09:30 9.24 34000 92800 (2010) 20000 (2003) 39900 20100 22100 25400 25800 33900 48400 56300 71000 91700
2021-01-23 08:30 9.30 34200 92800 (2010) 20000 (2003) 39900 20100 22100 25400 25800 33900 48400 56300 71000 91700
2021-01-23 07:30 9.32 34300 92800 (2010) 20000 (2003) 39900 20100 22100 25400 25800 33900 48400 56300 71000 91700
2021-01-23 06:30 9.33 34400 92800 (2010) 20000 (2003) 39900 20100 22100 25400 25800 33900 48400 56300 71000 91700
2021-01-23 05:30 9.33 34400 92800 (2010) 20000 (2003) 39900 20100 22100 25400 25800 33900 48400 56300 71000 91700
2021-01-23 04:30 9.33 34400 92800 (2010) 20000 (2003) 39900 20100 22100 25400 25800 33900 48400 56300 71000 91700
2021-01-23 03:30 9.35 34400 92800 (2010) 20000 (2003) 39900 20100 22100 25400 25800 33900 48400 56300 71000 91700
2021-01-23 02:30 9.35 34400 92800 (2010) 20000 (2003) 39900 20100 22100 25400 25800 33900 48400 56300 71000 91700
2021-01-23 01:30 9.36 34500 92800 (2010) 20000 (2003) 39900 20100 22100 25400 25800 33900 48400 56300 71000 91700
2021-01-23 00:30 9.37 34500 92800 (2010) 20000 (2003) 39900 20100 22100 25400 25800 33900 48400 56300 71000 91700
2021-01-22 23:30 9.37 34500 92600 (2010) 20400 (2003) 39900 20400 20800 25400 26100 33100 48800 56600 73500 91700
2021-01-22 22:30 9.39 34600 92600 (2010) 20400 (2003) 39900 20400 20800 25400 26100 33100 48800 56600 73500 91700
2021-01-22 21:30 9.39 34600 92600 (2010) 20400 (2003) 39900 20400 20800 25400 26100 33100 48800 56600 73500 91700
2021-01-22 20:30 9.40 34600 92600 (2010) 20400 (2003) 39900 20400 20800 25400 26100 33100 48800 56600 73500 91700
2021-01-22 19:30 9.39 34600 92600 (2010) 20400 (2003) 39900 20400 20800 25400 26100 33100 48800 56600 73500 91700
2021-01-22 18:30 9.39 34600 92600 (2010) 20400 (2003) 39900 20400 20800 25400 26100 33100 48800 56600 73500 91700
2021-01-22 17:30 9.38 34600 92600 (2010) 20400 (2003) 39900 20400 20800 25400 26100 33100 48800 56600 73500 91700
2021-01-22 16:30 9.39 34600 92600 (2010) 20400 (2003) 39900 20400 20800 25400 26100 33100 48800 56600 73500 91700
2021-01-22 15:30 9.38 34600 92600 (2010) 20400 (2003) 39900 20400 20800 25400 26100 33100 48800 56600 73500 91700
2021-01-22 14:30 9.36 34500 92600 (2010) 20400 (2003) 39900 20400 20800 25400 26100 33100 48800 56600 73500 91700
2021-01-22 13:30 9.40 34600 92600 (2010) 20400 (2003) 39900 20400 20800 25400 26100 33100 48800 56600 73500 91700
2021-01-22 12:30 9.40 34600 92600 (2010) 20400 (2003) 39900 20400 20800 25400 26100 33100 48800 56600 73500 91700
2021-01-22 11:30 9.38 34600 92600 (2010) 20400 (2003) 39900 20400 20800 25400 26100 33100 48800 56600 73500 91700
2021-01-22 10:30 9.36 34500 92600 (2010) 20400 (2003) 39900 20400 20800 25400 26100 33100 48800 56600 73500 91700
2021-01-22 09:30 9.41 34700 92600 (2010) 20400 (2003) 39900 20400 20800 25400 26100 33100 48800 56600 73500 91700
2021-01-22 08:30 9.41 34700 92600 (2010) 20400 (2003) 39900 20400 20800 25400 26100 33100 48800 56600 73500 91700
2021-01-22 07:30 9.46 34900 92600 (2010) 20400 (2003) 39900 20400 20800 25400 26100 33100 48800 56600 73500 91700
2021-01-22 06:30 9.47 34900 92600 (2010) 20400 (2003) 39900 20400 20800 25400 26100 33100 48800 56600 73500 91700
2021-01-22 05:30 9.48 35000 92600 (2010) 20400 (2003) 39900 20400 20800 25400 26100 33100 48800 56600 73500 91700
2021-01-22 04:30 9.48 35000 92600 (2010) 20400 (2003) 39900 20400 20800 25400 26100 33100 48800 56600 73500 91700
2021-01-22 03:30 9.49 35000 92600 (2010) 20400 (2003) 39900 20400 20800 25400 26100 33100 48800 56600 73500 91700
2021-01-22 02:30 9.50 35100 92600 (2010) 20400 (2003) 39900 20400 20800 25400 26100 33100 48800 56600 73500 91700
2021-01-22 01:30 9.51 35100 92600 (2010) 20400 (2003) 39900 20400 20800 25400 26100 33100 48800 56600 73500 91700
2021-01-22 00:30 9.53 35200 92600 (2010) 20400 (2003) 39900 20400 20800 25400 26100 33100 48800 56600 73500 91700
2021-01-21 23:30 9.53 35200 77000 (2010) 19900 (2007) 39800 19900 21100 25700 26400 33100 52700 58400 75900 77000
2021-01-21 22:30 9.54 35200 77000 (2010) 19900 (2007) 39800 19900 21100 25700 26400 33100 52700 58400 75900 77000
2021-01-21 21:30 9.54 35200 77000 (2010) 19900 (2007) 39800 19900 21100 25700 26400 33100 52700 58400 75900 77000
2021-01-21 20:30 9.57 35400 77000 (2010) 19900 (2007) 39800 19900 21100 25700 26400 33100 52700 58400 75900 77000
2021-01-21 19:30 9.58 35400 77000 (2010) 19900 (2007) 39800 19900 21100 25700 26400 33100 52700 58400 75900 77000
2021-01-21 18:30 9.58 35400 77000 (2010) 19900 (2007) 39800 19900 21100 25700 26400 33100 52700 58400 75900 77000
2021-01-21 17:30 9.58 35400 77000 (2010) 19900 (2007) 39800 19900 21100 25700 26400 33100 52700 58400 75900 77000
2021-01-21 16:30 9.59 35400 77000 (2010) 19900 (2007) 39800 19900 21100 25700 26400 33100 52700 58400 75900 77000
2021-01-21 15:30 9.60 35500 77000 (2010) 19900 (2007) 39800 19900 21100 25700 26400 33100 52700 58400 75900 77000
2021-01-21 14:30 9.61 35500 77000 (2010) 19900 (2007) 39800 19900 21100 25700 26400 33100 52700 58400 75900 77000
2021-01-21 13:30 9.62 35600 77000 (2010) 19900 (2007) 39800 19900 21100 25700 26400 33100 52700 58400 75900 77000
2021-01-21 12:30 9.63 35600 77000 (2010) 19900 (2007) 39800 19900 21100 25700 26400 33100 52700 58400 75900 77000
2021-01-21 11:30 9.64 35700 77000 (2010) 19900 (2007) 39800 19900 21100 25700 26400 33100 52700 58400 75900 77000
2021-01-21 10:30 9.62 35600 77000 (2010) 19900 (2007) 39800 19900 21100 25700 26400 33100 52700 58400 75900 77000
2021-01-21 09:30 9.68 35800 77000 (2010) 19900 (2007) 39800 19900 21100 25700 26400 33100 52700 58400 75900 77000
2021-01-21 08:30 9.70 35900 77000 (2010) 19900 (2007) 39800 19900 21100 25700 26400 33100 52700 58400 75900 77000
2021-01-21 07:30 9.70 35900 77000 (2010) 19900 (2007) 39800 19900 21100 25700 26400 33100 52700 58400 75900 77000
2021-01-21 06:30 9.71 36000 77000 (2010) 19900 (2007) 39800 19900 21100 25700 26400 33100 52700 58400 75900 77000
2021-01-21 05:30 9.71 36000 77000 (2010) 19900 (2007) 39800 19900 21100 25700 26400 33100 52700 58400 75900 77000
2021-01-21 04:30 9.71 36000 77000 (2010) 19900 (2007) 39800 19900 21100 25700 26400 33100 52700 58400 75900 77000
2021-01-21 03:30 9.72 36000 77000 (2010) 19900 (2007) 39800 19900 21100 25700 26400 33100 52700 58400 75900 77000
2021-01-21 02:30 9.73 36000 77000 (2010) 19900 (2007) 39800 19900 21100 25700 26400 33100 52700 58400 75900 77000
2021-01-21 01:30 9.75 36100 77000 (2010) 19900 (2007) 39800 19900 21100 25700 26400 33100 52700 58400 75900 77000
2021-01-21 00:30 9.75 36100 77000 (2010) 19900 (2007) 39800 19900 21100 25700 26400 33100 52700 58400 75900 77000
2021-01-20 23:30 9.76 36200 80900 (2019) 20700 (2007) 39700 20700 21100 25800 26800 33800 51800 55700 78300 80900
2021-01-20 22:30 9.77 36200 80900 (2019) 20700 (2007) 39700 20700 21100 25800 26800 33800 51800 55700 78300 80900
2021-01-20 21:30 9.79 36300 80900 (2019) 20700 (2007) 39700 20700 21100 25800 26800 33800 51800 55700 78300 80900
2021-01-20 20:30 9.78 36300 80900 (2019) 20700 (2007) 39700 20700 21100 25800 26800 33800 51800 55700 78300 80900
2021-01-20 19:30 9.74 36100 80900 (2019) 20700 (2007) 39700 20700 21100 25800 26800 33800 51800 55700 78300 80900
2021-01-20 18:30 9.73 36000 80900 (2019) 20700 (2007) 39700 20700 21100 25800 26800 33800 51800 55700 78300 80900
2021-01-20 17:30 9.74 36100 80900 (2019) 20700 (2007) 39700 20700 21100 25800 26800 33800 51800 55700 78300 80900
2021-01-20 16:30 9.76 36200 80900 (2019) 20700 (2007) 39700 20700 21100 25800 26800 33800 51800 55700 78300 80900
2021-01-20 15:30 9.77 36200 80900 (2019) 20700 (2007) 39700 20700 21100 25800 26800 33800 51800 55700 78300 80900
2021-01-20 14:30 9.76 36200 80900 (2019) 20700 (2007) 39700 20700 21100 25800 26800 33800 51800 55700 78300 80900
2021-01-20 13:30 9.77 36200 80900 (2019) 20700 (2007) 39700 20700 21100 25800 26800 33800 51800 55700 78300 80900
2021-01-20 12:30 9.77 36200 80900 (2019) 20700 (2007) 39700 20700 21100 25800 26800 33800 51800 55700 78300 80900
2021-01-20 11:30 9.77 36200 80900 (2019) 20700 (2007) 39700 20700 21100 25800 26800 33800 51800 55700 78300 80900
2021-01-20 10:30 9.79 36300 80900 (2019) 20700 (2007) 39700 20700 21100 25800 26800 33800 51800 55700 78300 80900
2021-01-20 09:30 9.82 36400 80900 (2019) 20700 (2007) 39700 20700 21100 25800 26800 33800 51800 55700 78300 80900
2021-01-20 08:30 9.84 36500 80900 (2019) 20700 (2007) 39700 20700 21100 25800 26800 33800 51800 55700 78300 80900
2021-01-20 07:30 9.90 36800 80900 (2019) 20700 (2007) 39700 20700 21100 25800 26800 33800 51800 55700 78300 80900
2021-01-20 06:30 9.92 36900 80900 (2019) 20700 (2007) 39700 20700 21100 25800 26800 33800 51800 55700 78300 80900
2021-01-20 05:30 9.92 36900 80900 (2019) 20700 (2007) 39700 20700 21100 25800 26800 33800 51800 55700 78300 80900
2021-01-20 04:30 9.93 36900 80900 (2019) 20700 (2007) 39700 20700 21100 25800 26800 33800 51800 55700 78300 80900
2021-01-20 03:30 9.93 36900 80900 (2019) 20700 (2007) 39700 20700 21100 25800 26800 33800 51800 55700 78300 80900
2021-01-20 02:30 9.93 36900 80900 (2019) 20700 (2007) 39700 20700 21100 25800 26800 33800 51800 55700 78300 80900
2021-01-20 01:30 9.95 37000 80900 (2019) 20700 (2007) 39700 20700 21100 25800 26800 33800 51800 55700 78300 80900
2021-01-20 00:30 9.96 37000 80900 (2019) 20700 (2007) 39700 20700 21100 25800 26800 33800 51800 55700 78300 80900
2021-01-19 23:30 9.95 37000 85400 (2020) 20700 (2003) 39500 20800 22900 25100 27000 34200 46500 49400 76600 85000
2021-01-19 22:30 9.96 37000 85400 (2020) 20700 (2003) 39500 20800 22900 25100 27000 34200 46500 49400 76600 85000
2021-01-19 21:30 9.96 37000 85400 (2020) 20700 (2003) 39500 20800 22900 25100 27000 34200 46500 49400 76600 85000
2021-01-19 20:30 9.96 37000 85400 (2020) 20700 (2003) 39500 20800 22900 25100 27000 34200 46500 49400 76600 85000
2021-01-19 19:30 9.96 37000 85400 (2020) 20700 (2003) 39500 20800 22900 25100 27000 34200 46500 49400 76600 85000
2021-01-19 18:30 9.96 37000 85400 (2020) 20700 (2003) 39500 20800 22900 25100 27000 34200 46500 49400 76600 85000
2021-01-19 17:30 9.96 37000 85400 (2020) 20700 (2003) 39500 20800 22900 25100 27000 34200 46500 49400 76600 85000
2021-01-19 16:30 9.94 37000 85400 (2020) 20700 (2003) 39500 20800 22900 25100 27000 34200 46500 49400 76600 85000
2021-01-19 15:30 9.94 37000 85400 (2020) 20700 (2003) 39500 20800 22900 25100 27000 34200 46500 49400 76600 85000
2021-01-19 14:30 9.92 36900 85400 (2020) 20700 (2003) 39500 20800 22900 25100 27000 34200 46500 49400 76600 85000
2021-01-19 13:30 9.90 36800 85400 (2020) 20700 (2003) 39500 20800 22900 25100 27000 34200 46500 49400 76600 85000
2021-01-19 12:30 9.92 36900 85400 (2020) 20700 (2003) 39500 20800 22900 25100 27000 34200 46500 49400 76600 85000
2021-01-19 11:30 9.96 37000 85400 (2020) 20700 (2003) 39500 20800 22900 25100 27000 34200 46500 49400 76600 85000
2021-01-19 10:30 9.98 37100 85400 (2020) 20700 (2003) 39500 20800 22900 25100 27000 34200 46500 49400 76600 85000
2021-01-19 09:30 9.99 37200 85400 (2020) 20700 (2003) 39500 20800 22900 25100 27000 34200 46500 49400 76600 85000
2021-01-19 08:30 9.99 37200 85400 (2020) 20700 (2003) 39500 20800 22900 25100 27000 34200 46500 49400 76600 85000
2021-01-19 07:30 9.96 37000 85400 (2020) 20700 (2003) 39500 20800 22900 25100 27000 34200 46500 49400 76600 85000
2021-01-19 06:30 1 37200 85400 (2020) 20700 (2003) 39500 20800 22900 25100 27000 34200 46500 49400 76600 85000
2021-01-19 05:30 9.99 37200 85400 (2020) 20700 (2003) 39500 20800 22900 25100 27000 34200 46500 49400 76600 85000
2021-01-19 04:30 10.01 37300 85400 (2020) 20700 (2003) 39500 20800 22900 25100 27000 34200 46500 49400 76600 85000
2021-01-19 03:30 10.01 37300 85400 (2020) 20700 (2003) 39500 20800 22900 25100 27000 34200 46500 49400 76600 85000
2021-01-19 02:30 10.01 37300 85400 (2020) 20700 (2003) 39500 20800 22900 25100 27000 34200 46500 49400 76600 85000
2021-01-19 01:30 10.01 37300 85400 (2020) 20700 (2003) 39500 20800 22900 25100 27000 34200 46500 49400 76600 85000
2021-01-19 00:30 10.01 37300 85400 (2020) 20700 (2003) 39500 20800 22900 25100 27000 34200 46500 49400 76600 85000
2021-01-18 23:30 1 37200 84600 (2020) 21200 (2003) 39000 21300 23900 25800 26800 34800 42000 45200 72700 84000
2021-01-18 22:30 1 37200 84600 (2020) 21200 (2003) 39000 21300 23900 25800 26800 34800 42000 45200 72700 84000
2021-01-18 21:30 1 37200 84600 (2020) 21200 (2003) 39000 21300 23900 25800 26800 34800 42000 45200 72700 84000
2021-01-18 20:30 9.99 37200 84600 (2020) 21200 (2003) 39000 21300 23900 25800 26800 34800 42000 45200 72700 84000
2021-01-18 19:30 9.99 37200 84600 (2020) 21200 (2003) 39000 21300 23900 25800 26800 34800 42000 45200 72700 84000
2021-01-18 18:30 9.99 37200 84600 (2020) 21200 (2003) 39000 21300 23900 25800 26800 34800 42000 45200 72700 84000
2021-01-18 17:30 9.99 37200 84600 (2020) 21200 (2003) 39000 21300 23900 25800 26800 34800 42000 45200 72700 84000
2021-01-18 16:30 9.98 37100 84600 (2020) 21200 (2003) 39000 21300 23900 25800 26800 34800 42000 45200 72700 84000
2021-01-18 15:30 9.97 37100 84600 (2020) 21200 (2003) 39000 21300 23900 25800 26800 34800 42000 45200 72700 84000
2021-01-18 14:30 9.96 37000 84600 (2020) 21200 (2003) 39000 21300 23900 25800 26800 34800 42000 45200 72700 84000
2021-01-18 13:30 9.97 37100 84600 (2020) 21200 (2003) 39000 21300 23900 25800 26800 34800 42000 45200 72700 84000
2021-01-18 12:30 9.96 37000 84600 (2020) 21200 (2003) 39000 21300 23900 25800 26800 34800 42000 45200 72700 84000
2021-01-18 11:30 9.96 37000 84600 (2020) 21200 (2003) 39000 21300 23900 25800 26800 34800 42000 45200 72700 84000
2021-01-18 10:30 9.96 37000 84600 (2020) 21200 (2003) 39000 21300 23900 25800 26800 34800 42000 45200 72700 84000
2021-01-18 09:30 9.96 37000 84600 (2020) 21200 (2003) 39000 21300 23900 25800 26800 34800 42000 45200 72700 84000
2021-01-18 08:30 9.95 37000 84600 (2020) 21200 (2003) 39000 21300 23900 25800 26800 34800 42000 45200 72700 84000
2021-01-18 07:30 9.94 37000 84600 (2020) 21200 (2003) 39000 21300 23900 25800 26800 34800 42000 45200 72700 84000
2021-01-18 06:30 9.94 37000 84600 (2020) 21200 (2003) 39000 21300 23900 25800 26800 34800 42000 45200 72700 84000
2021-01-18 05:30 9.95 37000 84600 (2020) 21200 (2003) 39000 21300 23900 25800 26800 34800 42000 45200 72700 84000
2021-01-18 04:30 9.96 37000 84600 (2020) 21200 (2003) 39000 21300 23900 25800 26800 34800 42000 45200 72700 84000
2021-01-18 03:30 9.98 37100 84600 (2020) 21200 (2003) 39000 21300 23900 25800 26800 34800 42000 45200 72700 84000
2021-01-18 02:30 9.99 37200 84600 (2020) 21200 (2003) 39000 21300 23900 25800 26800 34800 42000 45200 72700 84000
2021-01-18 01:30 9.99 37200 84600 (2020) 21200 (2003) 39000 21300 23900 25800 26800 34800 42000 45200 72700 84000
2021-01-18 00:30 9.99 37200 84600 (2020) 21200 (2003) 39000 21300 23900 25800 26800 34800 42000 45200 72700 84000
2021-01-17 23:30 1 37200 86400 (2020) 22100 (2003) 39400 22100 23300 26100 27300 35800 42400 45400 72900 85700
2021-01-17 22:30 1 37200 86400 (2020) 22100 (2003) 39400 22100 23300 26100 27300 35800 42400 45400 72900 85700
2021-01-17 21:30 1 37200 86400 (2020) 22100 (2003) 39400 22100 23300 26100 27300 35800 42400 45400 72900 85700
2021-01-17 20:30 9.99 37200 86400 (2020) 22100 (2003) 39400 22100 23300 26100 27300 35800 42400 45400 72900 85700
2021-01-17 19:30 9.99 37200 86400 (2020) 22100 (2003) 39400 22100 23300 26100 27300 35800 42400 45400 72900 85700
2021-01-17 18:30 9.98 37100 86400 (2020) 22100 (2003) 39400 22100 23300 26100 27300 35800 42400 45400 72900 85700
2021-01-17 17:30 9.98 37100 86400 (2020) 22100 (2003) 39400 22100 23300 26100 27300 35800 42400 45400 72900 85700
2021-01-17 16:30 9.98 37100 86400 (2020) 22100 (2003) 39400 22100 23300 26100 27300 35800 42400 45400 72900 85700
2021-01-17 15:30 9.98 37100 86400 (2020) 22100 (2003) 39400 22100 23300 26100 27300 35800 42400 45400 72900 85700
2021-01-17 14:30 9.97 37100 86400 (2020) 22100 (2003) 39400 22100 23300 26100 27300 35800 42400 45400 72900 85700
2021-01-17 13:30 9.97 37100 86400 (2020) 22100 (2003) 39400 22100 23300 26100 27300 35800 42400 45400 72900 85700
2021-01-17 12:30 9.97 37100 86400 (2020) 22100 (2003) 39400 22100 23300 26100 27300 35800 42400 45400 72900 85700
2021-01-17 11:30 9.98 37100 86400 (2020) 22100 (2003) 39400 22100 23300 26100 27300 35800 42400 45400 72900 85700
2021-01-17 10:30 9.99 37200 86400 (2020) 22100 (2003) 39400 22100 23300 26100 27300 35800 42400 45400 72900 85700
2021-01-17 09:30 9.98 37100 86400 (2020) 22100 (2003) 39400 22100 23300 26100 27300 35800 42400 45400 72900 85700
2021-01-17 08:30 9.98 37100 86400 (2020) 22100 (2003) 39400 22100 23300 26100 27300 35800 42400 45400 72900 85700
2021-01-17 07:30 9.97 37100 86400 (2020) 22100 (2003) 39400 22100 23300 26100 27300 35800 42400 45400 72900 85700
2021-01-17 06:30 9.98 37100 86400 (2020) 22100 (2003) 39400 22100 23300 26100 27300 35800 42400 45400 72900 85700
2021-01-17 05:30 9.99 37200 86400 (2020) 22100 (2003) 39400 22100 23300 26100 27300 35800 42400 45400 72900 85700
2021-01-17 04:30 1 37200 86400 (2020) 22100 (2003) 39400 22100 23300 26100 27300 35800 42400 45400 72900 85700
2021-01-17 03:30 1 37200 86400 (2020) 22100 (2003) 39400 22100 23300 26100 27300 35800 42400 45400 72900 85700
2021-01-17 02:30 1 37200 86400 (2020) 22100 (2003) 39400 22100 23300 26100 27300 35800 42400 45400 72900 85700
2021-01-17 01:30 9.96 37000 86400 (2020) 22100 (2003) 39400 22100 23300 26100 27300 35800 42400 45400 72900 85700
2021-01-16 22:30 1 37200 90500 (2020) 22300 (2004) 39900 22300 22800 26200 27500 35400 42600 44200 73700 89700
2021-01-16 21:30 9.99 37200 90500 (2020) 22300 (2004) 39900 22300 22800 26200 27500 35400 42600 44200 73700 89700
2021-01-16 20:30 9.97 37100 90500 (2020) 22300 (2004) 39900 22300 22800 26200 27500 35400 42600 44200 73700 89700
2021-01-16 19:30 9.97 37100 90500 (2020) 22300 (2004) 39900 22300 22800 26200 27500 35400 42600 44200 73700 89700
2021-01-16 18:30 9.96 37000 90500 (2020) 22300 (2004) 39900 22300 22800 26200 27500 35400 42600 44200 73700 89700
2021-01-16 17:30 9.96 37000 90500 (2020) 22300 (2004) 39900 22300 22800 26200 27500 35400 42600 44200 73700 89700
2021-01-16 16:30 9.95 37000 90500 (2020) 22300 (2004) 39900 22300 22800 26200 27500 35400 42600 44200 73700 89700
2021-01-16 15:30 9.94 37000 90500 (2020) 22300 (2004) 39900 22300 22800 26200 27500 35400 42600 44200 73700 89700
2021-01-16 14:30 9.95 37000 90500 (2020) 22300 (2004) 39900 22300 22800 26200 27500 35400 42600 44200 73700 89700
2021-01-16 13:30 9.96 37000 90500 (2020) 22300 (2004) 39900 22300 22800 26200 27500 35400 42600 44200 73700 89700
2021-01-16 12:30 9.94 37000 90500 (2020) 22300 (2004) 39900 22300 22800 26200 27500 35400 42600 44200 73700 89700
2021-01-16 11:30 9.95 37000 90500 (2020) 22300 (2004) 39900 22300 22800 26200 27500 35400 42600 44200 73700 89700
2021-01-16 10:30 9.96 37000 90500 (2020) 22300 (2004) 39900 22300 22800 26200 27500 35400 42600 44200 73700 89700
2021-01-16 09:30 9.94 37000 90500 (2020) 22300 (2004) 39900 22300 22800 26200 27500 35400 42600 44200 73700 89700
2021-01-16 08:30 9.93 36900 90500 (2020) 22300 (2004) 39900 22300 22800 26200 27500 35400 42600 44200 73700 89700
2021-01-16 07:30 9.93 36900 90500 (2020) 22300 (2004) 39900 22300 22800 26200 27500 35400 42600 44200 73700 89700
2021-01-16 06:30 9.90 36800 90500 (2020) 22300 (2004) 39900 22300 22800 26200 27500 35400 42600 44200 73700 89700
2021-01-16 05:30 9.90 36800 90500 (2020) 22300 (2004) 39900 22300 22800 26200 27500 35400 42600 44200 73700 89700
2021-01-16 04:30 9.90 36800 90500 (2020) 22300 (2004) 39900 22300 22800 26200 27500 35400 42600 44200 73700 89700
2021-01-16 03:30 9.92 36900 90500 (2020) 22300 (2004) 39900 22300 22800 26200 27500 35400 42600 44200 73700 89700
2021-01-16 02:30 9.90 36800 90500 (2020) 22300 (2004) 39900 22300 22800 26200 27500 35400 42600 44200 73700 89700
2021-01-16 01:30 9.90 36800 90500 (2020) 22300 (2004) 39900 22300 22800 26200 27500 35400 42600 44200 73700 89700
2021-01-16 00:30 9.92 36900 90500 (2020) 22300 (2004) 39900 22300 22800 26200 27500 35400 42600 44200 73700 89700
2021-01-15 23:30 9.92 36900 88300 (2020) 21400 (2004) 40300 21500 22800 26000 27200 35800 44900 45900 74900 87600
2021-01-15 22:30 9.92 36900 88300 (2020) 21400 (2004) 40300 21500 22800 26000 27200 35800 44900 45900 74900 87600
2021-01-15 21:30 9.91 36800 88300 (2020) 21400 (2004) 40300 21500 22800 26000 27200 35800 44900 45900 74900 87600
2021-01-15 20:30 9.91 36800 88300 (2020) 21400 (2004) 40300 21500 22800 26000 27200 35800 44900 45900 74900 87600
2021-01-15 19:30 9.90 36800 88300 (2020) 21400 (2004) 40300 21500 22800 26000 27200 35800 44900 45900 74900 87600
2021-01-15 18:30 9.90 36800 88300 (2020) 21400 (2004) 40300 21500 22800 26000 27200 35800 44900 45900 74900 87600
2021-01-15 17:30 9.84 36500 88300 (2020) 21400 (2004) 40300 21500 22800 26000 27200 35800 44900 45900 74900 87600
2021-01-15 16:30 9.86 36600 88300 (2020) 21400 (2004) 40300 21500 22800 26000 27200 35800 44900 45900 74900 87600
2021-01-15 15:30 9.85 36600 88300 (2020) 21400 (2004) 40300 21500 22800 26000 27200 35800 44900 45900 74900 87600
2021-01-15 14:30 9.88 36700 88300 (2020) 21400 (2004) 40300 21500 22800 26000 27200 35800 44900 45900 74900 87600
2021-01-15 13:30 9.88 36700 88300 (2020) 21400 (2004) 40300 21500 22800 26000 27200 35800 44900 45900 74900 87600
2021-01-15 12:30 9.88 36700 88300 (2020) 21400 (2004) 40300 21500 22800 26000 27200 35800 44900 45900 74900 87600
2021-01-15 11:30 9.88 36700 88300 (2020) 21400 (2004) 40300 21500 22800 26000 27200 35800 44900 45900 74900 87600
2021-01-15 10:30 9.86 36600 88300 (2020) 21400 (2004) 40300 21500 22800 26000 27200 35800 44900 45900 74900 87600
2021-01-15 09:30 9.87 36700 88300 (2020) 21400 (2004) 40300 21500 22800 26000 27200 35800 44900 45900 74900 87600
2021-01-15 08:30 9.87 36700 88300 (2020) 21400 (2004) 40300 21500 22800 26000 27200 35800 44900 45900 74900 87600
2021-01-15 07:30 9.83 36500 88300 (2020) 21400 (2004) 40300 21500 22800 26000 27200 35800 44900 45900 74900 87600
2021-01-15 06:30 9.83 36500 88300 (2020) 21400 (2004) 40300 21500 22800 26000 27200 35800 44900 45900 74900 87600
2021-01-15 05:30 9.83 36500 88300 (2020) 21400 (2004) 40300 21500 22800 26000 27200 35800 44900 45900 74900 87600
2021-01-15 04:30 9.84 36500 88300 (2020) 21400 (2004) 40300 21500 22800 26000 27200 35800 44900 45900 74900 87600
2021-01-15 03:30 9.85 36600 88300 (2020) 21400 (2004) 40300 21500 22800 26000 27200 35800 44900 45900 74900 87600
2021-01-15 02:30 9.85 36600 88300 (2020) 21400 (2004) 40300 21500 22800 26000 27200 35800 44900 45900 74900 87600
2021-01-15 01:30 9.87 36700 88300 (2020) 21400 (2004) 40300 21500 22800 26000 27200 35800 44900 45900 74900 87600
2021-01-15 00:30 9.84 36500 88300 (2020) 21400 (2004) 40300 21500 22800 26000 27200 35800 44900 45900 74900 87600
2021-01-14 23:30 9.86 36600 91700 (2020) 20900 (2004) 41300 21000 22900 26000 27100 37400 47900 53600 77300 91000
2021-01-14 22:30 9.88 36700 91700 (2020) 20900 (2004) 41300 21000 22900 26000 27100 37400 47900 53600 77300 91000
2021-01-14 21:30 9.87 36700 91700 (2020) 20900 (2004) 41300 21000 22900 26000 27100 37400 47900 53600 77300 91000
2021-01-14 20:30 9.90 36800 91700 (2020) 20900 (2004) 41300 21000 22900 26000 27100 37400 47900 53600 77300 91000
2021-01-14 19:30 9.86 36600 91700 (2020) 20900 (2004) 41300 21000 22900 26000 27100 37400 47900 53600 77300 91000
2021-01-14 18:30 9.90 36800 91700 (2020) 20900 (2004) 41300 21000 22900 26000 27100 37400 47900 53600 77300 91000
2021-01-14 17:30 9.86 36600 91700 (2020) 20900 (2004) 41300 21000 22900 26000 27100 37400 47900 53600 77300 91000
2021-01-14 16:30 9.82 36400 91700 (2020) 20900 (2004) 41300 21000 22900 26000 27100 37400 47900 53600 77300 91000
2021-01-14 15:30 9.83 36500 91700 (2020) 20900 (2004) 41300 21000 22900 26000 27100 37400 47900 53600 77300 91000
2021-01-14 14:30 9.84 36500 91700 (2020) 20900 (2004) 41300 21000 22900 26000 27100 37400 47900 53600 77300 91000
2021-01-14 13:30 9.81 36400 91700 (2020) 20900 (2004) 41300 21000 22900 26000 27100 37400 47900 53600 77300 91000
2021-01-14 12:30 9.82 36400 91700 (2020) 20900 (2004) 41300 21000 22900 26000 27100 37400 47900 53600 77300 91000
2021-01-14 11:30 9.83 36500 91700 (2020) 20900 (2004) 41300 21000 22900 26000 27100 37400 47900 53600 77300 91000
2021-01-14 10:30 9.85 36600 91700 (2020) 20900 (2004) 41300 21000 22900 26000 27100 37400 47900 53600 77300 91000
2021-01-14 09:30 9.83 36500 91700 (2020) 20900 (2004) 41300 21000 22900 26000 27100 37400 47900 53600 77300 91000
2021-01-14 08:30 9.81 36400 91700 (2020) 20900 (2004) 41300 21000 22900 26000 27100 37400 47900 53600 77300 91000
2021-01-14 07:30 9.82 36400 91700 (2020) 20900 (2004) 41300 21000 22900 26000 27100 37400 47900 53600 77300 91000
2021-01-14 06:30 9.76 36200 91700 (2020) 20900 (2004) 41300 21000 22900 26000 27100 37400 47900 53600 77300 91000
2021-01-14 05:30 9.78 36300 91700 (2020) 20900 (2004) 41300 21000 22900 26000 27100 37400 47900 53600 77300 91000
2021-01-14 04:30 9.78 36300 91700 (2020) 20900 (2004) 41300 21000 22900 26000 27100 37400 47900 53600 77300 91000
2021-01-14 03:30 9.79 36300 91700 (2020) 20900 (2004) 41300 21000 22900 26000 27100 37400 47900 53600 77300 91000
2021-01-14 02:30 9.74 36100 91700 (2020) 20900 (2004) 41300 21000 22900 26000 27100 37400 47900 53600 77300 91000
2021-01-14 01:30 9.76 36200 91700 (2020) 20900 (2004) 41300 21000 22900 26000 27100 37400 47900 53600 77300 91000
2021-01-14 00:30 9.78 36300 91700 (2020) 20900 (2004) 41300 21000 22900 26000 27100 37400 47900 53600 77300 91000
2021-01-13 23:30 9.78 36300 103000 (2020) 20900 (2004) 42100 21000 23200 25600 26300 37600 45400 52100 83600 102000
2021-01-13 22:30 9.76 36200 103000 (2020) 20900 (2004) 42100 21000 23200 25600 26300 37600 45400 52100 83600 102000
2021-01-13 21:30 9.77 36200 103000 (2020) 20900 (2004) 42100 21000 23200 25600 26300 37600 45400 52100 83600 102000
2021-01-13 20:30 9.74 36100 103000 (2020) 20900 (2004) 42100 21000 23200 25600 26300 37600 45400 52100 83600 102000
2021-01-13 19:30 9.77 36200 103000 (2020) 20900 (2004) 42100 21000 23200 25600 26300 37600 45400 52100 83600 102000
2021-01-13 18:30 9.76 36200 103000 (2020) 20900 (2004) 42100 21000 23200 25600 26300 37600 45400 52100 83600 102000
2021-01-13 17:30 9.75 36100 103000 (2020) 20900 (2004) 42100 21000 23200 25600 26300 37600 45400 52100 83600 102000
2021-01-13 16:30 9.70 35900 103000 (2020) 20900 (2004) 42100 21000 23200 25600 26300 37600 45400 52100 83600 102000
2021-01-13 15:30 9.71 36000 103000 (2020) 20900 (2004) 42100 21000 23200 25600 26300 37600 45400 52100 83600 102000
2021-01-13 14:30 9.71 36000 103000 (2020) 20900 (2004) 42100 21000 23200 25600 26300 37600 45400 52100 83600 102000
2021-01-13 13:30 9.72 36000 103000 (2020) 20900 (2004) 42100 21000 23200 25600 26300 37600 45400 52100 83600 102000
2021-01-13 12:30 9.72 36000 103000 (2020) 20900 (2004) 42100 21000 23200 25600 26300 37600 45400 52100 83600 102000
2021-01-13 11:30 9.73 36000 103000 (2020) 20900 (2004) 42100 21000 23200 25600 26300 37600 45400 52100 83600 102000
2021-01-13 10:30 9.72 36000 103000 (2020) 20900 (2004) 42100 21000 23200 25600 26300 37600 45400 52100 83600 102000
2021-01-13 09:30 9.73 36000 103000 (2020) 20900 (2004) 42100 21000 23200 25600 26300 37600 45400 52100 83600 102000
2021-01-13 08:30 9.70 35900 103000 (2020) 20900 (2004) 42100 21000 23200 25600 26300 37600 45400 52100 83600 102000
2021-01-13 07:30 9.70 35900 103000 (2020) 20900 (2004) 42100 21000 23200 25600 26300 37600 45400 52100 83600 102000
2021-01-13 06:30 9.69 35900 103000 (2020) 20900 (2004) 42100 21000 23200 25600 26300 37600 45400 52100 83600 102000
2021-01-13 05:30 9.69 35900 103000 (2020) 20900 (2004) 42100 21000 23200 25600 26300 37600 45400 52100 83600 102000
2021-01-13 04:30 9.70 35900 103000 (2020) 20900 (2004) 42100 21000 23200 25600 26300 37600 45400 52100 83600 102000
2021-01-13 03:30 9.68 35800 103000 (2020) 20900 (2004) 42100 21000 23200 25600 26300 37600 45400 52100 83600 102000
2021-01-13 02:30 9.67 35800 103000 (2020) 20900 (2004) 42100 21000 23200 25600 26300 37600 45400 52100 83600 102000
2021-01-13 01:30 9.69 35900 103000 (2020) 20900 (2004) 42100 21000 23200 25600 26300 37600 45400 52100 83600 102000
2021-01-13 00:30 9.70 35900 103000 (2020) 20900 (2004) 42100 21000 23200 25600 26300 37600 45400 52100 83600 102000
2021-01-12 23:30 9.67 35800 115000 (2020) 21200 (2004) 43300 21300 23200 25500 25900 35900 44700 55700 97000 114000
2021-01-12 22:30 9.66 35700 115000 (2020) 21200 (2004) 43300 21300 23200 25500 25900 35900 44700 55700 97000 114000
2021-01-12 21:30 9.66 35700 115000 (2020) 21200 (2004) 43300 21300 23200 25500 25900 35900 44700 55700 97000 114000
2021-01-12 20:30 9.66 35700 115000 (2020) 21200 (2004) 43300 21300 23200 25500 25900 35900 44700 55700 97000 114000
2021-01-12 19:30 9.68 35800 115000 (2020) 21200 (2004) 43300 21300 23200 25500 25900 35900 44700 55700 97000 114000
2021-01-12 18:30 9.68 35800 115000 (2020) 21200 (2004) 43300 21300 23200 25500 25900 35900 44700 55700 97000 114000
2021-01-12 17:30 9.66 35700 115000 (2020) 21200 (2004) 43300 21300 23200 25500 25900 35900 44700 55700 97000 114000
2021-01-12 16:30 9.64 35700 115000 (2020) 21200 (2004) 43300 21300 23200 25500 25900 35900 44700 55700 97000 114000
2021-01-12 15:30 9.63 35600 115000 (2020) 21200 (2004) 43300 21300 23200 25500 25900 35900 44700 55700 97000 114000
2021-01-12 14:30 9.63 35600 115000 (2020) 21200 (2004) 43300 21300 23200 25500 25900 35900 44700 55700 97000 114000
2021-01-12 13:30 9.59 35400 115000 (2020) 21200 (2004) 43300 21300 23200 25500 25900 35900 44700 55700 97000 114000
2021-01-12 12:30 9.61 35500 115000 (2020) 21200 (2004) 43300 21300 23200 25500 25900 35900 44700 55700 97000 114000
2021-01-12 11:30 9.59 35400 115000 (2020) 21200 (2004) 43300 21300 23200 25500 25900 35900 44700 55700 97000 114000
2021-01-12 10:30 9.59 35400 115000 (2020) 21200 (2004) 43300 21300 23200 25500 25900 35900 44700 55700 97000 114000
2021-01-12 09:30 9.60 35500 115000 (2020) 21200 (2004) 43300 21300 23200 25500 25900 35900 44700 55700 97000 114000
2021-01-12 08:30 9.59 35400 115000 (2020) 21200 (2004) 43300 21300 23200 25500 25900 35900 44700 55700 97000 114000
2021-01-12 07:30 9.57 35400 115000 (2020) 21200 (2004) 43300 21300 23200 25500 25900 35900 44700 55700 97000 114000
2021-01-12 06:30 9.58 35400 115000 (2020) 21200 (2004) 43300 21300 23200 25500 25900 35900 44700 55700 97000 114000
2021-01-12 05:30 9.61 35500 115000 (2020) 21200 (2004) 43300 21300 23200 25500 25900 35900 44700 55700 97000 114000
2021-01-12 04:30 9.58 35400 115000 (2020) 21200 (2004) 43300 21300 23200 25500 25900 35900 44700 55700 97000 114000
2021-01-12 03:30 9.55 35300 115000 (2020) 21200 (2004) 43300 21300 23200 25500 25900 35900 44700 55700 97000 114000
2021-01-12 02:30 9.56 35300 115000 (2020) 21200 (2004) 43300 21300 23200 25500 25900 35900 44700 55700 97000 114000
2021-01-12 01:30 9.55 35300 115000 (2020) 21200 (2004) 43300 21300 23200 25500 25900 35900 44700 55700 97000 114000
2021-01-12 00:30 9.55 35300 115000 (2020) 21200 (2004) 43300 21300 23200 25500 25900 35900 44700 55700 97000 114000
2021-01-11 23:30 9.54 35200 116000 (2016) 22100 (2004) 43400 22200 23300 25200 25500 35600 45600 55500 92500 115000
2021-01-11 22:30 9.53 35200 116000 (2016) 22100 (2004) 43400 22200 23300 25200 25500 35600 45600 55500 92500 115000
2021-01-11 21:30 9.53 35200 116000 (2016) 22100 (2004) 43400 22200 23300 25200 25500 35600 45600 55500 92500 115000
2021-01-11 20:30 9.53 35200 116000 (2016) 22100 (2004) 43400 22200 23300 25200 25500 35600 45600 55500 92500 115000
2021-01-11 19:30 9.51 35100 116000 (2016) 22100 (2004) 43400 22200 23300 25200 25500 35600 45600 55500 92500 115000
2021-01-11 18:30 9.54 35200 116000 (2016) 22100 (2004) 43400 22200 23300 25200 25500 35600 45600 55500 92500 115000
2021-01-11 17:30 9.54 35200 116000 (2016) 22100 (2004) 43400 22200 23300 25200 25500 35600 45600 55500 92500 115000
2021-01-11 16:30 9.51 35100 116000 (2016) 22100 (2004) 43400 22200 23300 25200 25500 35600 45600 55500 92500 115000
2021-01-11 15:30 9.47 34900 116000 (2016) 22100 (2004) 43400 22200 23300 25200 25500 35600 45600 55500 92500 115000
2021-01-11 14:30 9.48 35000 116000 (2016) 22100 (2004) 43400 22200 23300 25200 25500 35600 45600 55500 92500 115000
2021-01-11 13:30 9.50 35100 116000 (2016) 22100 (2004) 43400 22200 23300 25200 25500 35600 45600 55500 92500 115000
2021-01-11 12:30 9.48 35000 116000 (2016) 22100 (2004) 43400 22200 23300 25200 25500 35600 45600 55500 92500 115000
2021-01-11 11:30 9.50 35100 116000 (2016) 22100 (2004) 43400 22200 23300 25200 25500 35600 45600 55500 92500 115000
2021-01-11 10:30 9.49 35000 116000 (2016) 22100 (2004) 43400 22200 23300 25200 25500 35600 45600 55500 92500 115000
2021-01-11 09:30 9.52 35200 116000 (2016) 22100 (2004) 43400 22200 23300 25200 25500 35600 45600 55500 92500 115000
2021-01-11 08:30 9.56 35300 116000 (2016) 22100 (2004) 43400 22200 23300 25200 25500 35600 45600 55500 92500 115000
2021-01-11 07:30 9.56 35300 116000 (2016) 22100 (2004) 43400 22200 23300 25200 25500 35600 45600 55500 92500 115000
2021-01-11 06:30 9.56 35300 116000 (2016) 22100 (2004) 43400 22200 23300 25200 25500 35600 45600 55500 92500 115000
2021-01-11 05:30 9.56 35300 116000 (2016) 22100 (2004) 43400 22200 23300 25200 25500 35600 45600 55500 92500 115000
2021-01-11 04:30 9.56 35300 116000 (2016) 22100 (2004) 43400 22200 23300 25200 25500 35600 45600 55500 92500 115000
2021-01-11 03:30 9.56 35300 116000 (2016) 22100 (2004) 43400 22200 23300 25200 25500 35600 45600 55500 92500 115000
2021-01-11 02:30 9.56 35300 116000 (2016) 22100 (2004) 43400 22200 23300 25200 25500 35600 45600 55500 92500 115000
2021-01-11 01:30 9.56 35300 116000 (2016) 22100 (2004) 43400 22200 23300 25200 25500 35600 45600 55500 92500 115000
2021-01-11 00:30 9.56 35300 116000 (2016) 22100 (2004) 43400 22200 23300 25200 25500 35600 45600 55500 92500 115000
2021-01-10 23:30 9.56 35300 124000 (2016) 23000 (2003) 43400 23000 23300 24400 25300 35900 45800 56200 85400 122000
2021-01-10 22:30 9.56 35300 124000 (2016) 23000 (2003) 43400 23000 23300 24400 25300 35900 45800 56200 85400 122000
2021-01-10 21:30 9.55 35300 124000 (2016) 23000 (2003) 43400 23000 23300 24400 25300 35900 45800 56200 85400 122000
2021-01-10 20:30 9.55 35300 124000 (2016) 23000 (2003) 43400 23000 23300 24400 25300 35900 45800 56200 85400 122000
2021-01-10 19:30 9.56 35300 124000 (2016) 23000 (2003) 43400 23000 23300 24400 25300 35900 45800 56200 85400 122000
2021-01-10 18:30 9.57 35400 124000 (2016) 23000 (2003) 43400 23000 23300 24400 25300 35900 45800 56200 85400 122000
2021-01-10 17:30 9.58 35400 124000 (2016) 23000 (2003) 43400 23000 23300 24400 25300 35900 45800 56200 85400 122000
2021-01-10 16:30 9.59 35400 124000 (2016) 23000 (2003) 43400 23000 23300 24400 25300 35900 45800 56200 85400 122000
2021-01-10 15:30 9.58 35400 124000 (2016) 23000 (2003) 43400 23000 23300 24400 25300 35900 45800 56200 85400 122000
2021-01-10 14:30 9.58 35400 124000 (2016) 23000 (2003) 43400 23000 23300 24400 25300 35900 45800 56200 85400 122000
2021-01-10 13:30 9.59 35400 124000 (2016) 23000 (2003) 43400 23000 23300 24400 25300 35900 45800 56200 85400 122000
2021-01-10 12:30 9.60 35500 124000 (2016) 23000 (2003) 43400 23000 23300 24400 25300 35900 45800 56200 85400 122000
2021-01-10 11:30 9.62 35600 124000 (2016) 23000 (2003) 43400 23000 23300 24400 25300 35900 45800 56200 85400 122000
2021-01-10 10:30 9.63 35600 124000 (2016) 23000 (2003) 43400 23000 23300 24400 25300 35900 45800 56200 85400 122000
2021-01-10 09:30 9.63 35600 124000 (2016) 23000 (2003) 43400 23000 23300 24400 25300 35900 45800 56200 85400 122000
2021-01-10 08:30 9.64 35700 124000 (2016) 23000 (2003) 43400 23000 23300 24400 25300 35900 45800 56200 85400 122000
2021-01-10 07:30 9.65 35700 124000 (2016) 23000 (2003) 43400 23000 23300 24400 25300 35900 45800 56200 85400 122000
2021-01-10 06:30 9.65 35700 124000 (2016) 23000 (2003) 43400 23000 23300 24400 25300 35900 45800 56200 85400 122000
2021-01-10 05:30 9.65 35700 124000 (2016) 23000 (2003) 43400 23000 23300 24400 25300 35900 45800 56200 85400 122000
2021-01-10 04:30 9.65 35700 124000 (2016) 23000 (2003) 43400 23000 23300 24400 25300 35900 45800 56200 85400 122000
2021-01-10 03:30 9.63 35600 124000 (2016) 23000 (2003) 43400 23000 23300 24400 25300 35900 45800 56200 85400 122000
2021-01-10 02:30 9.63 35600 124000 (2016) 23000 (2003) 43400 23000 23300 24400 25300 35900 45800 56200 85400 122000
2021-01-10 01:30 9.63 35600 124000 (2016) 23000 (2003) 43400 23000 23300 24400 25300 35900 45800 56200 85400 122000
2021-01-10 00:30 9.65 35700 124000 (2016) 23000 (2003) 43400 23000 23300 24400 25300 35900 45800 56200 85400 122000
2021-01-09 23:30 9.66 35700 123000 (2016) 22700 (2003) 43400 22700 23300 24300 25000 37200 45800 56800 82400 121000
2021-01-09 22:30 9.67 35800 123000 (2016) 22700 (2003) 43400 22700 23300 24300 25000 37200 45800 56800 82400 121000
2021-01-09 20:30 9.69 35900 123000 (2016) 22700 (2003) 43400 22700 23300 24300 25000 37200 45800 56800 82400 121000
2021-01-09 19:30 9.70 35900 123000 (2016) 22700 (2003) 43400 22700 23300 24300 25000 37200 45800 56800 82400 121000
2021-01-09 18:30 9.71 36000 123000 (2016) 22700 (2003) 43400 22700 23300 24300 25000 37200 45800 56800 82400 121000
2021-01-09 17:30 9.71 36000 123000 (2016) 22700 (2003) 43400 22700 23300 24300 25000 37200 45800 56800 82400 121000
2021-01-09 16:30 9.70 35900 123000 (2016) 22700 (2003) 43400 22700 23300 24300 25000 37200 45800 56800 82400 121000
2021-01-09 15:30 9.70 35900 123000 (2016) 22700 (2003) 43400 22700 23300 24300 25000 37200 45800 56800 82400 121000
2021-01-09 14:30 9.70 35900 123000 (2016) 22700 (2003) 43400 22700 23300 24300 25000 37200 45800 56800 82400 121000
2021-01-09 13:30 9.70 35900 123000 (2016) 22700 (2003) 43400 22700 23300 24300 25000 37200 45800 56800 82400 121000
2021-01-09 12:30 9.69 35900 123000 (2016) 22700 (2003) 43400 22700 23300 24300 25000 37200 45800 56800 82400 121000
2021-01-09 11:30 9.70 35900 123000 (2016) 22700 (2003) 43400 22700 23300 24300 25000 37200 45800 56800 82400 121000
2021-01-09 10:30 9.70 35900 123000 (2016) 22700 (2003) 43400 22700 23300 24300 25000 37200 45800 56800 82400 121000
2021-01-09 09:30 9.69 35900 123000 (2016) 22700 (2003) 43400 22700 23300 24300 25000 37200 45800 56800 82400 121000
2021-01-09 08:30 9.69 35900 123000 (2016) 22700 (2003) 43400 22700 23300 24300 25000 37200 45800 56800 82400 121000
2021-01-09 07:30 9.69 35900 123000 (2016) 22700 (2003) 43400 22700 23300 24300 25000 37200 45800 56800 82400 121000
2021-01-09 06:30 9.68 35800 123000 (2016) 22700 (2003) 43400 22700 23300 24300 25000 37200 45800 56800 82400 121000
2021-01-09 05:30 9.67 35800 123000 (2016) 22700 (2003) 43400 22700 23300 24300 25000 37200 45800 56800 82400 121000
2021-01-09 04:30 9.67 35800 123000 (2016) 22700 (2003) 43400 22700 23300 24300 25000 37200 45800 56800 82400 121000
2021-01-09 03:30 9.66 35700 123000 (2016) 22700 (2003) 43400 22700 23300 24300 25000 37200 45800 56800 82400 121000
2021-01-09 02:30 9.64 35700 123000 (2016) 22700 (2003) 43400 22700 23300 24300 25000 37200 45800 56800 82400 121000
2021-01-09 01:30 9.63 35600 123000 (2016) 22700 (2003) 43400 22700 23300 24300 25000 37200 45800 56800 82400 121000
2021-01-09 00:30 9.61 35500 123000 (2016) 22700 (2003) 43400 22700 23300 24300 25000 37200 45800 56800 82400 121000
2021-01-08 23:30 9.61 35500 89400 (2016) 22500 (2003) 41700 22500 22900 24700 24900 39700 46700 51800 81300 89000
2021-01-08 22:30 9.61 35500 89400 (2016) 22500 (2003) 41700 22500 22900 24700 24900 39700 46700 51800 81300 89000
2021-01-08 21:30 9.61 35500 89400 (2016) 22500 (2003) 41700 22500 22900 24700 24900 39700 46700 51800 81300 89000
2021-01-08 20:30 9.60 35500 89400 (2016) 22500 (2003) 41700 22500 22900 24700 24900 39700 46700 51800 81300 89000
2021-01-08 19:30 9.59 35400 89400 (2016) 22500 (2003) 41700 22500 22900 24700 24900 39700 46700 51800 81300 89000
2021-01-08 18:30 9.58 35400 89400 (2016) 22500 (2003) 41700 22500 22900 24700 24900 39700 46700 51800 81300 89000
2021-01-08 17:30 9.57 35400 89400 (2016) 22500 (2003) 41700 22500 22900 24700 24900 39700 46700 51800 81300 89000
2021-01-08 16:30 9.54 35200 89400 (2016) 22500 (2003) 41700 22500 22900 24700 24900 39700 46700 51800 81300 89000
2021-01-08 15:30 9.52 35200 89400 (2016) 22500 (2003) 41700 22500 22900 24700 24900 39700 46700 51800 81300 89000
2021-01-08 14:30 9.52 35200 89400 (2016) 22500 (2003) 41700 22500 22900 24700 24900 39700 46700 51800 81300 89000
2021-01-08 13:30 9.50 35100 89400 (2016) 22500 (2003) 41700 22500 22900 24700 24900 39700 46700 51800 81300 89000
2021-01-08 12:30 9.50 35100 89400 (2016) 22500 (2003) 41700 22500 22900 24700 24900 39700 46700 51800 81300 89000
2021-01-08 11:30 9.50 35100 89400 (2016) 22500 (2003) 41700 22500 22900 24700 24900 39700 46700 51800 81300 89000
2021-01-08 10:30 9.49 35000 89400 (2016) 22500 (2003) 41700 22500 22900 24700 24900 39700 46700 51800 81300 89000
2021-01-08 09:30 9.48 35000 89400 (2016) 22500 (2003) 41700 22500 22900 24700 24900 39700 46700 51800 81300 89000
2021-01-08 08:30 9.48 35000 89400 (2016) 22500 (2003) 41700 22500 22900 24700 24900 39700 46700 51800 81300 89000
2021-01-08 07:30 9.48 35000 89400 (2016) 22500 (2003) 41700 22500 22900 24700 24900 39700 46700 51800 81300 89000
2021-01-08 06:30 9.49 35000 89400 (2016) 22500 (2003) 41700 22500 22900 24700 24900 39700 46700 51800 81300 89000
2021-01-08 05:30 9.49 35000 89400 (2016) 22500 (2003) 41700 22500 22900 24700 24900 39700 46700 51800 81300 89000
2021-01-08 04:30 9.49 35000 89400 (2016) 22500 (2003) 41700 22500 22900 24700 24900 39700 46700 51800 81300 89000
2021-01-08 03:30 9.50 35100 89400 (2016) 22500 (2003) 41700 22500 22900 24700 24900 39700 46700 51800 81300 89000
2021-01-08 02:30 9.50 35100 89400 (2016) 22500 (2003) 41700 22500 22900 24700 24900 39700 46700 51800 81300 89000
2021-01-08 01:30 9.49 35000 89400 (2016) 22500 (2003) 41700 22500 22900 24700 24900 39700 46700 51800 81300 89000
2021-01-08 00:30 9.50 35100 89400 (2016) 22500 (2003) 41700 22500 22900 24700 24900 39700 46700 51800 81300 89000
2021-01-07 23:30 9.50 35100 83000 (2020) 22500 (2003) 40900 22500 22700 24400 25000 38400 47600 57200 73300 82500
2021-01-07 22:30 9.51 35100 83000 (2020) 22500 (2003) 40900 22500 22700 24400 25000 38400 47600 57200 73300 82500
2021-01-07 21:30 9.51 35100 83000 (2020) 22500 (2003) 40900 22500 22700 24400 25000 38400 47600 57200 73300 82500
2021-01-07 20:30 9.50 35100 83000 (2020) 22500 (2003) 40900 22500 22700 24400 25000 38400 47600 57200 73300 82500
2021-01-07 19:30 9.50 35100 83000 (2020) 22500 (2003) 40900 22500 22700 24400 25000 38400 47600 57200 73300 82500
2021-01-07 18:30 9.51 35100 83000 (2020) 22500 (2003) 40900 22500 22700 24400 25000 38400 47600 57200 73300 82500
2021-01-07 17:30 9.50 35100 83000 (2020) 22500 (2003) 40900 22500 22700 24400 25000 38400 47600 57200 73300 82500
2021-01-07 16:30 9.49 35000 83000 (2020) 22500 (2003) 40900 22500 22700 24400 25000 38400 47600 57200 73300 82500
2021-01-07 15:30 9.49 35000 83000 (2020) 22500 (2003) 40900 22500 22700 24400 25000 38400 47600 57200 73300 82500
2021-01-07 14:30 9.49 35000 83000 (2020) 22500 (2003) 40900 22500 22700 24400 25000 38400 47600 57200 73300 82500
2021-01-07 13:30 9.49 35000 83000 (2020) 22500 (2003) 40900 22500 22700 24400 25000 38400 47600 57200 73300 82500
2021-01-07 12:30 9.49 35000 83000 (2020) 22500 (2003) 40900 22500 22700 24400 25000 38400 47600 57200 73300 82500
2021-01-07 11:30 9.51 35100 83000 (2020) 22500 (2003) 40900 22500 22700 24400 25000 38400 47600 57200 73300 82500
2021-01-07 10:30 9.51 35100 83000 (2020) 22500 (2003) 40900 22500 22700 24400 25000 38400 47600 57200 73300 82500
2021-01-07 09:30 9.52 35200 83000 (2020) 22500 (2003) 40900 22500 22700 24400 25000 38400 47600 57200 73300 82500
2021-01-07 08:30 9.53 35200 83000 (2020) 22500 (2003) 40900 22500 22700 24400 25000 38400 47600 57200 73300 82500
2021-01-07 07:30 9.53 35200 83000 (2020) 22500 (2003) 40900 22500 22700 24400 25000 38400 47600 57200 73300 82500
2021-01-07 06:30 9.53 35200 83000 (2020) 22500 (2003) 40900 22500 22700 24400 25000 38400 47600 57200 73300 82500
2021-01-07 05:30 9.52 35200 83000 (2020) 22500 (2003) 40900 22500 22700 24400 25000 38400 47600 57200 73300 82500
2021-01-07 04:30 9.51 35100 83000 (2020) 22500 (2003) 40900 22500 22700 24400 25000 38400 47600 57200 73300 82500
2021-01-07 03:30 9.51 35100 83000 (2020) 22500 (2003) 40900 22500 22700 24400 25000 38400 47600 57200 73300 82500
2021-01-07 02:30 9.51 35100 83000 (2020) 22500 (2003) 40900 22500 22700 24400 25000 38400 47600 57200 73300 82500
2021-01-07 01:30 9.51 35100 83000 (2020) 22500 (2003) 40900 22500 22700 24400 25000 38400 47600 57200 73300 82500
2021-01-07 00:30 9.51 35100 83000 (2020) 22500 (2003) 40900 22500 22700 24400 25000 38400 47600 57200 73300 82500
2021-01-06 23:30 9.52 35200 83400 (2020) 22600 (2003) 41800 22600 22800 24500 25300 37100 48700 63900 74900 83000
2021-01-06 22:30 9.52 35200 83400 (2020) 22600 (2003) 41800 22600 22800 24500 25300 37100 48700 63900 74900 83000
2021-01-06 21:30 9.52 35200 83400 (2020) 22600 (2003) 41800 22600 22800 24500 25300 37100 48700 63900 74900 83000
2021-01-06 20:30 9.53 35200 83400 (2020) 22600 (2003) 41800 22600 22800 24500 25300 37100 48700 63900 74900 83000
2021-01-06 19:30 9.52 35200 83400 (2020) 22600 (2003) 41800 22600 22800 24500 25300 37100 48700 63900 74900 83000
2021-01-06 18:30 9.53 35200 83400 (2020) 22600 (2003) 41800 22600 22800 24500 25300 37100 48700 63900 74900 83000
2021-01-06 17:30 9.53 35200 83400 (2020) 22600 (2003) 41800 22600 22800 24500 25300 37100 48700 63900 74900 83000
2021-01-06 16:30 9.53 35200 83400 (2020) 22600 (2003) 41800 22600 22800 24500 25300 37100 48700 63900 74900 83000
2021-01-06 15:30 9.53 35200 83400 (2020) 22600 (2003) 41800 22600 22800 24500 25300 37100 48700 63900 74900 83000
2021-01-06 14:30 9.48 35000 83400 (2020) 22600 (2003) 41800 22600 22800 24500 25300 37100 48700 63900 74900 83000
2021-01-06 13:30 9.46 34900 83400 (2020) 22600 (2003) 41800 22600 22800 24500 25300 37100 48700 63900 74900 83000
2021-01-06 12:30 9.46 34900 83400 (2020) 22600 (2003) 41800 22600 22800 24500 25300 37100 48700 63900 74900 83000
2021-01-06 11:30 9.50 35100 83400 (2020) 22600 (2003) 41800 22600 22800 24500 25300 37100 48700 63900 74900 83000
2021-01-06 10:30 9.53 35200 83400 (2020) 22600 (2003) 41800 22600 22800 24500 25300 37100 48700 63900 74900 83000
2021-01-06 09:30 9.52 35200 83400 (2020) 22600 (2003) 41800 22600 22800 24500 25300 37100 48700 63900 74900 83000
2021-01-06 08:30 9.52 35200 83400 (2020) 22600 (2003) 41800 22600 22800 24500 25300 37100 48700 63900 74900 83000
2021-01-06 07:30 9.50 35100 83400 (2020) 22600 (2003) 41800 22600 22800 24500 25300 37100 48700 63900 74900 83000
2021-01-06 06:30 9.51 35100 83400 (2020) 22600 (2003) 41800 22600 22800 24500 25300 37100 48700 63900 74900 83000
2021-01-06 05:30 9.53 35200 83400 (2020) 22600 (2003) 41800 22600 22800 24500 25300 37100 48700 63900 74900 83000
2021-01-06 04:30 9.55 35300 83400 (2020) 22600 (2003) 41800 22600 22800 24500 25300 37100 48700 63900 74900 83000
2021-01-06 03:30 9.56 35300 83400 (2020) 22600 (2003) 41800 22600 22800 24500 25300 37100 48700 63900 74900 83000
2021-01-06 02:30 9.51 35100 83400 (2020) 22600 (2003) 41800 22600 22800 24500 25300 37100 48700 63900 74900 83000
2021-01-06 01:30 9.52 35200 83400 (2020) 22600 (2003) 41800 22600 22800 24500 25300 37100 48700 63900 74900 83000
2021-01-06 00:30 9.50 35100 83400 (2020) 22600 (2003) 41800 22600 22800 24500 25300 37100 48700 63900 74900 83000
2021-01-05 23:30 9.53 35200 84400 (2020) 22600 (2003) 42500 22600 23500 25200 26000 37900 49800 57900 81900 84400
2021-01-05 22:30 9.54 35200 84400 (2020) 22600 (2003) 42500 22600 23500 25200 26000 37900 49800 57900 81900 84400
2021-01-05 21:30 9.55 35300 84400 (2020) 22600 (2003) 42500 22600 23500 25200 26000 37900 49800 57900 81900 84400
2021-01-05 20:30 9.56 35300 84400 (2020) 22600 (2003) 42500 22600 23500 25200 26000 37900 49800 57900 81900 84400
2021-01-05 19:30 9.57 35400 84400 (2020) 22600 (2003) 42500 22600 23500 25200 26000 37900 49800 57900 81900 84400
2021-01-05 18:30 9.58 35400 84400 (2020) 22600 (2003) 42500 22600 23500 25200 26000 37900 49800 57900 81900 84400
2021-01-05 17:30 9.59 35400 84400 (2020) 22600 (2003) 42500 22600 23500 25200 26000 37900 49800 57900 81900 84400
2021-01-05 16:30 9.60 35500 84400 (2020) 22600 (2003) 42500 22600 23500 25200 26000 37900 49800 57900 81900 84400
2021-01-05 15:30 9.62 35600 84400 (2020) 22600 (2003) 42500 22600 23500 25200 26000 37900 49800 57900 81900 84400
2021-01-05 14:30 9.60 35500 84400 (2020) 22600 (2003) 42500 22600 23500 25200 26000 37900 49800 57900 81900 84400
2021-01-05 13:30 9.63 35600 84400 (2020) 22600 (2003) 42500 22600 23500 25200 26000 37900 49800 57900 81900 84400
2021-01-05 12:30 9.64 35700 84400 (2020) 22600 (2003) 42500 22600 23500 25200 26000 37900 49800 57900 81900 84400
2021-01-05 11:30 9.66 35700 84400 (2020) 22600 (2003) 42500 22600 23500 25200 26000 37900 49800 57900 81900 84400
2021-01-05 10:30 9.67 35800 84400 (2020) 22600 (2003) 42500 22600 23500 25200 26000 37900 49800 57900 81900 84400
2021-01-05 09:30 9.69 35900 84400 (2020) 22600 (2003) 42500 22600 23500 25200 26000 37900 49800 57900 81900 84400
2021-01-05 08:30 9.69 35900 84400 (2020) 22600 (2003) 42500 22600 23500 25200 26000 37900 49800 57900 81900 84400
2021-01-05 07:30 9.70 35900 84400 (2020) 22600 (2003) 42500 22600 23500 25200 26000 37900 49800 57900 81900 84400
2021-01-05 06:30 9.72 36000 84400 (2020) 22600 (2003) 42500 22600 23500 25200 26000 37900 49800 57900 81900 84400
2021-01-05 05:30 9.72 36000 84400 (2020) 22600 (2003) 42500 22600 23500 25200 26000 37900 49800 57900 81900 84400
2021-01-05 04:30 9.72 36000 84400 (2020) 22600 (2003) 42500 22600 23500 25200 26000 37900 49800 57900 81900 84400
2021-01-05 03:30 9.73 36000 84400 (2020) 22600 (2003) 42500 22600 23500 25200 26000 37900 49800 57900 81900 84400
2021-01-05 02:30 9.74 36100 84400 (2020) 22600 (2003) 42500 22600 23500 25200 26000 37900 49800 57900 81900 84400
2021-01-05 01:30 9.73 36000 84400 (2020) 22600 (2003) 42500 22600 23500 25200 26000 37900 49800 57900 81900 84400
2021-01-05 00:30 9.74 36100 84400 (2020) 22600 (2003) 42500 22600 23500 25200 26000 37900 49800 57900 81900 84400
2021-01-04 23:30 9.74 36100 92700 (2019) 22400 (2003) 42600 22500 24100 25200 26700 36900 48600 51200 87500 92500
2021-01-04 22:30 9.74 36100 92700 (2019) 22400 (2003) 42600 22500 24100 25200 26700 36900 48600 51200 87500 92500
2021-01-04 21:30 9.75 36100 92700 (2019) 22400 (2003) 42600 22500 24100 25200 26700 36900 48600 51200 87500 92500
2021-01-04 20:30 9.75 36100 92700 (2019) 22400 (2003) 42600 22500 24100 25200 26700 36900 48600 51200 87500 92500
2021-01-04 19:30 9.75 36100 92700 (2019) 22400 (2003) 42600 22500 24100 25200 26700 36900 48600 51200 87500 92500
2021-01-04 18:30 9.76 36200 92700 (2019) 22400 (2003) 42600 22500 24100 25200 26700 36900 48600 51200 87500 92500
2021-01-04 17:30 9.76 36200 92700 (2019) 22400 (2003) 42600 22500 24100 25200 26700 36900 48600 51200 87500 92500
2021-01-04 16:30 9.77 36200 92700 (2019) 22400 (2003) 42600 22500 24100 25200 26700 36900 48600 51200 87500 92500
2021-01-04 15:30 9.76 36200 92700 (2019) 22400 (2003) 42600 22500 24100 25200 26700 36900 48600 51200 87500 92500
2021-01-04 14:30 9.76 36200 92700 (2019) 22400 (2003) 42600 22500 24100 25200 26700 36900 48600 51200 87500 92500
2021-01-04 13:30 9.76 36200 92700 (2019) 22400 (2003) 42600 22500 24100 25200 26700 36900 48600 51200 87500 92500
2021-01-04 12:30 9.76 36200 92700 (2019) 22400 (2003) 42600 22500 24100 25200 26700 36900 48600 51200 87500 92500
2021-01-04 10:30 9.75 36100 92700 (2019) 22400 (2003) 42600 22500 24100 25200 26700 36900 48600 51200 87500 92500
2021-01-04 02:30 9.76 36200 92700 (2019) 22400 (2003) 42600 22500 24100 25200 26700 36900 48600 51200 87500 92500
2021-01-04 01:30 9.77 36200 92700 (2019) 22400 (2003) 42600 22500 24100 25200 26700 36900 48600 51200 87500 92500
2021-01-03 13:30 9.70 35900 106000 (2019) 21900 (2003) 43600 22000 24300 24900 26700 36400 48800 55300 95000 106000
2021-01-03 12:30 9.69 35900 106000 (2019) 21900 (2003) 43600 22000 24300 24900 26700 36400 48800 55300 95000 106000
2021-01-03 11:30 9.69 35900 106000 (2019) 21900 (2003) 43600 22000 24300 24900 26700 36400 48800 55300 95000 106000
2021-01-03 10:30 9.68 35800 106000 (2019) 21900 (2003) 43600 22000 24300 24900 26700 36400 48800 55300 95000 106000
2021-01-03 09:30 9.72 36000 106000 (2019) 21900 (2003) 43600 22000 24300 24900 26700 36400 48800 55300 95000 106000
2021-01-02 12:30 9.67 35800 131000 (2019) 21800 (2003) 46000 21900 24100 25900 26600 36700 49200 64800 103000 130000
2021-01-02 11:30 9.67 35800 131000 (2019) 21800 (2003) 46000 21900 24100 25900 26600 36700 49200 64800 103000 130000
2021-01-02 10:30 9.67 35800 131000 (2019) 21800 (2003) 46000 21900 24100 25900 26600 36700 49200 64800 103000 130000
2021-01-02 09:30 9.67 35800 131000 (2019) 21800 (2003) 46000 21900 24100 25900 26600 36700 49200 64800 103000 130000
2021-01-02 08:30 9.67 35800 131000 (2019) 21800 (2003) 46000 21900 24100 25900 26600 36700 49200 64800 103000 130000
2021-01-02 07:30 9.67 35800 131000 (2019) 21800 (2003) 46000 21900 24100 25900 26600 36700 49200 64800 103000 130000
2021-01-02 06:30 9.66 35700 131000 (2019) 21800 (2003) 46000 21900 24100 25900 26600 36700 49200 64800 103000 130000
2021-01-02 05:30 9.66 35700 131000 (2019) 21800 (2003) 46000 21900 24100 25900 26600 36700 49200 64800 103000 130000
2021-01-02 04:30 9.65 35700 131000 (2019) 21800 (2003) 46000 21900 24100 25900 26600 36700 49200 64800 103000 130000
2021-01-02 03:30 9.62 35600 131000 (2019) 21800 (2003) 46000 21900 24100 25900 26600 36700 49200 64800 103000 130000
2021-01-02 02:30 9.61 35500 131000 (2019) 21800 (2003) 46000 21900 24100 25900 26600 36700 49200 64800 103000 130000
2021-01-02 01:30 9.60 35500 131000 (2019) 21800 (2003) 46000 21900 24100 25900 26600 36700 49200 64800 103000 130000
2021-01-02 00:30 9.60 35500 131000 (2019) 21800 (2003) 46000 21900 24100 25900 26600 36700 49200 64800 103000 130000
2021-01-01 23:30 9.59 35400 133000 (2019) 21900 (2003) 48000 22000 24000 26800 27000 37700 50000 78200 110000 132000
2021-01-01 21:30 9.58 35400 133000 (2019) 21900 (2003) 48000 22000 24000 26800 27000 37700 50000 78200 110000 132000
2021-01-01 20:30 9.55 35300 133000 (2019) 21900 (2003) 48000 22000 24000 26800 27000 37700 50000 78200 110000 132000
2021-01-01 19:30 9.53 35200 133000 (2019) 21900 (2003) 48000 22000 24000 26800 27000 37700 50000 78200 110000 132000
2021-01-01 18:30 9.52 35200 133000 (2019) 21900 (2003) 48000 22000 24000 26800 27000 37700 50000 78200 110000 132000
2021-01-01 17:30 9.51 35100 133000 (2019) 21900 (2003) 48000 22000 24000 26800 27000 37700 50000 78200 110000 132000
2021-01-01 16:30 9.50 35100 133000 (2019) 21900 (2003) 48000 22000 24000 26800 27000 37700 50000 78200 110000 132000
2021-01-01 15:30 9.45 34900 133000 (2019) 21900 (2003) 48000 22000 24000 26800 27000 37700 50000 78200 110000 132000
2021-01-01 14:30 9.45 34900 133000 (2019) 21900 (2003) 48000 22000 24000 26800 27000 37700 50000 78200 110000 132000
2021-01-01 13:30 9.45 34900 133000 (2019) 21900 (2003) 48000 22000 24000 26800 27000 37700 50000 78200 110000 132000
2021-01-01 12:30 9.42 34700 133000 (2019) 21900 (2003) 48000 22000 24000 26800 27000 37700 50000 78200 110000 132000
2021-01-01 11:30 9.37 34500 133000 (2019) 21900 (2003) 48000 22000 24000 26800 27000 37700 50000 78200 110000 132000
2021-01-01 09:30 9.32 34300 133000 (2019) 21900 (2003) 48000 22000 24000 26800 27000 37700 50000 78200 110000 132000
2021-01-01 06:30 9.11 33500 133000 (2019) 21900 (2003) 48000 22000 24000 26800 27000 37700 50000 78200 110000 132000
2021-01-01 05:30 9.16 33700 133000 (2019) 21900 (2003) 48000 22000 24000 26800 27000 37700 50000 78200 110000 132000
2021-01-01 04:30 9.14 33600 133000 (2019) 21900 (2003) 48000 22000 24000 26800 27000 37700 50000 78200 110000 132000
2021-01-01 03:30 9.09 33400 133000 (2019) 21900 (2003) 48000 22000 24000 26800 27000 37700 50000 78200 110000 132000
2021-01-01 02:30 9.09 33400 133000 (2019) 21900 (2003) 48000 22000 24000 26800 27000 37700 50000 78200 110000 132000
2021-01-01 01:30 9.08 33300 133000 (2019) 21900 (2003) 48000 22000 24000 26800 27000 37700 50000 78200 110000 132000
2021-01-01 00:30 9.07 33300 133000 (2019) 21900 (2003) 48000 22000 24000 26800 27000 37700 50000 78200 110000 132000
2020-12-31 23:30 9.05 33200 130000 (2019) 22100 (2003) 50200 22200 23600 26200 26800 39000 53600 88400 121000 130000
2020-12-31 22:30 9.04 33200 130000 (2019) 22100 (2003) 50200 22200 23600 26200 26800 39000 53600 88400 121000 130000
2020-12-31 21:30 9.02 33100 130000 (2019) 22100 (2003) 50200 22200 23600 26200 26800 39000 53600 88400 121000 130000
2020-12-31 20:30 9.01 33100 130000 (2019) 22100 (2003) 50200 22200 23600 26200 26800 39000 53600 88400 121000 130000
2020-12-31 19:30 9.01 33100 130000 (2019) 22100 (2003) 50200 22200 23600 26200 26800 39000 53600 88400 121000 130000
2020-12-31 18:30 9.00 33000 130000 (2019) 22100 (2003) 50200 22200 23600 26200 26800 39000 53600 88400 121000 130000
2020-12-31 17:30 8.99 33000 130000 (2019) 22100 (2003) 50200 22200 23600 26200 26800 39000 53600 88400 121000 130000
2020-12-31 16:30 8.98 32900 130000 (2019) 22100 (2003) 50200 22200 23600 26200 26800 39000 53600 88400 121000 130000
2020-12-31 15:30 8.97 32900 130000 (2019) 22100 (2003) 50200 22200 23600 26200 26800 39000 53600 88400 121000 130000
2020-12-31 14:30 8.97 32900 130000 (2019) 22100 (2003) 50200 22200 23600 26200 26800 39000 53600 88400 121000 130000
2020-12-31 13:30 8.96 32800 130000 (2019) 22100 (2003) 50200 22200 23600 26200 26800 39000 53600 88400 121000 130000
2020-12-31 12:30 8.96 32800 130000 (2019) 22100 (2003) 50200 22200 23600 26200 26800 39000 53600 88400 121000 130000
2020-12-31 11:30 8.94 32800 130000 (2019) 22100 (2003) 50200 22200 23600 26200 26800 39000 53600 88400 121000 130000
2020-12-31 10:30 8.97 32900 130000 (2019) 22100 (2003) 50200 22200 23600 26200 26800 39000 53600 88400 121000 130000
2020-12-31 09:30 8.98 32900 130000 (2019) 22100 (2003) 50200 22200 23600 26200 26800 39000 53600 88400 121000 130000
2020-12-31 08:30 8.99 33000 130000 (2019) 22100 (2003) 50200 22200 23600 26200 26800 39000 53600 88400 121000 130000
2020-12-31 07:30 9.00 33000 130000 (2019) 22100 (2003) 50200 22200 23600 26200 26800 39000 53600 88400 121000 130000
2020-12-31 06:30 9.01 33100 130000 (2019) 22100 (2003) 50200 22200 23600 26200 26800 39000 53600 88400 121000 130000
2020-12-31 05:30 9.02 33100 130000 (2019) 22100 (2003) 50200 22200 23600 26200 26800 39000 53600 88400 121000 130000
2020-12-31 04:30 9.02 33100 130000 (2019) 22100 (2003) 50200 22200 23600 26200 26800 39000 53600 88400 121000 130000
2020-12-31 03:30 9.03 33100 130000 (2019) 22100 (2003) 50200 22200 23600 26200 26800 39000 53600 88400 121000 130000
2020-12-31 02:30 9.04 33200 130000 (2019) 22100 (2003) 50200 22200 23600 26200 26800 39000 53600 88400 121000 130000
2020-12-31 01:30 9.05 33200 130000 (2019) 22100 (2003) 50200 22200 23600 26200 26800 39000 53600 88400 121000 130000
2020-12-31 00:30 9.05 33200 130000 (2019) 22100 (2003) 50200 22200 23600 26200 26800 39000 53600 88400 121000 130000
2020-12-30 23:30 9.06 33300 135000 (2019) 22000 (2003) 52300 22000 23100 25600 26500 40700 55100 95200 120000 134000
2020-12-30 22:30 9.07 33300 135000 (2019) 22000 (2003) 52300 22000 23100 25600 26500 40700 55100 95200 120000 134000
2020-12-30 21:30 9.09 33400 135000 (2019) 22000 (2003) 52300 22000 23100 25600 26500 40700 55100 95200 120000 134000
2020-12-30 20:30 9.10 33400 135000 (2019) 22000 (2003) 52300 22000 23100 25600 26500 40700 55100 95200 120000 134000
2020-12-30 19:30 9.12 33500 135000 (2019) 22000 (2003) 52300 22000 23100 25600 26500 40700 55100 95200 120000 134000
2020-12-30 18:30 9.12 33500 135000 (2019) 22000 (2003) 52300 22000 23100 25600 26500 40700 55100 95200 120000 134000
2020-12-30 17:30 9.15 33600 135000 (2019) 22000 (2003) 52300 22000 23100 25600 26500 40700 55100 95200 120000 134000
2020-12-30 16:30 9.17 33700 135000 (2019) 22000 (2003) 52300 22000 23100 25600 26500 40700 55100 95200 120000 134000
2020-12-30 15:30 9.13 33500 135000 (2019) 22000 (2003) 52300 22000 23100 25600 26500 40700 55100 95200 120000 134000
2020-12-30 14:30 9.18 33700 135000 (2019) 22000 (2003) 52300 22000 23100 25600 26500 40700 55100 95200 120000 134000
2020-12-30 13:30 9.18 33700 135000 (2019) 22000 (2003) 52300 22000 23100 25600 26500 40700 55100 95200 120000 134000
2020-12-30 12:30 9.17 33700 135000 (2019) 22000 (2003) 52300 22000 23100 25600 26500 40700 55100 95200 120000 134000
2020-12-30 11:30 9.19 33800 135000 (2019) 22000 (2003) 52300 22000 23100 25600 26500 40700 55100 95200 120000 134000
2020-12-30 10:30 9.21 33900 135000 (2019) 22000 (2003) 52300 22000 23100 25600 26500 40700 55100 95200 120000 134000
2020-12-30 09:30 9.21 33900 135000 (2019) 22000 (2003) 52300 22000 23100 25600 26500 40700 55100 95200 120000 134000
2020-12-30 08:30 9.22 33900 135000 (2019) 22000 (2003) 52300 22000 23100 25600 26500 40700 55100 95200 120000 134000
2020-12-30 07:30 9.24 34000 135000 (2019) 22000 (2003) 52300 22000 23100 25600 26500 40700 55100 95200 120000 134000
2020-12-30 06:30 9.24 34000 135000 (2019) 22000 (2003) 52300 22000 23100 25600 26500 40700 55100 95200 120000 134000
2020-12-30 05:30 9.26 34100 135000 (2019) 22000 (2003) 52300 22000 23100 25600 26500 40700 55100 95200 120000 134000
2020-12-30 04:30 9.27 34100 135000 (2019) 22000 (2003) 52300 22000 23100 25600 26500 40700 55100 95200 120000 134000
2020-12-30 03:30 9.28 34100 135000 (2019) 22000 (2003) 52300 22000 23100 25600 26500 40700 55100 95200 120000 134000
2020-12-30 02:30 9.28 34100 135000 (2019) 22000 (2003) 52300 22000 23100 25600 26500 40700 55100 95200 120000 134000
2020-12-30 01:30 9.28 34100 135000 (2019) 22000 (2003) 52300 22000 23100 25600 26500 40700 55100 95200 120000 134000
2020-12-30 00:30 9.26 34100 135000 (2019) 22000 (2003) 52300 22000 23100 25600 26500 40700 55100 95200 120000 134000
2020-12-29 23:30 9.25 34000 128000 (2016) 22100 (2001) 50400 22100 22500 25100 26300 41700 55700 88000 112000 127000
2020-12-29 22:30 9.27 34100 128000 (2016) 22100 (2001) 50400 22100 22500 25100 26300 41700 55700 88000 112000 127000
2020-12-29 21:30 9.29 34200 128000 (2016) 22100 (2001) 50400 22100 22500 25100 26300 41700 55700 88000 112000 127000
2020-12-29 20:30 9.31 34300 128000 (2016) 22100 (2001) 50400 22100 22500 25100 26300 41700 55700 88000 112000 127000
2020-12-29 19:30 9.24 34000 128000 (2016) 22100 (2001) 50400 22100 22500 25100 26300 41700 55700 88000 112000 127000
2020-12-29 18:30 9.21 33900 128000 (2016) 22100 (2001) 50400 22100 22500 25100 26300 41700 55700 88000 112000 127000
2020-12-29 17:30 9.22 33900 128000 (2016) 22100 (2001) 50400 22100 22500 25100 26300 41700 55700 88000 112000 127000
2020-12-29 16:30 9.24 34000 128000 (2016) 22100 (2001) 50400 22100 22500 25100 26300 41700 55700 88000 112000 127000
2020-12-29 15:30 9.25 34000 128000 (2016) 22100 (2001) 50400 22100 22500 25100 26300 41700 55700 88000 112000 127000
2020-12-29 14:30 9.30 34200 128000 (2016) 22100 (2001) 50400 22100 22500 25100 26300 41700 55700 88000 112000 127000
2020-12-29 13:30 9.29 34200 128000 (2016) 22100 (2001) 50400 22100 22500 25100 26300 41700 55700 88000 112000 127000
2020-12-29 12:30 9.29 34200 128000 (2016) 22100 (2001) 50400 22100 22500 25100 26300 41700 55700 88000 112000 127000
2020-12-29 11:30 9.30 34200 128000 (2016) 22100 (2001) 50400 22100 22500 25100 26300 41700 55700 88000 112000 127000
2020-12-29 10:30 9.32 34300 128000 (2016) 22100 (2001) 50400 22100 22500 25100 26300 41700 55700 88000 112000 127000
2020-12-29 09:30 9.29 34200 128000 (2016) 22100 (2001) 50400 22100 22500 25100 26300 41700 55700 88000 112000 127000
2020-12-29 08:30 9.32 34300 128000 (2016) 22100 (2001) 50400 22100 22500 25100 26300 41700 55700 88000 112000 127000
2020-12-29 07:30 9.30 34200 128000 (2016) 22100 (2001) 50400 22100 22500 25100 26300 41700 55700 88000 112000 127000
2020-12-29 06:30 9.29 34200 128000 (2016) 22100 (2001) 50400 22100 22500 25100 26300 41700 55700 88000 112000 127000
2020-12-29 05:30 9.31 34300 128000 (2016) 22100 (2001) 50400 22100 22500 25100 26300 41700 55700 88000 112000 127000
2020-12-29 04:30 9.31 34300 128000 (2016) 22100 (2001) 50400 22100 22500 25100 26300 41700 55700 88000 112000 127000
2020-12-29 03:30 9.31 34300 128000 (2016) 22100 (2001) 50400 22100 22500 25100 26300 41700 55700 88000 112000 127000
2020-12-29 02:30 9.31 34300 128000 (2016) 22100 (2001) 50400 22100 22500 25100 26300 41700 55700 88000 112000 127000
2020-12-29 01:30 9.31 34300 128000 (2016) 22100 (2001) 50400 22100 22500 25100 26300 41700 55700 88000 112000 127000
2020-12-29 00:30 9.30 34200 128000 (2016) 22100 (2001) 50400 22100 22500 25100 26300 41700 55700 88000 112000 127000
2020-12-28 23:30 9.31 34300 129000 (2016) 21200 (2001) 47700 21300 23200 25000 26200 41900 61400 72700 90300 127000
2020-12-28 22:30 9.30 34200 129000 (2016) 21200 (2001) 47700 21300 23200 25000 26200 41900 61400 72700 90300 127000
2020-12-28 21:30 9.30 34200 129000 (2016) 21200 (2001) 47700 21300 23200 25000 26200 41900 61400 72700 90300 127000
2020-12-28 20:30 9.30 34200 129000 (2016) 21200 (2001) 47700 21300 23200 25000 26200 41900 61400 72700 90300 127000
2020-12-28 19:30 9.29 34200 129000 (2016) 21200 (2001) 47700 21300 23200 25000 26200 41900 61400 72700 90300 127000
2020-12-28 18:30 9.28 34100 129000 (2016) 21200 (2001) 47700 21300 23200 25000 26200 41900 61400 72700 90300 127000
2020-12-28 17:30 9.28 34100 129000 (2016) 21200 (2001) 47700 21300 23200 25000 26200 41900 61400 72700 90300 127000
2020-12-28 16:30 9.25 34000 129000 (2016) 21200 (2001) 47700 21300 23200 25000 26200 41900 61400 72700 90300 127000
2020-12-28 15:30 9.25 34000 129000 (2016) 21200 (2001) 47700 21300 23200 25000 26200 41900 61400 72700 90300 127000
2020-12-28 14:30 9.24 34000 129000 (2016) 21200 (2001) 47700 21300 23200 25000 26200 41900 61400 72700 90300 127000
2020-12-28 13:30 9.25 34000 129000 (2016) 21200 (2001) 47700 21300 23200 25000 26200 41900 61400 72700 90300 127000
2020-12-28 12:30 9.26 34100 129000 (2016) 21200 (2001) 47700 21300 23200 25000 26200 41900 61400 72700 90300 127000
2020-12-28 11:30 9.26 34100 129000 (2016) 21200 (2001) 47700 21300 23200 25000 26200 41900 61400 72700 90300 127000
2020-12-28 10:30 9.27 34100 129000 (2016) 21200 (2001) 47700 21300 23200 25000 26200 41900 61400 72700 90300 127000
2020-12-28 09:30 9.26 34100 129000 (2016) 21200 (2001) 47700 21300 23200 25000 26200 41900 61400 72700 90300 127000
2020-12-28 08:30 9.25 34000 129000 (2016) 21200 (2001) 47700 21300 23200 25000 26200 41900 61400 72700 90300 127000
2020-12-28 07:30 9.26 34100 129000 (2016) 21200 (2001) 47700 21300 23200 25000 26200 41900 61400 72700 90300 127000
2020-12-28 06:30 9.25 34000 129000 (2016) 21200 (2001) 47700 21300 23200 25000 26200 41900 61400 72700 90300 127000
2020-12-28 05:30 9.24 34000 129000 (2016) 21200 (2001) 47700 21300 23200 25000 26200 41900 61400 72700 90300 127000
2020-12-28 04:30 9.23 33900 129000 (2016) 21200 (2001) 47700 21300 23200 25000 26200 41900 61400 72700 90300 127000
2020-12-28 03:30 9.19 33800 129000 (2016) 21200 (2001) 47700 21300 23200 25000 26200 41900 61400 72700 90300 127000
2020-12-28 02:30 9.22 33900 129000 (2016) 21200 (2001) 47700 21300 23200 25000 26200 41900 61400 72700 90300 127000
2020-12-28 01:30 9.21 33900 129000 (2016) 21200 (2001) 47700 21300 23200 25000 26200 41900 61400 72700 90300 127000
2020-12-28 00:30 9.20 33800 129000 (2016) 21200 (2001) 47700 21300 23200 25000 26200 41900 61400 72700 90300 127000
2020-12-27 23:30 9.22 33900 124000 (2016) 20300 (2001) 46000 20500 23600 25400 26600 42200 52500 71200 78500 122000
2020-12-27 22:30 9.20 33800 124000 (2016) 20300 (2001) 46000 20500 23600 25400 26600 42200 52500 71200 78500 122000
2020-12-27 21:30 9.20 33800 124000 (2016) 20300 (2001) 46000 20500 23600 25400 26600 42200 52500 71200 78500 122000
2020-12-27 20:30 9.21 33900 124000 (2016) 20300 (2001) 46000 20500 23600 25400 26600 42200 52500 71200 78500 122000
2020-12-27 19:30 9.19 33800 124000 (2016) 20300 (2001) 46000 20500 23600 25400 26600 42200 52500 71200 78500 122000
2020-12-27 18:30 9.19 33800 124000 (2016) 20300 (2001) 46000 20500 23600 25400 26600 42200 52500 71200 78500 122000
2020-12-27 17:30 9.18 33700 124000 (2016) 20300 (2001) 46000 20500 23600 25400 26600 42200 52500 71200 78500 122000
2020-12-27 16:30 9.15 33600 124000 (2016) 20300 (2001) 46000 20500 23600 25400 26600 42200 52500 71200 78500 122000
2020-12-27 15:30 9.10 33400 124000 (2016) 20300 (2001) 46000 20500 23600 25400 26600 42200 52500 71200 78500 122000
2020-12-27 14:30 9.11 33500 124000 (2016) 20300 (2001) 46000 20500 23600 25400 26600 42200 52500 71200 78500 122000
2020-12-27 13:30 9.08 33300 124000 (2016) 20300 (2001) 46000 20500 23600 25400 26600 42200 52500 71200 78500 122000
2020-12-27 12:30 9.07 33300 124000 (2016) 20300 (2001) 46000 20500 23600 25400 26600 42200 52500 71200 78500 122000
2020-12-27 11:30 9.04 33200 124000 (2016) 20300 (2001) 46000 20500 23600 25400 26600 42200 52500 71200 78500 122000
2020-12-27 10:30 9.04 33200 124000 (2016) 20300 (2001) 46000 20500 23600 25400 26600 42200 52500 71200 78500 122000
2020-12-27 09:30 9.09 33400 124000 (2016) 20300 (2001) 46000 20500 23600 25400 26600 42200 52500 71200 78500 122000
2020-12-27 08:30 9.07 33300 124000 (2016) 20300 (2001) 46000 20500 23600 25400 26600 42200 52500 71200 78500 122000
2020-12-27 07:30 9.05 33200 124000 (2016) 20300 (2001) 46000 20500 23600 25400 26600 42200 52500 71200 78500 122000
2020-12-27 06:30 9.05 33200 124000 (2016) 20300 (2001) 46000 20500 23600 25400 26600 42200 52500 71200 78500 122000
2020-12-27 05:30 9.05 33200 124000 (2016) 20300 (2001) 46000 20500 23600 25400 26600 42200 52500 71200 78500 122000
2020-12-27 04:30 8.99 33000 124000 (2016) 20300 (2001) 46000 20500 23600 25400 26600 42200 52500 71200 78500 122000
2020-12-27 03:30 9.02 33100 124000 (2016) 20300 (2001) 46000 20500 23600 25400 26600 42200 52500 71200 78500 122000
2020-12-27 02:30 9.00 33000 124000 (2016) 20300 (2001) 46000 20500 23600 25400 26600 42200 52500 71200 78500 122000
2020-12-27 01:30 9.00 33000 124000 (2016) 20300 (2001) 46000 20500 23600 25400 26600 42200 52500 71200 78500 122000
2020-12-27 00:30 8.98 32900 124000 (2016) 20300 (2001) 46000 20500 23600 25400 26600 42200 52500 71200 78500 122000
2020-12-26 23:30 8.98 32900 117000 (2016) 19600 (2001) 45100 19800 23700 25900 27100 38800 52200 71800 83300 115000
2020-12-26 22:30 8.97 32900 117000 (2016) 19600 (2001) 45100 19800 23700 25900 27100 38800 52200 71800 83300 115000
2020-12-26 21:30 8.97 32900 117000 (2016) 19600 (2001) 45100 19800 23700 25900 27100 38800 52200 71800 83300 115000
2020-12-26 20:30 8.96 32800 117000 (2016) 19600 (2001) 45100 19800 23700 25900 27100 38800 52200 71800 83300 115000
2020-12-26 19:30 8.95 32800 117000 (2016) 19600 (2001) 45100 19800 23700 25900 27100 38800 52200 71800 83300 115000
2020-12-26 18:30 8.95 32800 117000 (2016) 19600 (2001) 45100 19800 23700 25900 27100 38800 52200 71800 83300 115000
2020-12-26 17:30 8.92 32700 117000 (2016) 19600 (2001) 45100 19800 23700 25900 27100 38800 52200 71800 83300 115000
2020-12-26 16:30 8.91 32700 117000 (2016) 19600 (2001) 45100 19800 23700 25900 27100 38800 52200 71800 83300 115000
2020-12-26 15:30 8.89 32600 117000 (2016) 19600 (2001) 45100 19800 23700 25900 27100 38800 52200 71800 83300 115000
2020-12-26 14:30 8.85 32400 117000 (2016) 19600 (2001) 45100 19800 23700 25900 27100 38800 52200 71800 83300 115000
2020-12-26 13:30 8.86 32500 117000 (2016) 19600 (2001) 45100 19800 23700 25900 27100 38800 52200 71800 83300 115000
2020-12-26 12:30 8.86 32500 117000 (2016) 19600 (2001) 45100 19800 23700 25900 27100 38800 52200 71800 83300 115000
2020-12-26 11:30 8.86 32500 117000 (2016) 19600 (2001) 45100 19800 23700 25900 27100 38800 52200 71800 83300 115000
2020-12-26 10:30 8.87 32500 117000 (2016) 19600 (2001) 45100 19800 23700 25900 27100 38800 52200 71800 83300 115000
2020-12-26 09:30 8.88 32500 117000 (2016) 19600 (2001) 45100 19800 23700 25900 27100 38800 52200 71800 83300 115000
2020-12-26 08:30 8.89 32600 117000 (2016) 19600 (2001) 45100 19800 23700 25900 27100 38800 52200 71800 83300 115000
2020-12-26 07:30 8.89 32600 117000 (2016) 19600 (2001) 45100 19800 23700 25900 27100 38800 52200 71800 83300 115000
2020-12-26 06:30 8.90 32600 117000 (2016) 19600 (2001) 45100 19800 23700 25900 27100 38800 52200 71800 83300 115000
2020-12-26 05:30 8.89 32600 117000 (2016) 19600 (2001) 45100 19800 23700 25900 27100 38800 52200 71800 83300 115000
2020-12-26 04:30 8.87 32500 117000 (2016) 19600 (2001) 45100 19800 23700 25900 27100 38800 52200 71800 83300 115000
2020-12-26 03:30 8.87 32500 117000 (2016) 19600 (2001) 45100 19800 23700 25900 27100 38800 52200 71800 83300 115000
2020-12-26 02:30 8.85 32400 117000 (2016) 19600 (2001) 45100 19800 23700 25900 27100 38800 52200 71800 83300 115000
2020-12-26 01:30 8.85 32400 117000 (2016) 19600 (2001) 45100 19800 23700 25900 27100 38800 52200 71800 83300 115000
2020-12-26 00:30 8.85 32400 117000 (2016) 19600 (2001) 45100 19800 23700 25900 27100 38800 52200 71800 83300 115000
2020-12-25 23:30 8.84 32400 103000 (2016) 20000 (2001) 43800 20200 23700 26300 26600 37800 54500 62800 78400 102000
2020-12-25 22:30 8.81 32300 103000 (2016) 20000 (2001) 43800 20200 23700 26300 26600 37800 54500 62800 78400 102000
2020-12-25 21:30 8.81 32300 103000 (2016) 20000 (2001) 43800 20200 23700 26300 26600 37800 54500 62800 78400 102000
2020-12-25 20:30 8.80 32200 103000 (2016) 20000 (2001) 43800 20200 23700 26300 26600 37800 54500 62800 78400 102000
2020-12-25 19:30 8.84 32400 103000 (2016) 20000 (2001) 43800 20200 23700 26300 26600 37800 54500 62800 78400 102000
2020-12-25 18:30 8.86 32500 103000 (2016) 20000 (2001) 43800 20200 23700 26300 26600 37800 54500 62800 78400 102000
2020-12-25 17:30 8.85 32400 103000 (2016) 20000 (2001) 43800 20200 23700 26300 26600 37800 54500 62800 78400 102000
2020-12-25 16:30 8.80 32200 103000 (2016) 20000 (2001) 43800 20200 23700 26300 26600 37800 54500 62800 78400 102000
2020-12-25 15:30 8.82 32300 103000 (2016) 20000 (2001) 43800 20200 23700 26300 26600 37800 54500 62800 78400 102000
2020-12-25 14:30 8.83 32300 103000 (2016) 20000 (2001) 43800 20200 23700 26300 26600 37800 54500 62800 78400 102000
2020-12-25 13:30 8.82 32300 103000 (2016) 20000 (2001) 43800 20200 23700 26300 26600 37800 54500 62800 78400 102000
2020-12-25 12:30 8.83 32300 103000 (2016) 20000 (2001) 43800 20200 23700 26300 26600 37800 54500 62800 78400 102000
2020-12-25 11:30 8.84 32400 103000 (2016) 20000 (2001) 43800 20200 23700 26300 26600 37800 54500 62800 78400 102000
2020-12-25 10:30 8.84 32400 103000 (2016) 20000 (2001) 43800 20200 23700 26300 26600 37800 54500 62800 78400 102000
2020-12-25 09:30 8.85 32400 103000 (2016) 20000 (2001) 43800 20200 23700 26300 26600 37800 54500 62800 78400 102000
2020-12-25 08:30 8.85 32400 103000 (2016) 20000 (2001) 43800 20200 23700 26300 26600 37800 54500 62800 78400 102000
2020-12-25 07:30 8.85 32400 103000 (2016) 20000 (2001) 43800 20200 23700 26300 26600 37800 54500 62800 78400 102000
2020-12-25 06:30 8.85 32400 103000 (2016) 20000 (2001) 43800 20200 23700 26300 26600 37800 54500 62800 78400 102000
2020-12-25 05:30 8.86 32500 103000 (2016) 20000 (2001) 43800 20200 23700 26300 26600 37800 54500 62800 78400 102000
2020-12-25 04:30 8.85 32400 103000 (2016) 20000 (2001) 43800 20200 23700 26300 26600 37800 54500 62800 78400 102000
2020-12-25 03:30 8.85 32400 103000 (2016) 20000 (2001) 43800 20200 23700 26300 26600 37800 54500 62800 78400 102000
2020-12-25 02:30 8.84 32400 103000 (2016) 20000 (2001) 43800 20200 23700 26300 26600 37800 54500 62800 78400 102000
2020-12-25 01:30 8.85 32400 103000 (2016) 20000 (2001) 43800 20200 23700 26300 26600 37800 54500 62800 78400 102000
2020-12-25 00:30 8.85 32400 103000 (2016) 20000 (2001) 43800 20200 23700 26300 26600 37800 54500 62800 78400 102000
2020-12-24 23:30 8.84 32400 105000 (2016) 21200 (2001) 43300 21300 23700 26200 27400 36700 48300 58600 78200 104000
2020-12-24 22:30 8.84 32400 105000 (2016) 21200 (2001) 43300 21300 23700 26200 27400 36700 48300 58600 78200 104000
2020-12-24 21:30 8.87 32500 105000 (2016) 21200 (2001) 43300 21300 23700 26200 27400 36700 48300 58600 78200 104000
2020-12-24 20:30 8.87 32500 105000 (2016) 21200 (2001) 43300 21300 23700 26200 27400 36700 48300 58600 78200 104000
2020-12-24 19:30 8.85 32400 105000 (2016) 21200 (2001) 43300 21300 23700 26200 27400 36700 48300 58600 78200 104000
2020-12-24 18:30 8.85 32400 105000 (2016) 21200 (2001) 43300 21300 23700 26200 27400 36700 48300 58600 78200 104000
2020-12-24 17:30 8.86 32500 105000 (2016) 21200 (2001) 43300 21300 23700 26200 27400 36700 48300 58600 78200 104000
2020-12-24 16:30 8.83 32300 105000 (2016) 21200 (2001) 43300 21300 23700 26200 27400 36700 48300 58600 78200 104000
2020-12-24 15:30 8.81 32300 105000 (2016) 21200 (2001) 43300 21300 23700 26200 27400 36700 48300 58600 78200 104000
2020-12-24 14:30 8.81 32300 105000 (2016) 21200 (2001) 43300 21300 23700 26200 27400 36700 48300 58600 78200 104000
2020-12-24 13:30 8.83 32300 105000 (2016) 21200 (2001) 43300 21300 23700 26200 27400 36700 48300 58600 78200 104000
2020-12-24 12:30 8.84 32400 105000 (2016) 21200 (2001) 43300 21300 23700 26200 27400 36700 48300 58600 78200 104000
2020-12-24 11:30 8.85 32400 105000 (2016) 21200 (2001) 43300 21300 23700 26200 27400 36700 48300 58600 78200 104000
2020-12-24 10:30 8.87 32500 105000 (2016) 21200 (2001) 43300 21300 23700 26200 27400 36700 48300 58600 78200 104000
2020-12-24 09:30 8.88 32500 105000 (2016) 21200 (2001) 43300 21300 23700 26200 27400 36700 48300 58600 78200 104000
2020-12-24 08:30 8.89 32600 105000 (2016) 21200 (2001) 43300 21300 23700 26200 27400 36700 48300 58600 78200 104000
2020-12-24 07:30 8.88 32500 105000 (2016) 21200 (2001) 43300 21300 23700 26200 27400 36700 48300 58600 78200 104000
2020-12-24 06:30 8.89 32600 105000 (2016) 21200 (2001) 43300 21300 23700 26200 27400 36700 48300 58600 78200 104000
2020-12-24 05:30 8.89 32600 105000 (2016) 21200 (2001) 43300 21300 23700 26200 27400 36700 48300 58600 78200 104000
2020-12-24 04:30 8.90 32600 105000 (2016) 21200 (2001) 43300 21300 23700 26200 27400 36700 48300 58600 78200 104000
2020-12-24 03:30 8.90 32600 105000 (2016) 21200 (2001) 43300 21300 23700 26200 27400 36700 48300 58600 78200 104000
2020-12-24 02:30 8.90 32600 105000 (2016) 21200 (2001) 43300 21300 23700 26200 27400 36700 48300 58600 78200 104000
2020-12-24 01:30 8.92 32700 105000 (2016) 21200 (2001) 43300 21300 23700 26200 27400 36700 48300 58600 78200 104000
2020-12-24 00:30 8.94 32800 105000 (2016) 21200 (2001) 43300 21300 23700 26200 27400 36700 48300 58600 78200 104000
2020-12-23 23:30 8.93 32700 112000 (2016) 21600 (2001) 43400 21700 23800 26200 26800 36800 45500 62600 77800 110000
2020-12-23 22:30 8.93 32700 112000 (2016) 21600 (2001) 43400 21700 23800 26200 26800 36800 45500 62600 77800 110000
2020-12-23 21:30 8.94 32800 112000 (2016) 21600 (2001) 43400 21700 23800 26200 26800 36800 45500 62600 77800 110000
2020-12-23 20:30 8.95 32800 112000 (2016) 21600 (2001) 43400 21700 23800 26200 26800 36800 45500 62600 77800 110000
2020-12-23 19:30 8.96 32800 112000 (2016) 21600 (2001) 43400 21700 23800 26200 26800 36800 45500 62600 77800 110000
2020-12-23 18:30 8.97 32900 112000 (2016) 21600 (2001) 43400 21700 23800 26200 26800 36800 45500 62600 77800 110000
2020-12-23 17:30 8.94 32800 112000 (2016) 21600 (2001) 43400 21700 23800 26200 26800 36800 45500 62600 77800 110000
2020-12-23 16:30 8.94 32800 112000 (2016) 21600 (2001) 43400 21700 23800 26200 26800 36800 45500 62600 77800 110000
2020-12-23 15:30 8.91 32700 112000 (2016) 21600 (2001) 43400 21700 23800 26200 26800 36800 45500 62600 77800 110000
2020-12-23 14:30 8.93 32700 112000 (2016) 21600 (2001) 43400 21700 23800 26200 26800 36800 45500 62600 77800 110000
2020-12-23 13:30 8.92 32700 112000 (2016) 21600 (2001) 43400 21700 23800 26200 26800 36800 45500 62600 77800 110000
2020-12-23 12:30 8.92 32700 112000 (2016) 21600 (2001) 43400 21700 23800 26200 26800 36800 45500 62600 77800 110000
2020-12-23 11:30 8.90 32600 112000 (2016) 21600 (2001) 43400 21700 23800 26200 26800 36800 45500 62600 77800 110000
2020-12-23 10:30 8.93 32700 112000 (2016) 21600 (2001) 43400 21700 23800 26200 26800 36800 45500 62600 77800 110000
2020-12-23 09:30 8.90 32600 112000 (2016) 21600 (2001) 43400 21700 23800 26200 26800 36800 45500 62600 77800 110000
2020-12-23 08:30 8.91 32700 112000 (2016) 21600 (2001) 43400 21700 23800 26200 26800 36800 45500 62600 77800 110000
2020-12-23 07:30 8.94 32800 112000 (2016) 21600 (2001) 43400 21700 23800 26200 26800 36800 45500 62600 77800 110000
2020-12-23 06:30 8.88 32500 112000 (2016) 21600 (2001) 43400 21700 23800 26200 26800 36800 45500 62600 77800 110000
2020-12-23 05:30 8.89 32600 112000 (2016) 21600 (2001) 43400 21700 23800 26200 26800 36800 45500 62600 77800 110000
2020-12-23 04:30 8.87 32500 112000 (2016) 21600 (2001) 43400 21700 23800 26200 26800 36800 45500 62600 77800 110000
2020-12-23 03:30 8.85 32400 112000 (2016) 21600 (2001) 43400 21700 23800 26200 26800 36800 45500 62600 77800 110000
2020-12-23 02:30 8.84 32400 112000 (2016) 21600 (2001) 43400 21700 23800 26200 26800 36800 45500 62600 77800 110000
2020-12-23 01:30 8.87 32500 112000 (2016) 21600 (2001) 43400 21700 23800 26200 26800 36800 45500 62600 77800 110000
2020-12-23 00:30 8.87 32500 112000 (2016) 21600 (2001) 43400 21700 23800 26200 26800 36800 45500 62600 77800 110000
2020-12-22 23:30 8.87 32500 112000 (2016) 20300 (2001) 43800 20500 23800 26300 26500 37400 45900 68000 77300 110000
2020-12-22 22:30 8.87 32500 112000 (2016) 20300 (2001) 43800 20500 23800 26300 26500 37400 45900 68000 77300 110000
2020-12-22 21:30 8.87 32500 112000 (2016) 20300 (2001) 43800 20500 23800 26300 26500 37400 45900 68000 77300 110000
2020-12-22 20:30 8.88 32500 112000 (2016) 20300 (2001) 43800 20500 23800 26300 26500 37400 45900 68000 77300 110000
2020-12-22 19:30 8.86 32500 112000 (2016) 20300 (2001) 43800 20500 23800 26300 26500 37400 45900 68000 77300 110000
2020-12-22 18:30 8.87 32500 112000 (2016) 20300 (2001) 43800 20500 23800 26300 26500 37400 45900 68000 77300 110000
2020-12-22 17:30 8.86 32500 112000 (2016) 20300 (2001) 43800 20500 23800 26300 26500 37400 45900 68000 77300 110000
2020-12-22 16:30 8.85 32400 112000 (2016) 20300 (2001) 43800 20500 23800 26300 26500 37400 45900 68000 77300 110000
2020-12-22 15:30 8.83 32300 112000 (2016) 20300 (2001) 43800 20500 23800 26300 26500 37400 45900 68000 77300 110000
2020-12-22 14:30 8.84 32400 112000 (2016) 20300 (2001) 43800 20500 23800 26300 26500 37400 45900 68000 77300 110000
2020-12-22 13:30 8.85 32400 112000 (2016) 20300 (2001) 43800 20500 23800 26300 26500 37400 45900 68000 77300 110000
2020-12-22 12:30 8.86 32500 112000 (2016) 20300 (2001) 43800 20500 23800 26300 26500 37400 45900 68000 77300 110000
2020-12-22 11:30 8.90 32600 112000 (2016) 20300 (2001) 43800 20500 23800 26300 26500 37400 45900 68000 77300 110000
2020-12-22 10:30 8.88 32500 112000 (2016) 20300 (2001) 43800 20500 23800 26300 26500 37400 45900 68000 77300 110000
2020-12-22 09:30 8.91 32700 112000 (2016) 20300 (2001) 43800 20500 23800 26300 26500 37400 45900 68000 77300 110000
2020-12-22 08:30 9.01 33100 112000 (2016) 20300 (2001) 43800 20500 23800 26300 26500 37400 45900 68000 77300 110000
2020-12-22 07:30 9.01 33100 112000 (2016) 20300 (2001) 43800 20500 23800 26300 26500 37400 45900 68000 77300 110000
2020-12-22 06:30 9.02 33100 112000 (2016) 20300 (2001) 43800 20500 23800 26300 26500 37400 45900 68000 77300 110000
2020-12-22 05:30 9.03 33100 112000 (2016) 20300 (2001) 43800 20500 23800 26300 26500 37400 45900 68000 77300 110000
2020-12-22 04:30 9.03 33100 112000 (2016) 20300 (2001) 43800 20500 23800 26300 26500 37400 45900 68000 77300 110000
2020-12-22 03:30 9.02 33100 112000 (2016) 20300 (2001) 43800 20500 23800 26300 26500 37400 45900 68000 77300 110000
2020-12-22 02:30 9.02 33100 112000 (2016) 20300 (2001) 43800 20500 23800 26300 26500 37400 45900 68000 77300 110000
2020-12-22 01:30 9.02 33100 112000 (2016) 20300 (2001) 43800 20500 23800 26300 26500 37400 45900 68000 77300 110000
2020-12-22 00:30 9.02 33100 112000 (2016) 20300 (2001) 43800 20500 23800 26300 26500 37400 45900 68000 77300 110000
2020-12-21 23:30 9.03 33100 122000 (2016) 18900 (2001) 44800 19100 23800 26700 26900 38600 47300 71500 79900 120000
2020-12-21 22:30 9.03 33100 122000 (2016) 18900 (2001) 44800 19100 23800 26700 26900 38600 47300 71500 79900 120000
2020-12-21 21:30 9.03 33100 122000 (2016) 18900 (2001) 44800 19100 23800 26700 26900 38600 47300 71500 79900 120000
2020-12-21 20:30 9.04 33200 122000 (2016) 18900 (2001) 44800 19100 23800 26700 26900 38600 47300 71500 79900 120000
2020-12-21 19:30 9.04 33200 122000 (2016) 18900 (2001) 44800 19100 23800 26700 26900 38600 47300 71500 79900 120000
2020-12-21 18:30 9.05 33200 122000 (2016) 18900 (2001) 44800 19100 23800 26700 26900 38600 47300 71500 79900 120000
2020-12-21 17:30 9.06 33300 122000 (2016) 18900 (2001) 44800 19100 23800 26700 26900 38600 47300 71500 79900 120000
2020-12-21 16:30 9.06 33300 122000 (2016) 18900 (2001) 44800 19100 23800 26700 26900 38600 47300 71500 79900 120000
2020-12-21 15:30 9.01 33100 122000 (2016) 18900 (2001) 44800 19100 23800 26700 26900 38600 47300 71500 79900 120000
2020-12-21 14:30 9.02 33100 122000 (2016) 18900 (2001) 44800 19100 23800 26700 26900 38600 47300 71500 79900 120000
2020-12-21 13:30 9.01 33100 122000 (2016) 18900 (2001) 44800 19100 23800 26700 26900 38600 47300 71500 79900 120000
2020-12-21 12:30 9.02 33100 122000 (2016) 18900 (2001) 44800 19100 23800 26700 26900 38600 47300 71500 79900 120000
2020-12-21 11:30 9.02 33100 122000 (2016) 18900 (2001) 44800 19100 23800 26700 26900 38600 47300 71500 79900 120000
2020-12-21 10:30 9.06 33300 122000 (2016) 18900 (2001) 44800 19100 23800 26700 26900 38600 47300 71500 79900 120000
2020-12-21 09:30 9.09 33400 122000 (2016) 18900 (2001) 44800 19100 23800 26700 26900 38600 47300 71500 79900 120000
2020-12-21 08:30 9.07 33300 122000 (2016) 18900 (2001) 44800 19100 23800 26700 26900 38600 47300 71500 79900 120000
2020-12-21 07:30 9.10 33400 122000 (2016) 18900 (2001) 44800 19100 23800 26700 26900 38600 47300 71500 79900 120000
2020-12-21 06:30 9.10 33400 122000 (2016) 18900 (2001) 44800 19100 23800 26700 26900 38600 47300 71500 79900 120000
2020-12-21 05:30 9.10 33400 122000 (2016) 18900 (2001) 44800 19100 23800 26700 26900 38600 47300 71500 79900 120000
2020-12-21 04:30 9.11 33500 122000 (2016) 18900 (2001) 44800 19100 23800 26700 26900 38600 47300 71500 79900 120000
2020-12-21 03:30 9.10 33400 122000 (2016) 18900 (2001) 44800 19100 23800 26700 26900 38600 47300 71500 79900 120000
2020-12-21 02:30 9.09 33400 122000 (2016) 18900 (2001) 44800 19100 23800 26700 26900 38600 47300 71500 79900 120000
2020-12-21 01:30 9.09 33400 122000 (2016) 18900 (2001) 44800 19100 23800 26700 26900 38600 47300 71500 79900 120000
2020-12-21 00:30 9.04 33200 122000 (2016) 18900 (2001) 44800 19100 23800 26700 26900 38600 47300 71500 79900 120000
2020-12-20 23:30 9.11 33500 148000 (2016) 18400 (2001) 45800 18700 23800 25600 26700 39200 49000 64800 81900 145000
2020-12-20 22:30 9.13 33500 148000 (2016) 18400 (2001) 45800 18700 23800 25600 26700 39200 49000 64800 81900 145000
2020-12-20 21:30 9.13 33500 148000 (2016) 18400 (2001) 45800 18700 23800 25600 26700 39200 49000 64800 81900 145000
2020-12-20 20:30 9.13 33500 148000 (2016) 18400 (2001) 45800 18700 23800 25600 26700 39200 49000 64800 81900 145000
2020-12-20 19:30 9.13 33500 148000 (2016) 18400 (2001) 45800 18700 23800 25600 26700 39200 49000 64800 81900 145000
2020-12-20 18:30 9.14 33600 148000 (2016) 18400 (2001) 45800 18700 23800 25600 26700 39200 49000 64800 81900 145000
2020-12-20 17:30 9.15 33600 148000 (2016) 18400 (2001) 45800 18700 23800 25600 26700 39200 49000 64800 81900 145000
2020-12-20 16:30 9.15 33600 148000 (2016) 18400 (2001) 45800 18700 23800 25600 26700 39200 49000 64800 81900 145000
2020-12-20 15:30 9.12 33500 148000 (2016) 18400 (2001) 45800 18700 23800 25600 26700 39200 49000 64800 81900 145000
2020-12-20 14:30 9.18 33700 148000 (2016) 18400 (2001) 45800 18700 23800 25600 26700 39200 49000 64800 81900 145000
2020-12-20 13:30 9.18 33700 148000 (2016) 18400 (2001) 45800 18700 23800 25600 26700 39200 49000 64800 81900 145000
2020-12-20 12:30 9.19 33800 148000 (2016) 18400 (2001) 45800 18700 23800 25600 26700 39200 49000 64800 81900 145000
2020-12-20 11:30 9.15 33600 148000 (2016) 18400 (2001) 45800 18700 23800 25600 26700 39200 49000 64800 81900 145000
2020-12-20 10:30 9.17 33700 148000 (2016) 18400 (2001) 45800 18700 23800 25600 26700 39200 49000 64800 81900 145000
2020-12-20 09:30 9.20 33800 148000 (2016) 18400 (2001) 45800 18700 23800 25600 26700 39200 49000 64800 81900 145000
2020-12-20 08:30 9.21 33900 148000 (2016) 18400 (2001) 45800 18700 23800 25600 26700 39200 49000 64800 81900 145000
2020-12-20 07:30 9.22 33900 148000 (2016) 18400 (2001) 45800 18700 23800 25600 26700 39200 49000 64800 81900 145000
2020-12-20 06:30 9.24 34000 148000 (2016) 18400 (2001) 45800 18700 23800 25600 26700 39200 49000 64800 81900 145000
2020-12-20 05:30 9.24 34000 148000 (2016) 18400 (2001) 45800 18700 23800 25600 26700 39200 49000 64800 81900 145000
2020-12-20 04:30 9.24 34000 148000 (2016) 18400 (2001) 45800 18700 23800 25600 26700 39200 49000 64800 81900 145000
2020-12-20 03:30 9.24 34000 148000 (2016) 18400 (2001) 45800 18700 23800 25600 26700 39200 49000 64800 81900 145000
2020-12-20 02:30 9.26 34100 148000 (2016) 18400 (2001) 45800 18700 23800 25600 26700 39200 49000 64800 81900 145000
2020-12-20 01:30 9.26 34100 148000 (2016) 18400 (2001) 45800 18700 23800 25600 26700 39200 49000 64800 81900 145000
2020-12-20 00:30 9.25 34000 148000 (2016) 18400 (2001) 45800 18700 23800 25600 26700 39200 49000 64800 81900 145000
2020-12-19 23:30 9.26 34100 191000 (2016) 19200 (2001) 47900 19400 23900 24700 25800 37100 50500 62700 82600 186000
2020-12-19 22:30 9.27 34100 191000 (2016) 19200 (2001) 47900 19400 23900 24700 25800 37100 50500 62700 82600 186000
2020-12-19 21:30 9.27 34100 191000 (2016) 19200 (2001) 47900 19400 23900 24700 25800 37100 50500 62700 82600 186000
2020-12-19 20:30 9.28 34100 191000 (2016) 19200 (2001) 47900 19400 23900 24700 25800 37100 50500 62700 82600 186000
2020-12-19 19:30 9.28 34100 191000 (2016) 19200 (2001) 47900 19400 23900 24700 25800 37100 50500 62700 82600 186000
2020-12-19 18:30 9.30 34200 191000 (2016) 19200 (2001) 47900 19400 23900 24700 25800 37100 50500 62700 82600 186000
2020-12-19 17:30 9.30 34200 191000 (2016) 19200 (2001) 47900 19400 23900 24700 25800 37100 50500 62700 82600 186000
2020-12-19 16:30 9.30 34200 191000 (2016) 19200 (2001) 47900 19400 23900 24700 25800 37100 50500 62700 82600 186000
2020-12-19 15:30 9.31 34300 191000 (2016) 19200 (2001) 47900 19400 23900 24700 25800 37100 50500 62700 82600 186000
2020-12-19 14:30 9.30 34200 191000 (2016) 19200 (2001) 47900 19400 23900 24700 25800 37100 50500 62700 82600 186000
2020-12-19 13:30 9.29 34200 191000 (2016) 19200 (2001) 47900 19400 23900 24700 25800 37100 50500 62700 82600 186000
2020-12-19 12:30 9.29 34200 191000 (2016) 19200 (2001) 47900 19400 23900 24700 25800 37100 50500 62700 82600 186000
2020-12-19 11:30 9.30 34200 191000 (2016) 19200 (2001) 47900 19400 23900 24700 25800 37100 50500 62700 82600 186000
2020-12-19 10:30 9.31 34300 191000 (2016) 19200 (2001) 47900 19400 23900 24700 25800 37100 50500 62700 82600 186000
2020-12-19 09:30 9.34 34400 191000 (2016) 19200 (2001) 47900 19400 23900 24700 25800 37100 50500 62700 82600 186000
2020-12-19 08:30 9.34 34400 191000 (2016) 19200 (2001) 47900 19400 23900 24700 25800 37100 50500 62700 82600 186000
2020-12-19 07:30 9.35 34400 191000 (2016) 19200 (2001) 47900 19400 23900 24700 25800 37100 50500 62700 82600 186000
2020-12-19 06:30 9.37 34500 191000 (2016) 19200 (2001) 47900 19400 23900 24700 25800 37100 50500 62700 82600 186000
2020-12-19 05:30 9.37 34500 191000 (2016) 19200 (2001) 47900 19400 23900 24700 25800 37100 50500 62700 82600 186000
2020-12-19 04:30 9.38 34600 191000 (2016) 19200 (2001) 47900 19400 23900 24700 25800 37100 50500 62700 82600 186000
2020-12-19 03:30 9.39 34600 191000 (2016) 19200 (2001) 47900 19400 23900 24700 25800 37100 50500 62700 82600 186000
2020-12-19 02:30 9.40 34600 191000 (2016) 19200 (2001) 47900 19400 23900 24700 25800 37100 50500 62700 82600 186000
2020-12-19 01:30 9.38 34600 191000 (2016) 19200 (2001) 47900 19400 23900 24700 25800 37100 50500 62700 82600 186000
2020-12-19 00:30 9.34 34400 191000 (2016) 19200 (2001) 47900 19400 23900 24700 25800 37100 50500 62700 82600 186000
2020-12-18 23:30 9.37 34500 227000 (2016) 20700 (2001) 50400 20900 23800 24800 26100 35600 51000 69100 86100 220000
2020-12-18 22:30 9.33 34400 227000 (2016) 20700 (2001) 50400 20900 23800 24800 26100 35600 51000 69100 86100 220000
2020-12-18 21:30 9.34 34400 227000 (2016) 20700 (2001) 50400 20900 23800 24800 26100 35600 51000 69100 86100 220000
2020-12-18 20:30 9.36 34500 227000 (2016) 20700 (2001) 50400 20900 23800 24800 26100 35600 51000 69100 86100 220000
2020-12-18 19:30 9.35 34400 227000 (2016) 20700 (2001) 50400 20900 23800 24800 26100 35600 51000 69100 86100 220000
2020-12-18 18:30 9.37 34500 227000 (2016) 20700 (2001) 50400 20900 23800 24800 26100 35600 51000 69100 86100 220000
2020-12-18 17:30 9.34 34400 227000 (2016) 20700 (2001) 50400 20900 23800 24800 26100 35600 51000 69100 86100 220000
2020-12-18 16:30 9.33 34400 227000 (2016) 20700 (2001) 50400 20900 23800 24800 26100 35600 51000 69100 86100 220000
2020-12-18 15:30 9.33 34400 227000 (2016) 20700 (2001) 50400 20900 23800 24800 26100 35600 51000 69100 86100 220000
2020-12-18 14:30 9.32 34300 227000 (2016) 20700 (2001) 50400 20900 23800 24800 26100 35600 51000 69100 86100 220000
2020-12-18 13:30 9.34 34400 227000 (2016) 20700 (2001) 50400 20900 23800 24800 26100 35600 51000 69100 86100 220000
2020-12-18 12:30 9.34 34400 227000 (2016) 20700 (2001) 50400 20900 23800 24800 26100 35600 51000 69100 86100 220000
2020-12-18 11:30 9.31 34300 227000 (2016) 20700 (2001) 50400 20900 23800 24800 26100 35600 51000 69100 86100 220000
2020-12-18 10:30 9.32 34300 227000 (2016) 20700 (2001) 50400 20900 23800 24800 26100 35600 51000 69100 86100 220000
2020-12-18 09:30 9.38 34600 227000 (2016) 20700 (2001) 50400 20900 23800 24800 26100 35600 51000 69100 86100 220000
2020-12-18 08:30 9.42 34700 227000 (2016) 20700 (2001) 50400 20900 23800 24800 26100 35600 51000 69100 86100 220000
2020-12-18 07:30 9.40 34600 227000 (2016) 20700 (2001) 50400 20900 23800 24800 26100 35600 51000 69100 86100 220000
2020-12-18 06:30 9.43 34800 227000 (2016) 20700 (2001) 50400 20900 23800 24800 26100 35600 51000 69100 86100 220000
2020-12-18 05:30 9.43 34800 227000 (2016) 20700 (2001) 50400 20900 23800 24800 26100 35600 51000 69100 86100 220000
2020-12-18 04:30 9.43 34800 227000 (2016) 20700 (2001) 50400 20900 23800 24800 26100 35600 51000 69100 86100 220000
2020-12-18 03:30 9.42 34700 227000 (2016) 20700 (2001) 50400 20900 23800 24800 26100 35600 51000 69100 86100 220000
2020-12-18 02:30 9.43 34800 227000 (2016) 20700 (2001) 50400 20900 23800 24800 26100 35600 51000 69100 86100 220000
2020-12-18 01:30 9.42 34700 227000 (2016) 20700 (2001) 50400 20900 23800 24800 26100 35600 51000 69100 86100 220000
2020-12-18 00:30 9.42 34700 227000 (2016) 20700 (2001) 50400 20900 23800 24800 26100 35600 51000 69100 86100 220000
2020-12-17 23:30 9.41 34700 233000 (2016) 21900 (2001) 51300 22000 23500 25200 26400 35500 50900 71200 90900 226000
2020-12-17 22:30 9.40 34600 233000 (2016) 21900 (2001) 51300 22000 23500 25200 26400 35500 50900 71200 90900 226000
2020-12-17 21:30 9.40 34600 233000 (2016) 21900 (2001) 51300 22000 23500 25200 26400 35500 50900 71200 90900 226000
2020-12-17 20:30 9.39 34600 233000 (2016) 21900 (2001) 51300 22000 23500 25200 26400 35500 50900 71200 90900 226000
2020-12-17 19:30 9.39 34600 233000 (2016) 21900 (2001) 51300 22000 23500 25200 26400 35500 50900 71200 90900 226000
2020-12-17 18:30 9.39 34600 233000 (2016) 21900 (2001) 51300 22000 23500 25200 26400 35500 50900 71200 90900 226000
2020-12-17 17:30 9.37 34500 233000 (2016) 21900 (2001) 51300 22000 23500 25200 26400 35500 50900 71200 90900 226000
2020-12-17 16:30 9.37 34500 233000 (2016) 21900 (2001) 51300 22000 23500 25200 26400 35500 50900 71200 90900 226000
2020-12-17 15:30 9.37 34500 233000 (2016) 21900 (2001) 51300 22000 23500 25200 26400 35500 50900 71200 90900 226000
2020-12-17 14:30 9.34 34400 233000 (2016) 21900 (2001) 51300 22000 23500 25200 26400 35500 50900 71200 90900 226000
2020-12-17 13:30 9.33 34400 233000 (2016) 21900 (2001) 51300 22000 23500 25200 26400 35500 50900 71200 90900 226000
2020-12-17 12:30 9.29 34200 233000 (2016) 21900 (2001) 51300 22000 23500 25200 26400 35500 50900 71200 90900 226000
2020-12-17 11:30 9.34 34400 233000 (2016) 21900 (2001) 51300 22000 23500 25200 26400 35500 50900 71200 90900 226000
2020-12-17 10:30 9.35 34400 233000 (2016) 21900 (2001) 51300 22000 23500 25200 26400 35500 50900 71200 90900 226000
2020-12-17 09:30 9.37 34500 233000 (2016) 21900 (2001) 51300 22000 23500 25200 26400 35500 50900 71200 90900 226000
2020-12-17 08:30 9.35 34400 233000 (2016) 21900 (2001) 51300 22000 23500 25200 26400 35500 50900 71200 90900 226000
2020-12-17 07:30 9.40 34600 233000 (2016) 21900 (2001) 51300 22000 23500 25200 26400 35500 50900 71200 90900 226000
2020-12-17 06:30 9.38 34600 233000 (2016) 21900 (2001) 51300 22000 23500 25200 26400 35500 50900 71200 90900 226000
2020-12-17 05:30 9.40 34600 233000 (2016) 21900 (2001) 51300 22000 23500 25200 26400 35500 50900 71200 90900 226000
2020-12-17 04:30 9.40 34600 233000 (2016) 21900 (2001) 51300 22000 23500 25200 26400 35500 50900 71200 90900 226000
2020-12-17 03:30 9.40 34600 233000 (2016) 21900 (2001) 51300 22000 23500 25200 26400 35500 50900 71200 90900 226000
2020-12-17 02:30 9.40 34600 233000 (2016) 21900 (2001) 51300 22000 23500 25200 26400 35500 50900 71200 90900 226000
2020-12-17 01:30 9.41 34700 233000 (2016) 21900 (2001) 51300 22000 23500 25200 26400 35500 50900 71200 90900 226000
2020-12-17 00:30 9.41 34700 233000 (2016) 21900 (2001) 51300 22000 23500 25200 26400 35500 50900 71200 90900 226000
2020-12-16 23:30 9.41 34700 224000 (2016) 23200 (2007) 51600 23200 23500 25600 26000 37000 55000 69600 96800 218000
2020-12-16 22:30 9.41 34700 224000 (2016) 23200 (2007) 51600 23200 23500 25600 26000 37000 55000 69600 96800 218000
2020-12-16 21:30 9.42 34700 224000 (2016) 23200 (2007) 51600 23200 23500 25600 26000 37000 55000 69600 96800 218000
2020-12-16 20:30 9.42 34700 224000 (2016) 23200 (2007) 51600 23200 23500 25600 26000 37000 55000 69600 96800 218000
2020-12-16 19:30 9.41 34700 224000 (2016) 23200 (2007) 51600 23200 23500 25600 26000 37000 55000 69600 96800 218000
2020-12-16 18:30 9.41 34700 224000 (2016) 23200 (2007) 51600 23200 23500 25600 26000 37000 55000 69600 96800 218000
2020-12-16 17:30 9.41 34700 224000 (2016) 23200 (2007) 51600 23200 23500 25600 26000 37000 55000 69600 96800 218000
2020-12-16 16:30 9.42 34700 224000 (2016) 23200 (2007) 51600 23200 23500 25600 26000 37000 55000 69600 96800 218000
2020-12-16 15:30 9.41 34700 224000 (2016) 23200 (2007) 51600 23200 23500 25600 26000 37000 55000 69600 96800 218000
2020-12-16 14:30 9.42 34700 224000 (2016) 23200 (2007) 51600 23200 23500 25600 26000 37000 55000 69600 96800 218000
2020-12-16 13:30 9.43 34800 224000 (2016) 23200 (2007) 51600 23200 23500 25600 26000 37000 55000 69600 96800 218000
2020-12-16 12:30 9.44 34800 224000 (2016) 23200 (2007) 51600 23200 23500 25600 26000 37000 55000 69600 96800 218000
2020-12-16 11:30 9.43 34800 224000 (2016) 23200 (2007) 51600 23200 23500 25600 26000 37000 55000 69600 96800 218000
2020-12-16 10:30 9.43 34800 224000 (2016) 23200 (2007) 51600 23200 23500 25600 26000 37000 55000 69600 96800 218000
2020-12-16 09:30 9.43 34800 224000 (2016) 23200 (2007) 51600 23200 23500 25600 26000 37000 55000 69600 96800 218000
2020-12-16 08:30 9.43 34800 224000 (2016) 23200 (2007) 51600 23200 23500 25600 26000 37000 55000 69600 96800 218000
2020-12-16 07:30 9.44 34800 224000 (2016) 23200 (2007) 51600 23200 23500 25600 26000 37000 55000 69600 96800 218000
2020-12-16 06:30 9.44 34800 224000 (2016) 23200 (2007) 51600 23200 23500 25600 26000 37000 55000 69600 96800 218000
2020-12-16 05:30 9.46 34900 224000 (2016) 23200 (2007) 51600 23200 23500 25600 26000 37000 55000 69600 96800 218000
2020-12-16 04:30 9.47 34900 224000 (2016) 23200 (2007) 51600 23200 23500 25600 26000 37000 55000 69600 96800 218000
2020-12-16 03:30 9.46 34900 224000 (2016) 23200 (2007) 51600 23200 23500 25600 26000 37000 55000 69600 96800 218000
2020-12-16 02:30 9.45 34900 224000 (2016) 23200 (2007) 51600 23200 23500 25600 26000 37000 55000 69600 96800 218000
2020-12-16 01:30 9.46 34900 224000 (2016) 23200 (2007) 51600 23200 23500 25600 26000 37000 55000 69600 96800 218000
2020-12-16 00:30 9.46 34900 224000 (2016) 23200 (2007) 51600 23200 23500 25600 26000 37000 55000 69600 96800 218000
2020-12-15 23:30 9.47 34900 183000 (2016) 23200 (2007) 50500 23200 23600 25600 26100 37100 63000 66000 104000 179000
2020-12-15 22:30 9.47 34900 183000 (2016) 23200 (2007) 50500 23200 23600 25600 26100 37100 63000 66000 104000 179000
2020-12-15 21:30 9.48 35000 183000 (2016) 23200 (2007) 50500 23200 23600 25600 26100 37100 63000 66000 104000 179000
2020-12-15 20:30 9.49 35000 183000 (2016) 23200 (2007) 50500 23200 23600 25600 26100 37100 63000 66000 104000 179000
2020-12-15 19:30 9.49 35000 183000 (2016) 23200 (2007) 50500 23200 23600 25600 26100 37100 63000 66000 104000 179000
2020-12-15 18:30 9.49 35000 183000 (2016) 23200 (2007) 50500 23200 23600 25600 26100 37100 63000 66000 104000 179000
2020-12-15 17:30 9.50 35100 183000 (2016) 23200 (2007) 50500 23200 23600 25600 26100 37100 63000 66000 104000 179000
2020-12-15 16:30 9.49 35000 183000 (2016) 23200 (2007) 50500 23200 23600 25600 26100 37100 63000 66000 104000 179000
2020-12-15 15:30 9.50 35100 183000 (2016) 23200 (2007) 50500 23200 23600 25600 26100 37100 63000 66000 104000 179000
2020-12-15 14:30 9.52 35200 183000 (2016) 23200 (2007) 50500 23200 23600 25600 26100 37100 63000 66000 104000 179000
2020-12-15 13:30 9.52 35200 183000 (2016) 23200 (2007) 50500 23200 23600 25600 26100 37100 63000 66000 104000 179000
2020-12-15 12:30 9.55 35300 183000 (2016) 23200 (2007) 50500 23200 23600 25600 26100 37100 63000 66000 104000 179000
2020-12-15 11:30 9.55 35300 183000 (2016) 23200 (2007) 50500 23200 23600 25600 26100 37100 63000 66000 104000 179000
2020-12-15 10:30 9.55 35300 183000 (2016) 23200 (2007) 50500 23200 23600 25600 26100 37100 63000 66000 104000 179000
2020-12-15 09:30 9.56 35300 183000 (2016) 23200 (2007) 50500 23200 23600 25600 26100 37100 63000 66000 104000 179000
2020-12-15 08:30 9.57 35400 183000 (2016) 23200 (2007) 50500 23200 23600 25600 26100 37100 63000 66000 104000 179000
2020-12-15 07:30 9.57 35400 183000 (2016) 23200 (2007) 50500 23200 23600 25600 26100 37100 63000 66000 104000 179000
2020-12-15 06:30 9.58 35400 183000 (2016) 23200 (2007) 50500 23200 23600 25600 26100 37100 63000 66000 104000 179000
2020-12-15 05:30 9.58 35400 183000 (2016) 23200 (2007) 50500 23200 23600 25600 26100 37100 63000 66000 104000 179000
2020-12-15 04:30 9.59 35400 183000 (2016) 23200 (2007) 50500 23200 23600 25600 26100 37100 63000 66000 104000 179000
2020-12-15 03:30 9.59 35400 183000 (2016) 23200 (2007) 50500 23200 23600 25600 26100 37100 63000 66000 104000 179000
2020-12-15 02:30 9.61 35500 183000 (2016) 23200 (2007) 50500 23200 23600 25600 26100 37100 63000 66000 104000 179000
2020-12-15 01:30 9.61 35500 183000 (2016) 23200 (2007) 50500 23200 23600 25600 26100 37100 63000 66000 104000 179000
2020-12-15 00:30 9.62 35600 183000 (2016) 23200 (2007) 50500 23200 23600 25600 26100 37100 63000 66000 104000 179000
2020-12-14 23:30 9.62 35600 112000 (2020) 23000 (2006) 47900 23000 23300 25500 27100 37000 63300 71000 108000 112000
2020-12-14 22:30 9.63 35600 112000 (2020) 23000 (2006) 47900 23000 23300 25500 27100 37000 63300 71000 108000 112000
2020-12-14 21:30 9.63 35600 112000 (2020) 23000 (2006) 47900 23000 23300 25500 27100 37000 63300 71000 108000 112000
2020-12-14 20:30 9.64 35700 112000 (2020) 23000 (2006) 47900 23000 23300 25500 27100 37000 63300 71000 108000 112000
2020-12-14 19:30 9.63 35600 112000 (2020) 23000 (2006) 47900 23000 23300 25500 27100 37000 63300 71000 108000 112000
2020-12-14 18:30 9.64 35700 112000 (2020) 23000 (2006) 47900 23000 23300 25500 27100 37000 63300 71000 108000 112000
2020-12-14 17:30 9.64 35700 112000 (2020) 23000 (2006) 47900 23000 23300 25500 27100 37000 63300 71000 108000 112000
2020-12-14 16:30 9.64 35700 112000 (2020) 23000 (2006) 47900 23000 23300 25500 27100 37000 63300 71000 108000 112000
2020-12-14 15:30 9.63 35600 112000 (2020) 23000 (2006) 47900 23000 23300 25500 27100 37000 63300 71000 108000 112000
2020-12-14 14:30 9.64 35700 112000 (2020) 23000 (2006) 47900 23000 23300 25500 27100 37000 63300 71000 108000 112000
2020-12-14 13:30 9.65 35700 112000 (2020) 23000 (2006) 47900 23000 23300 25500 27100 37000 63300 71000 108000 112000
2020-12-14 12:30 9.66 35700 112000 (2020) 23000 (2006) 47900 23000 23300 25500 27100 37000 63300 71000 108000 112000
2020-12-14 11:30 9.67 35800 112000 (2020) 23000 (2006) 47900 23000 23300 25500 27100 37000 63300 71000 108000 112000
2020-12-14 10:30 9.68 35800 112000 (2020) 23000 (2006) 47900 23000 23300 25500 27100 37000 63300 71000 108000 112000
2020-12-14 09:30 9.70 35900 112000 (2020) 23000 (2006) 47900 23000 23300 25500 27100 37000 63300 71000 108000 112000
2020-12-14 08:30 9.71 36000 112000 (2020) 23000 (2006) 47900 23000 23300 25500 27100 37000 63300 71000 108000 112000
2020-12-14 07:30 9.72 36000 112000 (2020) 23000 (2006) 47900 23000 23300 25500 27100 37000 63300 71000 108000 112000
2020-12-14 06:30 9.73 36000 112000 (2020) 23000 (2006) 47900 23000 23300 25500 27100 37000 63300 71000 108000 112000
2020-12-14 05:30 9.73 36000 112000 (2020) 23000 (2006) 47900 23000 23300 25500 27100 37000 63300 71000 108000 112000
2020-12-14 04:30 9.72 36000 112000 (2020) 23000 (2006) 47900 23000 23300 25500 27100 37000 63300 71000 108000 112000
2020-12-14 03:30 9.73 36000 112000 (2020) 23000 (2006) 47900 23000 23300 25500 27100 37000 63300 71000 108000 112000
2020-12-14 02:30 9.73 36000 112000 (2020) 23000 (2006) 47900 23000 23300 25500 27100 37000 63300 71000 108000 112000
2020-12-14 01:30 9.73 36000 112000 (2020) 23000 (2006) 47900 23000 23300 25500 27100 37000 63300 71000 108000 112000
2020-12-14 00:30 9.74 36100 112000 (2020) 23000 (2006) 47900 23000 23300 25500 27100 37000 63300 71000 108000 112000
2020-12-13 23:30 9.76 36200 115000 (2020) 21800 (2006) 45600 21800 22900 25300 27200 37400 60100 62300 94600 114000
2020-12-13 22:30 9.72 36000 115000 (2020) 21800 (2006) 45600 21800 22900 25300 27200 37400 60100 62300 94600 114000
2020-12-13 21:30 9.73 36000 115000 (2020) 21800 (2006) 45600 21800 22900 25300 27200 37400 60100 62300 94600 114000
2020-12-13 20:30 9.72 36000 115000 (2020) 21800 (2006) 45600 21800 22900 25300 27200 37400 60100 62300 94600 114000
2020-12-13 19:30 9.74 36100 115000 (2020) 21800 (2006) 45600 21800 22900 25300 27200 37400 60100 62300 94600 114000
2020-12-13 18:30 9.80 36300 115000 (2020) 21800 (2006) 45600 21800 22900 25300 27200 37400 60100 62300 94600 114000
2020-12-13 17:30 9.82 36400 115000 (2020) 21800 (2006) 45600 21800 22900 25300 27200 37400 60100 62300 94600 114000
2020-12-13 16:30 9.80 36300 115000 (2020) 21800 (2006) 45600 21800 22900 25300 27200 37400 60100 62300 94600 114000
2020-12-13 15:30 9.83 36500 115000 (2020) 21800 (2006) 45600 21800 22900 25300 27200 37400 60100 62300 94600 114000
2020-12-13 14:30 9.83 36500 115000 (2020) 21800 (2006) 45600 21800 22900 25300 27200 37400 60100 62300 94600 114000
2020-12-13 13:30 9.83 36500 115000 (2020) 21800 (2006) 45600 21800 22900 25300 27200 37400 60100 62300 94600 114000
2020-12-13 12:30 9.85 36600 115000 (2020) 21800 (2006) 45600 21800 22900 25300 27200 37400 60100 62300 94600 114000
2020-12-13 11:30 9.84 36500 115000 (2020) 21800 (2006) 45600 21800 22900 25300 27200 37400 60100 62300 94600 114000
2020-12-13 10:30 9.84 36500 115000 (2020) 21800 (2006) 45600 21800 22900 25300 27200 37400 60100 62300 94600 114000
2020-12-13 09:30 9.85 36600 115000 (2020) 21800 (2006) 45600 21800 22900 25300 27200 37400 60100 62300 94600 114000
2020-12-13 08:30 9.86 36600 115000 (2020) 21800 (2006) 45600 21800 22900 25300 27200 37400 60100 62300 94600 114000
2020-12-13 07:30 9.87 36700 115000 (2020) 21800 (2006) 45600 21800 22900 25300 27200 37400 60100 62300 94600 114000
2020-12-13 06:30 9.87 36700 115000 (2020) 21800 (2006) 45600 21800 22900 25300 27200 37400 60100 62300 94600 114000
2020-12-13 05:30 9.89 36700 115000 (2020) 21800 (2006) 45600 21800 22900 25300 27200 37400 60100 62300 94600 114000
2020-12-13 04:30 9.89 36700 115000 (2020) 21800 (2006) 45600 21800 22900 25300 27200 37400 60100 62300 94600 114000
2020-12-13 03:30 9.89 36700 115000 (2020) 21800 (2006) 45600 21800 22900 25300 27200 37400 60100 62300 94600 114000
2020-12-13 02:30 9.90 36800 115000 (2020) 21800 (2006) 45600 21800 22900 25300 27200 37400 60100 62300 94600 114000
2020-12-13 01:30 9.91 36800 115000 (2020) 21800 (2006) 45600 21800 22900 25300 27200 37400 60100 62300 94600 114000
2020-12-13 00:30 9.92 36900 115000 (2020) 21800 (2006) 45600 21800 22900 25300 27200 37400 60100 62300 94600 114000
2020-12-12 23:30 9.92 36900 118000 (2020) 21200 (2006) 46000 21300 22800 26100 28100 38700 56500 62800 96600 117000
2020-12-12 22:30 9.91 36800 118000 (2020) 21200 (2006) 46000 21300 22800 26100 28100 38700 56500 62800 96600 117000
2020-12-12 21:30 9.92 36900 118000 (2020) 21200 (2006) 46000 21300 22800 26100 28100 38700 56500 62800 96600 117000
2020-12-12 20:30 9.92 36900 118000 (2020) 21200 (2006) 46000 21300 22800 26100 28100 38700 56500 62800 96600 117000
2020-12-12 19:30 9.93 36900 118000 (2020) 21200 (2006) 46000 21300 22800 26100 28100 38700 56500 62800 96600 117000
2020-12-12 18:30 9.94 37000 118000 (2020) 21200 (2006) 46000 21300 22800 26100 28100 38700 56500 62800 96600 117000
2020-12-12 17:30 9.94 37000 118000 (2020) 21200 (2006) 46000 21300 22800 26100 28100 38700 56500 62800 96600 117000
2020-12-12 16:30 9.94 37000 118000 (2020) 21200 (2006) 46000 21300 22800 26100 28100 38700 56500 62800 96600 117000
2020-12-12 15:30 9.92 36900 118000 (2020) 21200 (2006) 46000 21300 22800 26100 28100 38700 56500 62800 96600 117000
2020-12-12 14:30 9.97 37100 118000 (2020) 21200 (2006) 46000 21300 22800 26100 28100 38700 56500 62800 96600 117000
2020-12-12 13:30 9.95 37000 118000 (2020) 21200 (2006) 46000 21300 22800 26100 28100 38700 56500 62800 96600 117000
2020-12-12 12:30 9.95 37000 118000 (2020) 21200 (2006) 46000 21300 22800 26100 28100 38700 56500 62800 96600 117000
2020-12-12 11:30 9.95 37000 118000 (2020) 21200 (2006) 46000 21300 22800 26100 28100 38700 56500 62800 96600 117000
2020-12-12 10:30 9.94 37000 118000 (2020) 21200 (2006) 46000 21300 22800 26100 28100 38700 56500 62800 96600 117000
2020-12-12 09:30 9.98 37100 118000 (2020) 21200 (2006) 46000 21300 22800 26100 28100 38700 56500 62800 96600 117000
2020-12-12 08:30 9.98 37100 118000 (2020) 21200 (2006) 46000 21300 22800 26100 28100 38700 56500 62800 96600 117000
2020-12-12 07:30 9.99 37200 118000 (2020) 21200 (2006) 46000 21300 22800 26100 28100 38700 56500 62800 96600 117000
2020-12-12 06:30 9.96 37000 118000 (2020) 21200 (2006) 46000 21300 22800 26100 28100 38700 56500 62800 96600 117000
2020-12-12 05:30 9.96 37000 118000 (2020) 21200 (2006) 46000 21300 22800 26100 28100 38700 56500 62800 96600 117000
2020-12-12 04:30 9.96 37000 118000 (2020) 21200 (2006) 46000 21300 22800 26100 28100 38700 56500 62800 96600 117000
2020-12-12 03:30 9.96 37000 118000 (2020) 21200 (2006) 46000 21300 22800 26100 28100 38700 56500 62800 96600 117000
2020-12-12 02:30 9.98 37100 118000 (2020) 21200 (2006) 46000 21300 22800 26100 28100 38700 56500 62800 96600 117000
2020-12-12 01:30 9.97 37100 118000 (2020) 21200 (2006) 46000 21300 22800 26100 28100 38700 56500 62800 96600 117000
2020-12-12 00:30 1 37200 118000 (2020) 21200 (2006) 46000 21300 22800 26100 28100 38700 56500 62800 96600 117000
2020-12-11 23:30 9.99 37200 123000 (2020) 21100 (2006) 47200 21200 22900 27100 29700 41200 58100 63400 99300 122000
2020-12-11 22:30 1 37200 123000 (2020) 21100 (2006) 47200 21200 22900 27100 29700 41200 58100 63400 99300 122000
2020-12-11 21:30 1 37200 123000 (2020) 21100 (2006) 47200 21200 22900 27100 29700 41200 58100 63400 99300 122000
2020-12-11 20:30 9.99 37200 123000 (2020) 21100 (2006) 47200 21200 22900 27100 29700 41200 58100 63400 99300 122000
2020-12-11 19:30 9.99 37200 123000 (2020) 21100 (2006) 47200 21200 22900 27100 29700 41200 58100 63400 99300 122000
2020-12-11 18:30 9.98 37100 123000 (2020) 21100 (2006) 47200 21200 22900 27100 29700 41200 58100 63400 99300 122000
2020-12-11 17:30 9.99 37200 123000 (2020) 21100 (2006) 47200 21200 22900 27100 29700 41200 58100 63400 99300 122000
2020-12-11 16:30 9.98 37100 123000 (2020) 21100 (2006) 47200 21200 22900 27100 29700 41200 58100 63400 99300 122000
2020-12-11 15:30 9.97 37100 123000 (2020) 21100 (2006) 47200 21200 22900 27100 29700 41200 58100 63400 99300 122000
2020-12-11 14:30 9.97 37100 123000 (2020) 21100 (2006) 47200 21200 22900 27100 29700 41200 58100 63400 99300 122000
2020-12-11 13:30 9.97 37100 123000 (2020) 21100 (2006) 47200 21200 22900 27100 29700 41200 58100 63400 99300 122000
2020-12-11 12:30 9.98 37100 123000 (2020) 21100 (2006) 47200 21200 22900 27100 29700 41200 58100 63400 99300 122000
2020-12-11 11:30 9.98 37100 123000 (2020) 21100 (2006) 47200 21200 22900 27100 29700 41200 58100 63400 99300 122000
2020-12-11 10:30 9.98 37100 123000 (2020) 21100 (2006) 47200 21200 22900 27100 29700 41200 58100 63400 99300 122000
2020-12-11 09:30 9.98 37100 123000 (2020) 21100 (2006) 47200 21200 22900 27100 29700 41200 58100 63400 99300 122000
2020-12-11 08:30 9.99 37200 123000 (2020) 21100 (2006) 47200 21200 22900 27100 29700 41200 58100 63400 99300 122000
2020-12-11 07:30 9.98 37100 123000 (2020) 21100 (2006) 47200 21200 22900 27100 29700 41200 58100 63400 99300 122000
2020-12-11 06:30 9.98 37100 123000 (2020) 21100 (2006) 47200 21200 22900 27100 29700 41200 58100 63400 99300 122000
2020-12-11 05:30 9.97 37100 123000 (2020) 21100 (2006) 47200 21200 22900 27100 29700 41200 58100 63400 99300 122000
2020-12-11 04:30 9.97 37100 123000 (2020) 21100 (2006) 47200 21200 22900 27100 29700 41200 58100 63400 99300 122000
2020-12-11 03:30 9.97 37100 123000 (2020) 21100 (2006) 47200 21200 22900 27100 29700 41200 58100 63400 99300 122000
2020-12-11 02:30 9.97 37100 123000 (2020) 21100 (2006) 47200 21200 22900 27100 29700 41200 58100 63400 99300 122000
2020-12-11 01:30 9.97 37100 123000 (2020) 21100 (2006) 47200 21200 22900 27100 29700 41200 58100 63400 99300 122000
2020-12-11 00:30 9.98 37100 123000 (2020) 21100 (2006) 47200 21200 22900 27100 29700 41200 58100 63400 99300 122000
2020-12-10 23:30 9.98 37100 126000 (2020) 21300 (2006) 47300 21400 22700 27600 29900 38600 58200 63700 102000 125000
2020-12-10 22:30 9.99 37200 126000 (2020) 21300 (2006) 47300 21400 22700 27600 29900 38600 58200 63700 102000 125000
2020-12-10 21:30 9.98 37100 126000 (2020) 21300 (2006) 47300 21400 22700 27600 29900 38600 58200 63700 102000 125000
2020-12-10 20:30 9.97 37100 126000 (2020) 21300 (2006) 47300 21400 22700 27600 29900 38600 58200 63700 102000 125000
2020-12-10 19:30 9.97 37100 126000 (2020) 21300 (2006) 47300 21400 22700 27600 29900 38600 58200 63700 102000 125000
2020-12-10 18:30 9.97 37100 126000 (2020) 21300 (2006) 47300 21400 22700 27600 29900 38600 58200 63700 102000 125000
2020-12-10 17:30 9.96 37000 126000 (2020) 21300 (2006) 47300 21400 22700 27600 29900 38600 58200 63700 102000 125000
2020-12-10 16:30 9.96 37000 126000 (2020) 21300 (2006) 47300 21400 22700 27600 29900 38600 58200 63700 102000 125000
2020-12-10 15:30 9.95 37000 126000 (2020) 21300 (2006) 47300 21400 22700 27600 29900 38600 58200 63700 102000 125000
2020-12-10 14:30 9.95 37000 126000 (2020) 21300 (2006) 47300 21400 22700 27600 29900 38600 58200 63700 102000 125000
2020-12-10 13:30 9.96 37000 126000 (2020) 21300 (2006) 47300 21400 22700 27600 29900 38600 58200 63700 102000 125000
2020-12-10 12:30 9.96 37000 126000 (2020) 21300 (2006) 47300 21400 22700 27600 29900 38600 58200 63700 102000 125000
2020-12-10 11:30 9.98 37100 126000 (2020) 21300 (2006) 47300 21400 22700 27600 29900 38600 58200 63700 102000 125000
2020-12-10 10:30 1 37200 126000 (2020) 21300 (2006) 47300 21400 22700 27600 29900 38600 58200 63700 102000 125000
2020-12-10 09:30 10.01 37300 126000 (2020) 21300 (2006) 47300 21400 22700 27600 29900 38600 58200 63700 102000 125000
2020-12-10 08:30 10.02 37300 126000 (2020) 21300 (2006) 47300 21400 22700 27600 29900 38600 58200 63700 102000 125000
2020-12-10 07:30 10.03 37400 126000 (2020) 21300 (2006) 47300 21400 22700 27600 29900 38600 58200 63700 102000 125000
2020-12-10 06:30 10.04 37400 126000 (2020) 21300 (2006) 47300 21400 22700 27600 29900 38600 58200 63700 102000 125000
2020-12-10 05:30 10.05 37400 126000 (2020) 21300 (2006) 47300 21400 22700 27600 29900 38600 58200 63700 102000 125000
2020-12-10 04:30 10.05 37400 126000 (2020) 21300 (2006) 47300 21400 22700 27600 29900 38600 58200 63700 102000 125000
2020-12-10 03:30 10.06 37500 126000 (2020) 21300 (2006) 47300 21400 22700 27600 29900 38600 58200 63700 102000 125000
2020-12-10 02:30 10.05 37400 126000 (2020) 21300 (2006) 47300 21400 22700 27600 29900 38600 58200 63700 102000 125000
2020-12-10 01:30 10.05 37400 126000 (2020) 21300 (2006) 47300 21400 22700 27600 29900 38600 58200 63700 102000 125000
2020-12-10 00:30 10.05 37400 126000 (2020) 21300 (2006) 47300 21400 22700 27600 29900 38600 58200 63700 102000 125000
2020-12-09 23:30 10.04 37400 131000 (2020) 21600 (2006) 47500 21600 22500 25000 28800 38400 59100 64700 105000 130000
2020-12-09 22:30 10.05 37400 131000 (2020) 21600 (2006) 47500 21600 22500 25000 28800 38400 59100 64700 105000 130000
2020-12-09 21:30 10.05 37400 131000 (2020) 21600 (2006) 47500 21600 22500 25000 28800 38400 59100 64700 105000 130000
2020-12-09 20:30 10.05 37400 131000 (2020) 21600 (2006) 47500 21600 22500 25000 28800 38400 59100 64700 105000 130000
2020-12-09 19:30 10.04 37400 131000 (2020) 21600 (2006) 47500 21600 22500 25000 28800 38400 59100 64700 105000 130000
2020-12-09 18:30 10.04 37400 131000 (2020) 21600 (2006) 47500 21600 22500 25000 28800 38400 59100 64700 105000 130000
2020-12-09 17:30 10.03 37400 131000 (2020) 21600 (2006) 47500 21600 22500 25000 28800 38400 59100 64700 105000 130000
2020-12-09 16:30 10.03 37400 131000 (2020) 21600 (2006) 47500 21600 22500 25000 28800 38400 59100 64700 105000 130000
2020-12-09 15:30 10.03 37400 131000 (2020) 21600 (2006) 47500 21600 22500 25000 28800 38400 59100 64700 105000 130000
2020-12-09 14:30 10.02 37300 131000 (2020) 21600 (2006) 47500 21600 22500 25000 28800 38400 59100 64700 105000 130000
2020-12-09 13:30 10.05 37400 131000 (2020) 21600 (2006) 47500 21600 22500 25000 28800 38400 59100 64700 105000 130000
2020-12-09 12:30 10.05 37400 131000 (2020) 21600 (2006) 47500 21600 22500 25000 28800 38400 59100 64700 105000 130000
2020-12-09 11:30 10.06 37500 131000 (2020) 21600 (2006) 47500 21600 22500 25000 28800 38400 59100 64700 105000 130000
2020-12-09 10:30 10.07 37500 131000 (2020) 21600 (2006) 47500 21600 22500 25000 28800 38400 59100 64700 105000 130000
2020-12-09 09:30 10.08 37600 131000 (2020) 21600 (2006) 47500 21600 22500 25000 28800 38400 59100 64700 105000 130000
2020-12-09 08:30 10.10 37700 131000 (2020) 21600 (2006) 47500 21600 22500 25000 28800 38400 59100 64700 105000 130000
2020-12-09 07:30 10.11 37700 131000 (2020) 21600 (2006) 47500 21600 22500 25000 28800 38400 59100 64700 105000 130000
2020-12-09 06:30 10.10 37700 131000 (2020) 21600 (2006) 47500 21600 22500 25000 28800 38400 59100 64700 105000 130000
2020-12-09 05:30 10.10 37700 131000 (2020) 21600 (2006) 47500 21600 22500 25000 28800 38400 59100 64700 105000 130000
2020-12-09 04:30 10.10 37700 131000 (2020) 21600 (2006) 47500 21600 22500 25000 28800 38400 59100 64700 105000 130000
2020-12-09 03:30 10.10 37700 131000 (2020) 21600 (2006) 47500 21600 22500 25000 28800 38400 59100 64700 105000 130000
2020-12-09 02:30 10.12 37800 131000 (2020) 21600 (2006) 47500 21600 22500 25000 28800 38400 59100 64700 105000 130000
2020-12-09 01:30 10.12 37800 131000 (2020) 21600 (2006) 47500 21600 22500 25000 28800 38400 59100 64700 105000 130000
2020-12-09 00:30 10.11 37700 131000 (2020) 21600 (2006) 47500 21600 22500 25000 28800 38400 59100 64700 105000 130000
2020-12-08 23:30 10.11 37700 134000 (2020) 21800 (2006) 48700 21800 22400 25100 29700 40000 61600 66200 110000 133000
2020-12-08 22:30 10.10 37700 134000 (2020) 21800 (2006) 48700 21800 22400 25100 29700 40000 61600 66200 110000 133000
2020-12-08 21:30 10.10 37700 134000 (2020) 21800 (2006) 48700 21800 22400 25100 29700 40000 61600 66200 110000 133000
2020-12-08 20:30 10.11 37700 134000 (2020) 21800 (2006) 48700 21800 22400 25100 29700 40000 61600 66200 110000 133000
2020-12-08 19:30 10.12 37800 134000 (2020) 21800 (2006) 48700 21800 22400 25100 29700 40000 61600 66200 110000 133000
2020-12-08 18:30 10.12 37800 134000 (2020) 21800 (2006) 48700 21800 22400 25100 29700 40000 61600 66200 110000 133000
2020-12-08 17:30 10.13 37800 134000 (2020) 21800 (2006) 48700 21800 22400 25100 29700 40000 61600 66200 110000 133000
2020-12-08 16:30 10.12 37800 134000 (2020) 21800 (2006) 48700 21800 22400 25100 29700 40000 61600 66200 110000 133000
2020-12-08 15:30 10.13 37800 134000 (2020) 21800 (2006) 48700 21800 22400 25100 29700 40000 61600 66200 110000 133000
2020-12-08 14:30 10.13 37800 134000 (2020) 21800 (2006) 48700 21800 22400 25100 29700 40000 61600 66200 110000 133000
2020-12-08 13:30 10.16 37900 134000 (2020) 21800 (2006) 48700 21800 22400 25100 29700 40000 61600 66200 110000 133000
2020-12-08 12:30 10.13 37800 134000 (2020) 21800 (2006) 48700 21800 22400 25100 29700 40000 61600 66200 110000 133000
2020-12-08 11:30 10.15 37900 134000 (2020) 21800 (2006) 48700 21800 22400 25100 29700 40000 61600 66200 110000 133000
2020-12-08 10:30 10.15 37900 134000 (2020) 21800 (2006) 48700 21800 22400 25100 29700 40000 61600 66200 110000 133000
2020-12-08 09:30 10.15 37900 134000 (2020) 21800 (2006) 48700 21800 22400 25100 29700 40000 61600 66200 110000 133000
2020-12-08 08:30 10.16 37900 134000 (2020) 21800 (2006) 48700 21800 22400 25100 29700 40000 61600 66200 110000 133000
2020-12-08 07:30 10.17 38000 134000 (2020) 21800 (2006) 48700 21800 22400 25100 29700 40000 61600 66200 110000 133000
2020-12-08 06:30 10.18 38000 134000 (2020) 21800 (2006) 48700 21800 22400 25100 29700 40000 61600 66200 110000 133000
2020-12-08 05:30 10.18 38000 134000 (2020) 21800 (2006) 48700 21800 22400 25100 29700 40000 61600 66200 110000 133000
2020-12-08 04:30 10.18 38000 134000 (2020) 21800 (2006) 48700 21800 22400 25100 29700 40000 61600 66200 110000 133000
2020-12-08 03:30 10.19 38100 134000 (2020) 21800 (2006) 48700 21800 22400 25100 29700 40000 61600 66200 110000 133000
2020-12-08 02:30 10.20 38100 134000 (2020) 21800 (2006) 48700 21800 22400 25100 29700 40000 61600 66200 110000 133000
2020-12-08 01:30 10.21 38200 134000 (2020) 21800 (2006) 48700 21800 22400 25100 29700 40000 61600 66200 110000 133000
2020-12-08 00:30 10.21 38200 134000 (2020) 21800 (2006) 48700 21800 22400 25100 29700 40000 61600 66200 110000 133000
2020-12-07 23:30 10.21 38200 137000 (2020) 22300 (2006) 49700 22300 23100 25800 30100 36300 63100 67600 119000 136000
2020-12-07 22:30 10.21 38200 137000 (2020) 22300 (2006) 49700 22300 23100 25800 30100 36300 63100 67600 119000 136000
2020-12-07 21:30 10.22 38200 137000 (2020) 22300 (2006) 49700 22300 23100 25800 30100 36300 63100 67600 119000 136000
2020-12-07 20:30 10.22 38200 137000 (2020) 22300 (2006) 49700 22300 23100 25800 30100 36300 63100 67600 119000 136000
2020-12-07 19:30 10.24 38300 137000 (2020) 22300 (2006) 49700 22300 23100 25800 30100 36300 63100 67600 119000 136000
2020-12-07 18:30 10.24 38300 137000 (2020) 22300 (2006) 49700 22300 23100 25800 30100 36300 63100 67600 119000 136000
2020-12-07 17:30 10.25 38300 137000 (2020) 22300 (2006) 49700 22300 23100 25800 30100 36300 63100 67600 119000 136000
2020-12-07 16:30 10.25 38300 137000 (2020) 22300 (2006) 49700 22300 23100 25800 30100 36300 63100 67600 119000 136000
2020-12-07 15:30 10.27 38400 137000 (2020) 22300 (2006) 49700 22300 23100 25800 30100 36300 63100 67600 119000 136000
2020-12-07 14:30 10.26 38400 137000 (2020) 22300 (2006) 49700 22300 23100 25800 30100 36300 63100 67600 119000 136000
2020-12-07 13:30 10.26 38400 137000 (2020) 22300 (2006) 49700 22300 23100 25800 30100 36300 63100 67600 119000 136000
2020-12-07 12:30 10.27 38400 137000 (2020) 22300 (2006) 49700 22300 23100 25800 30100 36300 63100 67600 119000 136000
2020-12-07 11:30 10.27 38400 137000 (2020) 22300 (2006) 49700 22300 23100 25800 30100 36300 63100 67600 119000 136000
2020-12-07 10:30 10.28 38500 137000 (2020) 22300 (2006) 49700 22300 23100 25800 30100 36300 63100 67600 119000 136000
2020-12-07 09:30 10.30 38600 137000 (2020) 22300 (2006) 49700 22300 23100 25800 30100 36300 63100 67600 119000 136000
2020-12-07 08:30 10.31 38600 137000 (2020) 22300 (2006) 49700 22300 23100 25800 30100 36300 63100 67600 119000 136000
2020-12-07 07:30 10.31 38600 137000 (2020) 22300 (2006) 49700 22300 23100 25800 30100 36300 63100 67600 119000 136000
2020-12-07 06:30 10.32 38700 137000 (2020) 22300 (2006) 49700 22300 23100 25800 30100 36300 63100 67600 119000 136000
2020-12-07 05:30 10.33 38700 137000 (2020) 22300 (2006) 49700 22300 23100 25800 30100 36300 63100 67600 119000 136000
2020-12-07 04:30 10.34 38700 137000 (2020) 22300 (2006) 49700 22300 23100 25800 30100 36300 63100 67600 119000 136000
2020-12-07 03:30 10.35 38800 137000 (2020) 22300 (2006) 49700 22300 23100 25800 30100 36300 63100 67600 119000 136000
2020-12-07 02:30 10.35 38800 137000 (2020) 22300 (2006) 49700 22300 23100 25800 30100 36300 63100 67600 119000 136000
2020-12-07 01:30 10.37 38900 137000 (2020) 22300 (2006) 49700 22300 23100 25800 30100 36300 63100 67600 119000 136000
2020-12-07 00:30 10.38 38900 137000 (2020) 22300 (2006) 49700 22300 23100 25800 30100 36300 63100 67600 119000 136000
2020-12-06 23:30 10.38 38900 141000 (2019) 23200 (2006) 51100 23200 23600 26400 30600 37100 64500 70600 134000 141000
2020-12-06 22:30 10.39 39000 141000 (2019) 23200 (2006) 51100 23200 23600 26400 30600 37100 64500 70600 134000 141000
2020-12-06 21:30 10.40 39000 141000 (2019) 23200 (2006) 51100 23200 23600 26400 30600 37100 64500 70600 134000 141000
2020-12-06 20:30 10.41 39100 141000 (2019) 23200 (2006) 51100 23200 23600 26400 30600 37100 64500 70600 134000 141000
2020-12-06 19:30 10.42 39100 141000 (2019) 23200 (2006) 51100 23200 23600 26400 30600 37100 64500 70600 134000 141000
2020-12-06 18:30 10.43 39200 141000 (2019) 23200 (2006) 51100 23200 23600 26400 30600 37100 64500 70600 134000 141000
2020-12-06 17:30 10.44 39200 141000 (2019) 23200 (2006) 51100 23200 23600 26400 30600 37100 64500 70600 134000 141000
2020-12-06 16:30 10.41 39100 141000 (2019) 23200 (2006) 51100 23200 23600 26400 30600 37100 64500 70600 134000 141000
2020-12-06 15:30 10.43 39200 141000 (2019) 23200 (2006) 51100 23200 23600 26400 30600 37100 64500 70600 134000 141000
2020-12-06 14:30 10.44 39200 141000 (2019) 23200 (2006) 51100 23200 23600 26400 30600 37100 64500 70600 134000 141000
2020-12-06 13:30 10.44 39200 141000 (2019) 23200 (2006) 51100 23200 23600 26400 30600 37100 64500 70600 134000 141000
2020-12-06 12:30 10.47 39300 141000 (2019) 23200 (2006) 51100 23200 23600 26400 30600 37100 64500 70600 134000 141000
2020-12-06 11:30 10.48 39400 141000 (2019) 23200 (2006) 51100 23200 23600 26400 30600 37100 64500 70600 134000 141000
2020-12-06 10:30 10.50 39500 141000 (2019) 23200 (2006) 51100 23200 23600 26400 30600 37100 64500 70600 134000 141000
2020-12-06 09:30 10.52 39600 141000 (2019) 23200 (2006) 51100 23200 23600 26400 30600 37100 64500 70600 134000 141000
2020-12-06 08:30 10.52 39600 141000 (2019) 23200 (2006) 51100 23200 23600 26400 30600 37100 64500 70600 134000 141000
2020-12-06 07:30 10.54 39700 141000 (2019) 23200 (2006) 51100 23200 23600 26400 30600 37100 64500 70600 134000 141000
2020-12-06 06:30 10.56 39800 141000 (2019) 23200 (2006) 51100 23200 23600 26400 30600 37100 64500 70600 134000 141000
2020-12-06 05:30 10.57 39800 141000 (2019) 23200 (2006) 51100 23200 23600 26400 30600 37100 64500 70600 134000 141000
2020-12-06 04:30 10.59 39900 141000 (2019) 23200 (2006) 51100 23200 23600 26400 30600 37100 64500 70600 134000 141000
2020-12-06 03:30 10.60 39900 141000 (2019) 23200 (2006) 51100 23200 23600 26400 30600 37100 64500 70600 134000 141000
2020-12-06 02:30 10.61 40000 141000 (2019) 23200 (2006) 51100 23200 23600 26400 30600 37100 64500 70600 134000 141000
2020-12-06 01:30 10.62 40000 141000 (2019) 23200 (2006) 51100 23200 23600 26400 30600 37100 64500 70600 134000 141000
2020-12-06 00:30 10.63 40100 141000 (2019) 23200 (2006) 51100 23200 23600 26400 30600 37100 64500 70600 134000 141000
2020-12-05 23:30 10.64 40100 169000 (2019) 23400 (2004) 53100 23400 23600 26600 29300 38300 63400 68800 136000 168000
2020-12-05 22:30 10.65 40200 169000 (2019) 23400 (2004) 53100 23400 23600 26600 29300 38300 63400 68800 136000 168000
2020-12-05 21:30 10.66 40200 169000 (2019) 23400 (2004) 53100 23400 23600 26600 29300 38300 63400 68800 136000 168000
2020-12-05 20:30 10.66 40200 169000 (2019) 23400 (2004) 53100 23400 23600 26600 29300 38300 63400 68800 136000 168000
2020-12-05 19:30 10.68 40300 169000 (2019) 23400 (2004) 53100 23400 23600 26600 29300 38300 63400 68800 136000 168000
2020-12-05 18:30 10.69 40400 169000 (2019) 23400 (2004) 53100 23400 23600 26600 29300 38300 63400 68800 136000 168000
2020-12-05 17:30 10.70 40400 169000 (2019) 23400 (2004) 53100 23400 23600 26600 29300 38300 63400 68800 136000 168000
2020-12-05 16:30 10.70 40400 169000 (2019) 23400 (2004) 53100 23400 23600 26600 29300 38300 63400 68800 136000 168000
2020-12-05 15:30 10.71 40500 169000 (2019) 23400 (2004) 53100 23400 23600 26600 29300 38300 63400 68800 136000 168000
2020-12-05 14:30 10.72 40500 169000 (2019) 23400 (2004) 53100 23400 23600 26600 29300 38300 63400 68800 136000 168000
2020-12-05 13:30 10.75 40700 169000 (2019) 23400 (2004) 53100 23400 23600 26600 29300 38300 63400 68800 136000 168000
2020-12-05 12:30 10.75 40700 169000 (2019) 23400 (2004) 53100 23400 23600 26600 29300 38300 63400 68800 136000 168000
2020-12-05 11:30 10.77 40700 169000 (2019) 23400 (2004) 53100 23400 23600 26600 29300 38300 63400 68800 136000 168000
2020-12-05 10:30 10.79 40800 169000 (2019) 23400 (2004) 53100 23400 23600 26600 29300 38300 63400 68800 136000 168000
2020-12-05 09:30 10.82 41000 169000 (2019) 23400 (2004) 53100 23400 23600 26600 29300 38300 63400 68800 136000 168000
2020-12-05 08:30 10.84 41100 169000 (2019) 23400 (2004) 53100 23400 23600 26600 29300 38300 63400 68800 136000 168000
2020-12-05 07:30 10.87 41200 169000 (2019) 23400 (2004) 53100 23400 23600 26600 29300 38300 63400 68800 136000 168000
2020-12-05 06:30 10.91 41400 169000 (2019) 23400 (2004) 53100 23400 23600 26600 29300 38300 63400 68800 136000 168000
2020-12-05 05:30 10.92 41500 169000 (2019) 23400 (2004) 53100 23400 23600 26600 29300 38300 63400 68800 136000 168000
2020-12-05 04:30 10.93 41500 169000 (2019) 23400 (2004) 53100 23400 23600 26600 29300 38300 63400 68800 136000 168000
2020-12-05 03:30 10.94 41600 169000 (2019) 23400 (2004) 53100 23400 23600 26600 29300 38300 63400 68800 136000 168000
2020-12-05 02:30 10.95 41600 169000 (2019) 23400 (2004) 53100 23400 23600 26600 29300 38300 63400 68800 136000 168000
2020-12-05 01:30 10.96 41700 169000 (2019) 23400 (2004) 53100 23400 23600 26600 29300 38300 63400 68800 136000 168000
2020-12-05 00:30 10.97 41700 169000 (2019) 23400 (2004) 53100 23400 23600 26600 29300 38300 63400 68800 136000 168000
2020-12-04 23:30 10.98 41800 192000 (2019) 23200 (2004) 55700 23200 23700 27600 29700 39300 60600 69200 140000 190000
2020-12-04 22:30 11.01 41900 192000 (2019) 23200 (2004) 55700 23200 23700 27600 29700 39300 60600 69200 140000 190000
2020-12-04 21:30 11.01 41900 192000 (2019) 23200 (2004) 55700 23200 23700 27600 29700 39300 60600 69200 140000 190000
2020-12-04 20:30 11.01 41900 192000 (2019) 23200 (2004) 55700 23200 23700 27600 29700 39300 60600 69200 140000 190000
2020-12-04 19:30 11.02 42000 192000 (2019) 23200 (2004) 55700 23200 23700 27600 29700 39300 60600 69200 140000 190000
2020-12-04 18:30 11.04 42000 192000 (2019) 23200 (2004) 55700 23200 23700 27600 29700 39300 60600 69200 140000 190000
2020-12-04 17:30 11.06 42100 192000 (2019) 23200 (2004) 55700 23200 23700 27600 29700 39300 60600 69200 140000 190000
2020-12-04 16:30 11.06 42100 192000 (2019) 23200 (2004) 55700 23200 23700 27600 29700 39300 60600 69200 140000 190000
2020-12-04 15:30 11.07 42200 192000 (2019) 23200 (2004) 55700 23200 23700 27600 29700 39300 60600 69200 140000 190000
2020-12-04 14:30 11.08 42200 192000 (2019) 23200 (2004) 55700 23200 23700 27600 29700 39300 60600 69200 140000 190000
2020-12-04 13:30 11.12 42400 192000 (2019) 23200 (2004) 55700 23200 23700 27600 29700 39300 60600 69200 140000 190000
2020-12-04 12:30 11.14 42500 192000 (2019) 23200 (2004) 55700 23200 23700 27600 29700 39300 60600 69200 140000 190000
2020-12-04 11:30 11.12 42400 192000 (2019) 23200 (2004) 55700 23200 23700 27600 29700 39300 60600 69200 140000 190000
2020-12-04 10:30 11.14 42800 192000 (2019) 23200 (2004) 55700 23200 23700 27600 29700 39300 60600 69200 140000 190000
2020-12-04 09:30 11.16 42900 192000 (2019) 23200 (2004) 55700 23200 23700 27600 29700 39300 60600 69200 140000 190000
2020-12-04 08:30 11.13 42700 192000 (2019) 23200 (2004) 55700 23200 23700 27600 29700 39300 60600 69200 140000 190000
2020-12-04 07:30 11.20 43100 192000 (2019) 23200 (2004) 55700 23200 23700 27600 29700 39300 60600 69200 140000 190000
2020-12-04 06:30 11.21 43100 192000 (2019) 23200 (2004) 55700 23200 23700 27600 29700 39300 60600 69200 140000 190000
2020-12-04 05:30 11.26 43400 192000 (2019) 23200 (2004) 55700 23200 23700 27600 29700 39300 60600 69200 140000 190000
2020-12-04 04:30 11.27 43400 192000 (2019) 23200 (2004) 55700 23200 23700 27600 29700 39300 60600 69200 140000 190000
2020-12-04 03:30 11.28 43500 192000 (2019) 23200 (2004) 55700 23200 23700 27600 29700 39300 60600 69200 140000 190000
2020-12-04 02:30 11.27 43400 192000 (2019) 23200 (2004) 55700 23200 23700 27600 29700 39300 60600 69200 140000 190000
2020-12-04 01:30 11.28 43500 192000 (2019) 23200 (2004) 55700 23200 23700 27600 29700 39300 60600 69200 140000 190000
2020-12-04 00:30 11.30 43600 192000 (2019) 23200 (2004) 55700 23200 23700 27600 29700 39300 60600 69200 140000 190000
2020-12-03 23:30 11.31 43600 173000 (2019) 23200 (2004) 56200 23200 23700 29400 30100 40600 59400 69500 143000 172000
2020-12-03 22:30 11.32 43700 173000 (2019) 23200 (2004) 56200 23200 23700 29400 30100 40600 59400 69500 143000 172000
2020-12-03 21:30 11.34 43800 173000 (2019) 23200 (2004) 56200 23200 23700 29400 30100 40600 59400 69500 143000 172000
2020-12-03 20:30 11.36 43900 173000 (2019) 23200 (2004) 56200 23200 23700 29400 30100 40600 59400 69500 143000 172000
2020-12-03 19:30 11.38 44000 173000 (2019) 23200 (2004) 56200 23200 23700 29400 30100 40600 59400 69500 143000 172000
2020-12-03 18:30 11.41 44100 173000 (2019) 23200 (2004) 56200 23200 23700 29400 30100 40600 59400 69500 143000 172000
2020-12-03 17:30 11.43 44200 173000 (2019) 23200 (2004) 56200 23200 23700 29400 30100 40600 59400 69500 143000 172000
2020-12-03 16:30 11.44 44300 173000 (2019) 23200 (2004) 56200 23200 23700 29400 30100 40600 59400 69500 143000 172000
2020-12-03 15:30 11.46 44400 173000 (2019) 23200 (2004) 56200 23200 23700 29400 30100 40600 59400 69500 143000 172000
2020-12-03 14:30 11.48 44500 173000 (2019) 23200 (2004) 56200 23200 23700 29400 30100 40600 59400 69500 143000 172000
2020-12-03 13:30 11.50 44600 173000 (2019) 23200 (2004) 56200 23200 23700 29400 30100 40600 59400 69500 143000 172000
2020-12-03 12:30 11.51 44600 173000 (2019) 23200 (2004) 56200 23200 23700 29400 30100 40600 59400 69500 143000 172000
2020-12-03 11:30 11.52 44700 173000 (2019) 23200 (2004) 56200 23200 23700 29400 30100 40600 59400 69500 143000 172000
2020-12-03 10:30 11.51 44600 173000 (2019) 23200 (2004) 56200 23200 23700 29400 30100 40600 59400 69500 143000 172000
2020-12-03 09:30 11.54 44800 173000 (2019) 23200 (2004) 56200 23200 23700 29400 30100 40600 59400 69500 143000 172000
2020-12-03 08:30 11.55 44800 173000 (2019) 23200 (2004) 56200 23200 23700 29400 30100 40600 59400 69500 143000 172000
2020-12-03 07:30 11.55 44800 173000 (2019) 23200 (2004) 56200 23200 23700 29400 30100 40600 59400 69500 143000 172000
2020-12-03 06:30 11.55 44800 173000 (2019) 23200 (2004) 56200 23200 23700 29400 30100 40600 59400 69500 143000 172000
2020-12-03 05:30 11.56 44900 173000 (2019) 23200 (2004) 56200 23200 23700 29400 30100 40600 59400 69500 143000 172000
2020-12-03 04:30 11.57 44900 173000 (2019) 23200 (2004) 56200 23200 23700 29400 30100 40600 59400 69500 143000 172000
2020-12-03 03:30 11.59 45100 173000 (2019) 23200 (2004) 56200 23200 23700 29400 30100 40600 59400 69500 143000 172000
2020-12-03 02:30 11.61 45200 173000 (2019) 23200 (2004) 56200 23200 23700 29400 30100 40600 59400 69500 143000 172000
2020-12-03 01:30 11.64 45300 173000 (2019) 23200 (2004) 56200 23200 23700 29400 30100 40600 59400 69500 143000 172000
2020-12-03 00:30 11.66 45400 173000 (2019) 23200 (2004) 56200 23200 23700 29400 30100 40600 59400 69500 143000 172000
2020-12-02 23:30 11.68 45500 149000 (2020) 23200 (2006) 55300 23200 24000 30500 31000 41000 59600 68700 134000 148000
2020-12-02 22:30 11.70 45600 149000 (2020) 23200 (2006) 55300 23200 24000 30500 31000 41000 59600 68700 134000 148000
2020-12-02 21:30 11.72 45700 149000 (2020) 23200 (2006) 55300 23200 24000 30500 31000 41000 59600 68700 134000 148000
2020-12-02 20:30 11.72 45700 149000 (2020) 23200 (2006) 55300 23200 24000 30500 31000 41000 59600 68700 134000 148000
2020-12-02 19:30 11.73 45800 149000 (2020) 23200 (2006) 55300 23200 24000 30500 31000 41000 59600 68700 134000 148000
2020-12-02 18:30 11.73 45800 149000 (2020) 23200 (2006) 55300 23200 24000 30500 31000 41000 59600 68700 134000 148000
2020-12-02 17:30 11.73 45800 149000 (2020) 23200 (2006) 55300 23200 24000 30500 31000 41000 59600 68700 134000 148000
2020-12-02 16:30 11.72 45700 149000 (2020) 23200 (2006) 55300 23200 24000 30500 31000 41000 59600 68700 134000 148000
2020-12-02 15:30 11.69 45600 149000 (2020) 23200 (2006) 55300 23200 24000 30500 31000 41000 59600 68700 134000 148000
2020-12-02 14:30 11.74 45800 149000 (2020) 23200 (2006) 55300 23200 24000 30500 31000 41000 59600 68700 134000 148000
2020-12-02 13:30 11.75 45900 149000 (2020) 23200 (2006) 55300 23200 24000 30500 31000 41000 59600 68700 134000 148000
2020-12-02 12:30 11.78 46000 149000 (2020) 23200 (2006) 55300 23200 24000 30500 31000 41000 59600 68700 134000 148000
2020-12-02 11:30 11.81 46200 149000 (2020) 23200 (2006) 55300 23200 24000 30500 31000 41000 59600 68700 134000 148000
2020-12-02 10:30 11.84 46400 149000 (2020) 23200 (2006) 55300 23200 24000 30500 31000 41000 59600 68700 134000 148000
2020-12-02 09:30 11.87 46500 149000 (2020) 23200 (2006) 55300 23200 24000 30500 31000 41000 59600 68700 134000 148000
2020-12-02 08:30 11.88 46600 149000 (2020) 23200 (2006) 55300 23200 24000 30500 31000 41000 59600 68700 134000 148000
2020-12-02 07:30 11.90 46700 149000 (2020) 23200 (2006) 55300 23200 24000 30500 31000 41000 59600 68700 134000 148000
2020-12-02 06:30 11.93 46800 149000 (2020) 23200 (2006) 55300 23200 24000 30500 31000 41000 59600 68700 134000 148000
2020-12-02 05:30 11.94 46900 149000 (2020) 23200 (2006) 55300 23200 24000 30500 31000 41000 59600 68700 134000 148000
2020-12-02 04:30 11.95 46900 149000 (2020) 23200 (2006) 55300 23200 24000 30500 31000 41000 59600 68700 134000 148000
2020-12-02 03:30 11.97 47000 149000 (2020) 23200 (2006) 55300 23200 24000 30500 31000 41000 59600 68700 134000 148000
2020-12-02 02:30 11.97 47000 149000 (2020) 23200 (2006) 55300 23200 24000 30500 31000 41000 59600 68700 134000 148000
2020-12-02 01:30 12.00 47200 149000 (2020) 23200 (2006) 55300 23200 24000 30500 31000 41000 59600 68700 134000 148000
2020-12-02 00:30 12.02 47300 149000 (2020) 23200 (2006) 55300 23200 24000 30500 31000 41000 59600 68700 134000 148000
2020-12-01 23:30 12.04 47400 154000 (2020) 23200 (2006) 54900 23300 24700 30700 32300 41900 60600 68500 128000 153000
2020-12-01 22:30 12.05 47500 154000 (2020) 23200 (2006) 54900 23300 24700 30700 32300 41900 60600 68500 128000 153000
2020-12-01 21:30 12.06 47500 154000 (2020) 23200 (2006) 54900 23300 24700 30700 32300 41900 60600 68500 128000 153000
2020-12-01 20:30 12.08 47600 154000 (2020) 23200 (2006) 54900 23300 24700 30700 32300 41900 60600 68500 128000 153000
2020-12-01 19:30 12.10 47700 154000 (2020) 23200 (2006) 54900 23300 24700 30700 32300 41900 60600 68500 128000 153000
2020-12-01 18:30 12.11 47800 154000 (2020) 23200 (2006) 54900 23300 24700 30700 32300 41900 60600 68500 128000 153000
2020-12-01 17:30 12.11 47800 154000 (2020) 23200 (2006) 54900 23300 24700 30700 32300 41900 60600 68500 128000 153000
2020-12-01 16:30 12.11 47800 154000 (2020) 23200 (2006) 54900 23300 24700 30700 32300 41900 60600 68500 128000 153000
2020-12-01 15:30 12.13 47900 154000 (2020) 23200 (2006) 54900 23300 24700 30700 32300 41900 60600 68500 128000 153000
2020-12-01 14:30 12.12 47800 154000 (2020) 23200 (2006) 54900 23300 24700 30700 32300 41900 60600 68500 128000 153000
2020-12-01 13:30 12.18 48200 154000 (2020) 23200 (2006) 54900 23300 24700 30700 32300 41900 60600 68500 128000 153000
2020-12-01 12:30 12.20 48300 154000 (2020) 23200 (2006) 54900 23300 24700 30700 32300 41900 60600 68500 128000 153000
2020-12-01 11:30 12.25 48500 154000 (2020) 23200 (2006) 54900 23300 24700 30700 32300 41900 60600 68500 128000 153000
2020-12-01 10:30 12.26 48600 154000 (2020) 23200 (2006) 54900 23300 24700 30700 32300 41900 60600 68500 128000 153000
2020-12-01 09:30 12.29 48800 154000 (2020) 23200 (2006) 54900 23300 24700 30700 32300 41900 60600 68500 128000 153000
2020-12-01 08:30 12.33 49000 154000 (2020) 23200 (2006) 54900 23300 24700 30700 32300 41900 60600 68500 128000 153000
2020-12-01 07:30 12.35 49100 154000 (2020) 23200 (2006) 54900 23300 24700 30700 32300 41900 60600 68500 128000 153000
2020-12-01 06:30 12.38 49300 154000 (2020) 23200 (2006) 54900 23300 24700 30700 32300 41900 60600 68500 128000 153000
2020-12-01 05:30 12.41 49400 154000 (2020) 23200 (2006) 54900 23300 24700 30700 32300 41900 60600 68500 128000 153000
2020-12-01 04:30 12.42 49500 154000 (2020) 23200 (2006) 54900 23300 24700 30700 32300 41900 60600 68500 128000 153000
2020-12-01 03:30 12.45 49700 154000 (2020) 23200 (2006) 54900 23300 24700 30700 32300 41900 60600 68500 128000 153000
2020-12-01 02:30 12.45 49700 154000 (2020) 23200 (2006) 54900 23300 24700 30700 32300 41900 60600 68500 128000 153000
2020-12-01 01:30 12.46 49700 154000 (2020) 23200 (2006) 54900 23300 24700 30700 32300 41900 60600 68500 128000 153000
2020-12-01 00:30 12.47 49800 154000 (2020) 23200 (2006) 54900 23300 24700 30700 32300 41900 60600 68500 128000 153000
2020-11-30 23:30 12.50 49900 149000 (2020) 23100 (2006) 55100 23200 25300 31800 35500 43300 61600 69500 123000 148000
2020-11-30 22:30 12.53 50100 149000 (2020) 23100 (2006) 55100 23200 25300 31800 35500 43300 61600 69500 123000 148000
2020-11-30 21:30 12.58 50400 149000 (2020) 23100 (2006) 55100 23200 25300 31800 35500 43300 61600 69500 123000 148000
2020-11-30 20:30 12.60 50500 149000 (2020) 23100 (2006) 55100 23200 25300 31800 35500 43300 61600 69500 123000 148000
2020-11-30 19:30 12.62 50600 149000 (2020) 23100 (2006) 55100 23200 25300 31800 35500 43300 61600 69500 123000 148000
2020-11-30 18:30 12.63 50700 149000 (2020) 23100 (2006) 55100 23200 25300 31800 35500 43300 61600 69500 123000 148000
2020-11-30 17:30 12.66 50800 149000 (2020) 23100 (2006) 55100 23200 25300 31800 35500 43300 61600 69500 123000 148000
2020-11-30 16:30 12.66 50800 149000 (2020) 23100 (2006) 55100 23200 25300 31800 35500 43300 61600 69500 123000 148000
2020-11-30 15:30 12.64 50700 149000 (2020) 23100 (2006) 55100 23200 25300 31800 35500 43300 61600 69500 123000 148000
2020-11-30 14:30 12.68 50900 149000 (2020) 23100 (2006) 55100 23200 25300 31800 35500 43300 61600 69500 123000 148000
2020-11-30 13:30 12.67 50900 149000 (2020) 23100 (2006) 55100 23200 25300 31800 35500 43300 61600 69500 123000 148000
2020-11-30 12:30 12.71 51100 149000 (2020) 23100 (2006) 55100 23200 25300 31800 35500 43300 61600 69500 123000 148000
2020-11-30 11:30 12.72 51200 149000 (2020) 23100 (2006) 55100 23200 25300 31800 35500 43300 61600 69500 123000 148000
2020-11-30 10:30 12.76 51400 149000 (2020) 23100 (2006) 55100 23200 25300 31800 35500 43300 61600 69500 123000 148000
2020-11-30 09:30 12.77 51500 149000 (2020) 23100 (2006) 55100 23200 25300 31800 35500 43300 61600 69500 123000 148000
2020-11-30 08:30 12.82 51700 149000 (2020) 23100 (2006) 55100 23200 25300 31800 35500 43300 61600 69500 123000 148000
2020-11-30 07:30 12.86 52000 149000 (2020) 23100 (2006) 55100 23200 25300 31800 35500 43300 61600 69500 123000 148000
2020-11-30 06:30 12.83 51800 149000 (2020) 23100 (2006) 55100 23200 25300 31800 35500 43300 61600 69500 123000 148000
2020-11-30 05:30 12.83 51800 149000 (2020) 23100 (2006) 55100 23200 25300 31800 35500 43300 61600 69500 123000 148000
2020-11-30 04:30 12.85 51900 149000 (2020) 23100 (2006) 55100 23200 25300 31800 35500 43300 61600 69500 123000 148000
2020-11-30 03:30 12.89 52100 149000 (2020) 23100 (2006) 55100 23200 25300 31800 35500 43300 61600 69500 123000 148000
2020-11-30 02:30 12.89 52100 149000 (2020) 23100 (2006) 55100 23200 25300 31800 35500 43300 61600 69500 123000 148000
2020-11-30 01:30 12.95 52500 149000 (2020) 23100 (2006) 55100 23200 25300 31800 35500 43300 61600 69500 123000 148000
2020-11-30 00:30 12.96 52600 149000 (2020) 23100 (2006) 55100 23200 25300 31800 35500 43300 61600 69500 123000 148000
2020-11-29 23:30 12.97 52600 143000 (2020) 21900 (2007) 56000 22000 23300 32600 37500 44300 63800 70900 123000 142000
2020-11-29 22:30 12.99 52700 143000 (2020) 21900 (2007) 56000 22000 23300 32600 37500 44300 63800 70900 123000 142000
2020-11-29 21:30 12.98 52700 143000 (2020) 21900 (2007) 56000 22000 23300 32600 37500 44300 63800 70900 123000 142000
2020-11-29 20:30 12.98 52700 143000 (2020) 21900 (2007) 56000 22000 23300 32600 37500 44300 63800 70900 123000 142000
2020-11-29 19:30 13.04 53000 143000 (2020) 21900 (2007) 56000 22000 23300 32600 37500 44300 63800 70900 123000 142000
2020-11-29 18:30 13.06 53100 143000 (2020) 21900 (2007) 56000 22000 23300 32600 37500 44300 63800 70900 123000 142000
2020-11-29 17:30 13.04 53000 143000 (2020) 21900 (2007) 56000 22000 23300 32600 37500 44300 63800 70900 123000 142000
2020-11-29 16:30 13.04 53000 143000 (2020) 21900 (2007) 56000 22000 23300 32600 37500 44300 63800 70900 123000 142000
2020-11-29 15:30 13.08 53300 143000 (2020) 21900 (2007) 56000 22000 23300 32600 37500 44300 63800 70900 123000 142000
2020-11-29 14:30 13.13 53500 143000 (2020) 21900 (2007) 56000 22000 23300 32600 37500 44300 63800 70900 123000 142000
2020-11-29 13:30 13.13 53500 143000 (2020) 21900 (2007) 56000 22000 23300 32600 37500 44300 63800 70900 123000 142000
2020-11-29 12:30 13.16 53700 143000 (2020) 21900 (2007) 56000 22000 23300 32600 37500 44300 63800 70900 123000 142000
2020-11-29 11:30 13.23 54100 143000 (2020) 21900 (2007) 56000 22000 23300 32600 37500 44300 63800 70900 123000 142000
2020-11-29 10:30 13.26 54300 143000 (2020) 21900 (2007) 56000 22000 23300 32600 37500 44300 63800 70900 123000 142000
2020-11-29 09:30 13.29 54500 143000 (2020) 21900 (2007) 56000 22000 23300 32600 37500 44300 63800 70900 123000 142000
2020-11-29 08:30 13.26 54300 143000 (2020) 21900 (2007) 56000 22000 23300 32600 37500 44300 63800 70900 123000 142000
2020-11-29 07:30 13.29 54500 143000 (2020) 21900 (2007) 56000 22000 23300 32600 37500 44300 63800 70900 123000 142000
2020-11-29 06:30 13.33 54700 143000 (2020) 21900 (2007) 56000 22000 23300 32600 37500 44300 63800 70900 123000 142000
2020-11-29 05:30 13.32 54700 143000 (2020) 21900 (2007) 56000 22000 23300 32600 37500 44300 63800 70900 123000 142000
2020-11-29 04:30 13.35 54900 143000 (2020) 21900 (2007) 56000 22000 23300 32600 37500 44300 63800 70900 123000 142000
2020-11-29 03:30 13.37 55000 143000 (2020) 21900 (2007) 56000 22000 23300 32600 37500 44300 63800 70900 123000 142000
2020-11-29 02:30 13.40 55200 143000 (2020) 21900 (2007) 56000 22000 23300 32600 37500 44300 63800 70900 123000 142000
2020-11-29 01:30 13.43 55300 143000 (2020) 21900 (2007) 56000 22000 23300 32600 37500 44300 63800 70900 123000 142000
2020-11-29 00:30 13.45 55500 143000 (2020) 21900 (2007) 56000 22000 23300 32600 37500 44300 63800 70900 123000 142000
2020-11-28 23:30 13.46 55500 143000 (2020) 21100 (2007) 57500 21200 23600 32700 37400 45100 71700 74200 130000 142000
2020-11-28 22:30 13.48 55600 143000 (2020) 21100 (2007) 57500 21200 23600 32700 37400 45100 71700 74200 130000 142000
2020-11-28 21:30 13.50 55800 143000 (2020) 21100 (2007) 57500 21200 23600 32700 37400 45100 71700 74200 130000 142000
2020-11-28 20:30 13.51 55800 143000 (2020) 21100 (2007) 57500 21200 23600 32700 37400 45100 71700 74200 130000 142000
2020-11-28 19:30 13.52 55900 143000 (2020) 21100 (2007) 57500 21200 23600 32700 37400 45100 71700 74200 130000 142000
2020-11-28 18:30 13.56 56100 143000 (2020) 21100 (2007) 57500 21200 23600 32700 37400 45100 71700 74200 130000 142000
2020-11-28 17:30 13.56 56100 143000 (2020) 21100 (2007) 57500 21200 23600 32700 37400 45100 71700 74200 130000 142000
2020-11-28 16:30 13.56 56100 143000 (2020) 21100 (2007) 57500 21200 23600 32700 37400 45100 71700 74200 130000 142000
2020-11-28 15:30 13.55 56100 143000 (2020) 21100 (2007) 57500 21200 23600 32700 37400 45100 71700 74200 130000 142000
2020-11-28 14:30 13.55 56100 143000 (2020) 21100 (2007) 57500 21200 23600 32700 37400 45100 71700 74200 130000 142000
2020-11-28 13:30 13.55 56100 143000 (2020) 21100 (2007) 57500 21200 23600 32700 37400 45100 71700 74200 130000 142000
2020-11-28 12:30 13.61 56400 143000 (2020) 21100 (2007) 57500 21200 23600 32700 37400 45100 71700 74200 130000 142000
2020-11-28 11:30 13.64 56600 143000 (2020) 21100 (2007) 57500 21200 23600 32700 37400 45100 71700 74200 130000 142000
2020-11-28 10:30 13.65 56700 143000 (2020) 21100 (2007) 57500 21200 23600 32700 37400 45100 71700 74200 130000 142000
2020-11-28 09:30 13.69 56900 143000 (2020) 21100 (2007) 57500 21200 23600 32700 37400 45100 71700 74200 130000 142000
2020-11-28 08:30 13.71 57100 143000 (2020) 21100 (2007) 57500 21200 23600 32700 37400 45100 71700 74200 130000 142000
2020-11-28 07:30 13.74 57200 143000 (2020) 21100 (2007) 57500 21200 23600 32700 37400 45100 71700 74200 130000 142000
2020-11-28 06:30 13.76 57400 143000 (2020) 21100 (2007) 57500 21200 23600 32700 37400 45100 71700 74200 130000 142000
2020-11-28 05:30 13.78 57500 143000 (2020) 21100 (2007) 57500 21200 23600 32700 37400 45100 71700 74200 130000 142000
2020-11-28 04:30 13.80 57600 143000 (2020) 21100 (2007) 57500 21200 23600 32700 37400 45100 71700 74200 130000 142000
2020-11-28 03:30 13.81 57700 143000 (2020) 21100 (2007) 57500 21200 23600 32700 37400 45100 71700 74200 130000 142000
2020-11-28 02:30 13.82 57700 143000 (2020) 21100 (2007) 57500 21200 23600 32700 37400 45100 71700 74200 130000 142000
2020-11-28 01:30 13.81 57700 143000 (2020) 21100 (2007) 57500 21200 23600 32700 37400 45100 71700 74200 130000 142000
2020-11-28 00:30 13.81 57700 143000 (2020) 21100 (2007) 57500 21200 23600 32700 37400 45100 71700 74200 130000 142000
2020-11-27 23:30 13.81 57700 142000 (2020) 21200 (2007) 55300 21300 23900 32600 36900 43800 72600 75600 108000 140000
2020-11-27 22:30 13.82 57700 142000 (2020) 21200 (2007) 55300 21300 23900 32600 36900 43800 72600 75600 108000 140000
2020-11-27 21:30 13.82 57700 142000 (2020) 21200 (2007) 55300 21300 23900 32600 36900 43800 72600 75600 108000 140000
2020-11-27 20:30 13.83 57800 142000 (2020) 21200 (2007) 55300 21300 23900 32600 36900 43800 72600 75600 108000 140000
2020-11-27 19:30 13.84 57900 142000 (2020) 21200 (2007) 55300 21300 23900 32600 36900 43800 72600 75600 108000 140000
2020-11-27 18:30 13.83 57800 142000 (2020) 21200 (2007) 55300 21300 23900 32600 36900 43800 72600 75600 108000 140000
2020-11-27 17:30 13.80 57600 142000 (2020) 21200 (2007) 55300 21300 23900 32600 36900 43800 72600 75600 108000 140000
2020-11-27 16:30 13.79 57600 142000 (2020) 21200 (2007) 55300 21300 23900 32600 36900 43800 72600 75600 108000 140000
2020-11-27 15:30 13.77 57400 142000 (2020) 21200 (2007) 55300 21300 23900 32600 36900 43800 72600 75600 108000 140000
2020-11-27 14:30 13.76 57400 142000 (2020) 21200 (2007) 55300 21300 23900 32600 36900 43800 72600 75600 108000 140000
2020-11-27 13:30 13.78 57500 142000 (2020) 21200 (2007) 55300 21300 23900 32600 36900 43800 72600 75600 108000 140000
2020-11-27 12:30 13.75 57300 142000 (2020) 21200 (2007) 55300 21300 23900 32600 36900 43800 72600 75600 108000 140000
2020-11-27 11:30 13.71 57100 142000 (2020) 21200 (2007) 55300 21300 23900 32600 36900 43800 72600 75600 108000 140000
2020-11-27 10:30 13.71 57100 142000 (2020) 21200 (2007) 55300 21300 23900 32600 36900 43800 72600 75600 108000 140000
2020-11-27 09:30 13.67 56800 142000 (2020) 21200 (2007) 55300 21300 23900 32600 36900 43800 72600 75600 108000 140000
2020-11-27 08:30 13.63 56600 142000 (2020) 21200 (2007) 55300 21300 23900 32600 36900 43800 72600 75600 108000 140000
2020-11-27 07:30 13.64 56600 142000 (2020) 21200 (2007) 55300 21300 23900 32600 36900 43800 72600 75600 108000 140000
2020-11-27 06:30 13.60 56400 142000 (2020) 21200 (2007) 55300 21300 23900 32600 36900 43800 72600 75600 108000 140000
2020-11-27 05:30 13.57 56200 142000 (2020) 21200 (2007) 55300 21300 23900 32600 36900 43800 72600 75600 108000 140000
2020-11-27 04:30 13.49 55700 142000 (2020) 21200 (2007) 55300 21300 23900 32600 36900 43800 72600 75600 108000 140000
2020-11-27 03:30 13.46 55500 142000 (2020) 21200 (2007) 55300 21300 23900 32600 36900 43800 72600 75600 108000 140000
2020-11-27 02:30 13.41 55200 142000 (2020) 21200 (2007) 55300 21300 23900 32600 36900 43800 72600 75600 108000 140000
2020-11-27 01:30 13.35 54900 142000 (2020) 21200 (2007) 55300 21300 23900 32600 36900 43800 72600 75600 108000 140000
2020-11-27 00:30 13.29 54500 142000 (2020) 21200 (2007) 55300 21300 23900 32600 36900 43800 72600 75600 108000 140000
2020-11-26 23:30 13.20 54000 142000 (2020) 21300 (2007) 53200 21400 23800 32400 34900 43100 62100 65400 107000 140000
2020-11-26 22:30 13.14 53600 142000 (2020) 21300 (2007) 53200 21400 23800 32400 34900 43100 62100 65400 107000 140000
2020-11-26 21:30 13.06 53100 142000 (2020) 21300 (2007) 53200 21400 23800 32400 34900 43100 62100 65400 107000 140000
2020-11-26 20:30 12.99 52700 142000 (2020) 21300 (2007) 53200 21400 23800 32400 34900 43100 62100 65400 107000 140000
2020-11-26 19:30 12.91 52300 142000 (2020) 21300 (2007) 53200 21400 23800 32400 34900 43100 62100 65400 107000 140000
2020-11-26 18:30 12.83 51800 142000 (2020) 21300 (2007) 53200 21400 23800 32400 34900 43100 62100 65400 107000 140000
2020-11-26 17:30 12.77 51500 142000 (2020) 21300 (2007) 53200 21400 23800 32400 34900 43100 62100 65400 107000 140000
2020-11-26 16:30 12.69 51000 142000 (2020) 21300 (2007) 53200 21400 23800 32400 34900 43100 62100 65400 107000 140000
2020-11-26 15:30 12.62 50600 142000 (2020) 21300 (2007) 53200 21400 23800 32400 34900 43100 62100 65400 107000 140000
2020-11-26 14:30 12.56 50300 142000 (2020) 21300 (2007) 53200 21400 23800 32400 34900 43100 62100 65400 107000 140000
2020-11-26 13:30 12.53 50100 142000 (2020) 21300 (2007) 53200 21400 23800 32400 34900 43100 62100 65400 107000 140000
2020-11-26 12:30 12.49 49900 142000 (2020) 21300 (2007) 53200 21400 23800 32400 34900 43100 62100 65400 107000 140000
2020-11-26 11:30 12.48 49800 142000 (2020) 21300 (2007) 53200 21400 23800 32400 34900 43100 62100 65400 107000 140000
2020-11-26 10:30 12.45 49700 142000 (2020) 21300 (2007) 53200 21400 23800 32400 34900 43100 62100 65400 107000 140000
2020-11-26 09:30 12.45 49700 142000 (2020) 21300 (2007) 53200 21400 23800 32400 34900 43100 62100 65400 107000 140000
2020-11-26 08:30 12.46 49700 142000 (2020) 21300 (2007) 53200 21400 23800 32400 34900 43100 62100 65400 107000 140000
2020-11-26 07:30 12.47 49800 142000 (2020) 21300 (2007) 53200 21400 23800 32400 34900 43100 62100 65400 107000 140000
2020-11-26 06:30 12.45 49700 142000 (2020) 21300 (2007) 53200 21400 23800 32400 34900 43100 62100 65400 107000 140000
2020-11-26 05:30 12.47 49800 142000 (2020) 21300 (2007) 53200 21400 23800 32400 34900 43100 62100 65400 107000 140000
2020-11-26 04:30 12.48 49800 142000 (2020) 21300 (2007) 53200 21400 23800 32400 34900 43100 62100 65400 107000 140000
2020-11-26 03:30 12.46 49700 142000 (2020) 21300 (2007) 53200 21400 23800 32400 34900 43100 62100 65400 107000 140000
2020-11-26 02:30 12.42 49500 142000 (2020) 21300 (2007) 53200 21400 23800 32400 34900 43100 62100 65400 107000 140000
2020-11-26 01:30 12.43 49500 142000 (2020) 21300 (2007) 53200 21400 23800 32400 34900 43100 62100 65400 107000 140000
2020-11-26 00:30 12.42 49500 142000 (2020) 21300 (2007) 53200 21400 23800 32400 34900 43100 62100 65400 107000 140000
2020-11-25 23:30 12.41 49400 142000 (2020) 21200 (2007) 53100 21300 23400 33200 36500 42900 61500 66900 105000 140000
2020-11-25 22:30 12.39 49300 142000 (2020) 21200 (2007) 53100 21300 23400 33200 36500 42900 61500 66900 105000 140000
2020-11-25 21:30 12.39 49300 142000 (2020) 21200 (2007) 53100 21300 23400 33200 36500 42900 61500 66900 105000 140000
2020-11-25 20:30 12.38 49300 142000 (2020) 21200 (2007) 53100 21300 23400 33200 36500 42900 61500 66900 105000 140000
2020-11-25 19:30 12.36 49200 142000 (2020) 21200 (2007) 53100 21300 23400 33200 36500 42900 61500 66900 105000 140000
2020-11-25 18:30 12.35 49100 142000 (2020) 21200 (2007) 53100 21300 23400 33200 36500 42900 61500 66900 105000 140000
2020-11-25 17:30 12.36 49200 142000 (2020) 21200 (2007) 53100 21300 23400 33200 36500 42900 61500 66900 105000 140000
2020-11-25 16:30 12.33 49000 142000 (2020) 21200 (2007) 53100 21300 23400 33200 36500 42900 61500 66900 105000 140000
2020-11-25 15:30 12.31 48900 142000 (2020) 21200 (2007) 53100 21300 23400 33200 36500 42900 61500 66900 105000 140000
2020-11-25 14:30 12.29 48800 142000 (2020) 21200 (2007) 53100 21300 23400 33200 36500 42900 61500 66900 105000 140000
2020-11-25 13:30 12.28 48700 142000 (2020) 21200 (2007) 53100 21300 23400 33200 36500 42900 61500 66900 105000 140000
2020-11-25 12:30 12.23 48400 142000 (2020) 21200 (2007) 53100 21300 23400 33200 36500 42900 61500 66900 105000 140000
2020-11-25 11:30 12.28 48700 142000 (2020) 21200 (2007) 53100 21300 23400 33200 36500 42900 61500 66900 105000 140000
2020-11-25 10:30 12.25 48500 142000 (2020) 21200 (2007) 53100 21300 23400 33200 36500 42900 61500 66900 105000 140000
2020-11-25 09:30 12.23 48400 142000 (2020) 21200 (2007) 53100 21300 23400 33200 36500 42900 61500 66900 105000 140000
2020-11-25 08:30 12.22 48400 142000 (2020) 21200 (2007) 53100 21300 23400 33200 36500 42900 61500 66900 105000 140000
2020-11-25 07:30 12.21 48300 142000 (2020) 21200 (2007) 53100 21300 23400 33200 36500 42900 61500 66900 105000 140000
2020-11-25 06:30 12.20 48300 142000 (2020) 21200 (2007) 53100 21300 23400 33200 36500 42900 61500 66900 105000 140000
2020-11-25 05:30 12.18 48200 142000 (2020) 21200 (2007) 53100 21300 23400 33200 36500 42900 61500 66900 105000 140000
2020-11-25 04:30 12.15 48000 142000 (2020) 21200 (2007) 53100 21300 23400 33200 36500 42900 61500 66900 105000 140000
2020-11-25 03:30 12.13 47900 142000 (2020) 21200 (2007) 53100 21300 23400 33200 36500 42900 61500 66900 105000 140000
2020-11-25 02:30 12.09 47700 142000 (2020) 21200 (2007) 53100 21300 23400 33200 36500 42900 61500 66900 105000 140000
2020-11-25 01:30 12.04 47400 142000 (2020) 21200 (2007) 53100 21300 23400 33200 36500 42900 61500 66900 105000 140000
2020-11-25 00:30 12.01 47300 142000 (2020) 21200 (2007) 53100 21300 23400 33200 36500 42900 61500 66900 105000 140000
2020-11-24 23:30 12.01 47300 142000 (2020) 21000 (2007) 53300 21100 23200 33700 36900 43100 63200 69200 105000 140000
2020-11-24 22:30 12.04 47400 142000 (2020) 21000 (2007) 53300 21100 23200 33700 36900 43100 63200 69200 105000 140000
2020-11-24 21:30 12.04 47400 142000 (2020) 21000 (2007) 53300 21100 23200 33700 36900 43100 63200 69200 105000 140000
2020-11-24 20:30 12.03 47400 142000 (2020) 21000 (2007) 53300 21100 23200 33700 36900 43100 63200 69200 105000 140000
2020-11-24 19:30 11.99 47100 142000 (2020) 21000 (2007) 53300 21100 23200 33700 36900 43100 63200 69200 105000 140000
2020-11-24 18:30 12.08 47600 142000 (2020) 21000 (2007) 53300 21100 23200 33700 36900 43100 63200 69200 105000 140000
2020-11-24 17:30 12.09 47700 142000 (2020) 21000 (2007) 53300 21100 23200 33700 36900 43100 63200 69200 105000 140000
2020-11-24 16:30 12.05 47500 142000 (2020) 21000 (2007) 53300 21100 23200 33700 36900 43100 63200 69200 105000 140000
2020-11-24 15:30 12.05 47500 142000 (2020) 21000 (2007) 53300 21100 23200 33700 36900 43100 63200 69200 105000 140000
2020-11-24 14:30 12.03 47400 142000 (2020) 21000 (2007) 53300 21100 23200 33700 36900 43100 63200 69200 105000 140000
2020-11-24 13:30 11.99 47100 142000 (2020) 21000 (2007) 53300 21100 23200 33700 36900 43100 63200 69200 105000 140000
2020-11-24 12:30 11.98 47100 142000 (2020) 21000 (2007) 53300 21100 23200 33700 36900 43100 63200 69200 105000 140000
2020-11-24 11:30 11.98 47100 142000 (2020) 21000 (2007) 53300 21100 23200 33700 36900 43100 63200 69200 105000 140000
2020-11-24 10:30 11.99 47100 142000 (2020) 21000 (2007) 53300 21100 23200 33700 36900 43100 63200 69200 105000 140000
2020-11-24 09:30 11.98 47100 142000 (2020) 21000 (2007) 53300 21100 23200 33700 36900 43100 63200 69200 105000 140000
2020-11-24 08:30 12.01 47300 142000 (2020) 21000 (2007) 53300 21100 23200 33700 36900 43100 63200 69200 105000 140000
2020-11-24 07:30 12.04 47400 142000 (2020) 21000 (2007) 53300 21100 23200 33700 36900 43100 63200 69200 105000 140000
2020-11-24 06:30 12.08 47600 142000 (2020) 21000 (2007) 53300 21100 23200 33700 36900 43100 63200 69200 105000 140000
2020-11-24 05:30 12.08 47600 142000 (2020) 21000 (2007) 53300 21100 23200 33700 36900 43100 63200 69200 105000 140000
2020-11-24 04:30 12.07 47600 142000 (2020) 21000 (2007) 53300 21100 23200 33700 36900 43100 63200 69200 105000 140000
2020-11-24 03:30 12.08 47600 142000 (2020) 21000 (2007) 53300 21100 23200 33700 36900 43100 63200 69200 105000 140000
2020-11-24 02:30 12.08 47600 142000 (2020) 21000 (2007) 53300 21100 23200 33700 36900 43100 63200 69200 105000 140000
2020-11-24 01:30 12.05 47500 142000 (2020) 21000 (2007) 53300 21100 23200 33700 36900 43100 63200 69200 105000 140000
2020-11-24 00:30 12.03 47400 142000 (2020) 21000 (2007) 53300 21100 23200 33700 36900 43100 63200 69200 105000 140000
2020-11-23 23:30 12.06 47500 142000 (2020) 20900 (2007) 53500 21000 23200 33800 36800 43400 67700 72000 104000 140000
2020-11-23 22:30 12.06 47500 142000 (2020) 20900 (2007) 53500 21000 23200 33800 36800 43400 67700 72000 104000 140000
2020-11-23 21:30 12.08 47600 142000 (2020) 20900 (2007) 53500 21000 23200 33800 36800 43400 67700 72000 104000 140000
2020-11-23 20:30 12.07 47600 142000 (2020) 20900 (2007) 53500 21000 23200 33800 36800 43400 67700 72000 104000 140000
2020-11-23 19:30 12.10 47700 142000 (2020) 20900 (2007) 53500 21000 23200 33800 36800 43400 67700 72000 104000 140000
2020-11-23 18:30 12.10 47700 142000 (2020) 20900 (2007) 53500 21000 23200 33800 36800 43400 67700 72000 104000 140000
2020-11-23 17:30 12.13 47900 142000 (2020) 20900 (2007) 53500 21000 23200 33800 36800 43400 67700 72000 104000 140000
2020-11-23 16:30 12.13 47900 142000 (2020) 20900 (2007) 53500 21000 23200 33800 36800 43400 67700 72000 104000 140000
2020-11-23 15:30 12.12 47800 142000 (2020) 20900 (2007) 53500 21000 23200 33800 36800 43400 67700 72000 104000 140000
2020-11-23 14:30 12.08 47600 142000 (2020) 20900 (2007) 53500 21000 23200 33800 36800 43400 67700 72000 104000 140000
2020-11-23 13:30 12.11 47800 142000 (2020) 20900 (2007) 53500 21000 23200 33800 36800 43400 67700 72000 104000 140000
2020-11-23 12:30 12.12 47800 142000 (2020) 20900 (2007) 53500 21000 23200 33800 36800 43400 67700 72000 104000 140000
2020-11-23 11:30 12.12 47800 142000 (2020) 20900 (2007) 53500 21000 23200 33800 36800 43400 67700 72000 104000 140000
2020-11-23 10:30 12.12 47800 142000 (2020) 20900 (2007) 53500 21000 23200 33800 36800 43400 67700 72000 104000 140000
2020-11-23 09:30 12.11 47800 142000 (2020) 20900 (2007) 53500 21000 23200 33800 36800 43400 67700 72000 104000 140000
2020-11-23 08:30 12.11 47800 142000 (2020) 20900 (2007) 53500 21000 23200 33800 36800 43400 67700 72000 104000 140000
2020-11-23 07:30 12.10 47700 142000 (2020) 20900 (2007) 53500 21000 23200 33800 36800 43400 67700 72000 104000 140000
2020-11-23 06:30 12.11 47800 142000 (2020) 20900 (2007) 53500 21000 23200 33800 36800 43400 67700 72000 104000 140000
2020-11-23 05:30 12.11 47800 142000 (2020) 20900 (2007) 53500 21000 23200 33800 36800 43400 67700 72000 104000 140000
2020-11-23 04:30 12.11 47800 142000 (2020) 20900 (2007) 53500 21000 23200 33800 36800 43400 67700 72000 104000 140000
2020-11-23 03:30 12.09 47700 142000 (2020) 20900 (2007) 53500 21000 23200 33800 36800 43400 67700 72000 104000 140000
2020-11-23 02:30 12.08 47600 142000 (2020) 20900 (2007) 53500 21000 23200 33800 36800 43400 67700 72000 104000 140000
2020-11-23 01:30 12.08 47600 142000 (2020) 20900 (2007) 53500 21000 23200 33800 36800 43400 67700 72000 104000 140000
2020-11-23 00:30 12.07 47600 142000 (2020) 20900 (2007) 53500 21000 23200 33800 36800 43400 67700 72000 104000 140000
2020-11-22 23:30 12.06 47500 143000 (2020) 20900 (2007) 54500 21000 23200 34000 36700 43900 71100 77900 105000 141000
2020-11-22 22:30 12.05 47500 143000 (2020) 20900 (2007) 54500 21000 23200 34000 36700 43900 71100 77900 105000 141000
2020-11-22 21:30 12.04 47400 143000 (2020) 20900 (2007) 54500 21000 23200 34000 36700 43900 71100 77900 105000 141000
2020-11-22 20:30 12.04 47400 143000 (2020) 20900 (2007) 54500 21000 23200 34000 36700 43900 71100 77900 105000 141000
2020-11-22 19:30 12.04 47400 143000 (2020) 20900 (2007) 54500 21000 23200 34000 36700 43900 71100 77900 105000 141000
2020-11-22 18:30 12.04 47400 143000 (2020) 20900 (2007) 54500 21000 23200 34000 36700 43900 71100 77900 105000 141000
2020-11-22 17:30 12.02 47300 143000 (2020) 20900 (2007) 54500 21000 23200 34000 36700 43900 71100 77900 105000 141000
2020-11-22 16:30 12.02 47300 143000 (2020) 20900 (2007) 54500 21000 23200 34000 36700 43900 71100 77900 105000 141000
2020-11-22 15:30 11.96 47000 143000 (2020) 20900 (2007) 54500 21000 23200 34000 36700 43900 71100 77900 105000 141000
2020-11-22 14:30 11.99 47100 143000 (2020) 20900 (2007) 54500 21000 23200 34000 36700 43900 71100 77900 105000 141000
2020-11-22 13:30 11.96 47000 143000 (2020) 20900 (2007) 54500 21000 23200 34000 36700 43900 71100 77900 105000 141000
2020-11-22 12:30 11.98 47100 143000 (2020) 20900 (2007) 54500 21000 23200 34000 36700 43900 71100 77900 105000 141000
2020-11-22 11:30 11.99 47100 143000 (2020) 20900 (2007) 54500 21000 23200 34000 36700 43900 71100 77900 105000 141000
2020-11-22 10:30 11.99 47100 143000 (2020) 20900 (2007) 54500 21000 23200 34000 36700 43900 71100 77900 105000 141000
2020-11-22 09:30 11.99 47100 143000 (2020) 20900 (2007) 54500 21000 23200 34000 36700 43900 71100 77900 105000 141000
2020-11-22 08:30 11.98 47100 143000 (2020) 20900 (2007) 54500 21000 23200 34000 36700 43900 71100 77900 105000 141000
2020-11-22 07:30 11.98 47100 143000 (2020) 20900 (2007) 54500 21000 23200 34000 36700 43900 71100 77900 105000 141000
2020-11-22 06:30 11.99 47100 143000 (2020) 20900 (2007) 54500 21000 23200 34000 36700 43900 71100 77900 105000 141000
2020-11-22 05:30 11.98 47100 143000 (2020) 20900 (2007) 54500 21000 23200 34000 36700 43900 71100 77900 105000 141000
2020-11-22 04:30 11.98 47100 143000 (2020) 20900 (2007) 54500 21000 23200 34000 36700 43900 71100 77900 105000 141000
2020-11-22 03:30 11.96 47000 143000 (2020) 20900 (2007) 54500 21000 23200 34000 36700 43900 71100 77900 105000 141000
2020-11-22 02:30 11.95 46900 143000 (2020) 20900 (2007) 54500 21000 23200 34000 36700 43900 71100 77900 105000 141000
2020-11-22 01:30 11.95 46900 143000 (2020) 20900 (2007) 54500 21000 23200 34000 36700 43900 71100 77900 105000 141000
2020-11-22 00:30 11.94 46900 143000 (2020) 20900 (2007) 54500 21000 23200 34000 36700 43900 71100 77900 105000 141000
2020-11-21 23:30 11.93 46800 144000 (2020) 20900 (2007) 55800 21000 23200 34400 37000 44200 71400 78800 107000 142000
2020-11-21 22:30 11.90 46700 144000 (2020) 20900 (2007) 55800 21000 23200 34400 37000 44200 71400 78800 107000 142000
2020-11-21 21:30 11.89 46600 144000 (2020) 20900 (2007) 55800 21000 23200 34400 37000 44200 71400 78800 107000 142000
2020-11-21 20:30 11.88 46600 144000 (2020) 20900 (2007) 55800 21000 23200 34400 37000 44200 71400 78800 107000 142000
2020-11-21 19:30 11.89 46600 144000 (2020) 20900 (2007) 55800 21000 23200 34400 37000 44200 71400 78800 107000 142000
2020-11-21 18:30 11.89 46600 144000 (2020) 20900 (2007) 55800 21000 23200 34400 37000 44200 71400 78800 107000 142000
2020-11-21 17:30 11.88 46600 144000 (2020) 20900 (2007) 55800 21000 23200 34400 37000 44200 71400 78800 107000 142000
2020-11-21 16:30 11.88 46600 144000 (2020) 20900 (2007) 55800 21000 23200 34400 37000 44200 71400 78800 107000 142000
2020-11-21 15:30 11.89 46600 144000 (2020) 20900 (2007) 55800 21000 23200 34400 37000 44200 71400 78800 107000 142000
2020-11-21 14:30 11.90 46700 144000 (2020) 20900 (2007) 55800 21000 23200 34400 37000 44200 71400 78800 107000 142000
2020-11-21 13:30 11.90 46700 144000 (2020) 20900 (2007) 55800 21000 23200 34400 37000 44200 71400 78800 107000 142000
2020-11-21 12:30 11.90 46700 144000 (2020) 20900 (2007) 55800 21000 23200 34400 37000 44200 71400 78800 107000 142000
2020-11-21 11:30 11.90 46700 144000 (2020) 20900 (2007) 55800 21000 23200 34400 37000 44200 71400 78800 107000 142000
2020-11-21 10:30 11.87 46500 144000 (2020) 20900 (2007) 55800 21000 23200 34400 37000 44200 71400 78800 107000 142000
2020-11-21 09:30 11.88 46600 144000 (2020) 20900 (2007) 55800 21000 23200 34400 37000 44200 71400 78800 107000 142000
2020-11-21 08:30 11.88 46600 144000 (2020) 20900 (2007) 55800 21000 23200 34400 37000 44200 71400 78800 107000 142000
2020-11-21 07:30 11.89 46600 144000 (2020) 20900 (2007) 55800 21000 23200 34400 37000 44200 71400 78800 107000 142000
2020-11-21 06:30 11.90 46700 144000 (2020) 20900 (2007) 55800 21000 23200 34400 37000 44200 71400 78800 107000 142000
2020-11-21 05:30 11.90 46700 144000 (2020) 20900 (2007) 55800 21000 23200 34400 37000 44200 71400 78800 107000 142000
2020-11-21 04:30 11.90 46700 144000 (2020) 20900 (2007) 55800 21000 23200 34400 37000 44200 71400 78800 107000 142000
2020-11-21 03:30 11.90 46700 144000 (2020) 20900 (2007) 55800 21000 23200 34400 37000 44200 71400 78800 107000 142000
2020-11-21 02:30 11.91 46700 144000 (2020) 20900 (2007) 55800 21000 23200 34400 37000 44200 71400 78800 107000 142000
2020-11-21 01:30 11.90 46700 144000 (2020) 20900 (2007) 55800 21000 23200 34400 37000 44200 71400 78800 107000 142000
2020-11-21 00:30 11.89 46600 144000 (2020) 20900 (2007) 55800 21000 23200 34400 37000 44200 71400 78800 107000 142000
2020-11-20 23:30 11.89 46600 143000 (2020) 21000 (2007) 56800 21100 23000 34700 37600 45200 72600 80300 120000 142000
2020-11-20 22:30 11.89 46600 143000 (2020) 21000 (2007) 56800 21100 23000 34700 37600 45200 72600 80300 120000 142000
2020-11-20 21:30 11.90 46700 143000 (2020) 21000 (2007) 56800 21100 23000 34700 37600 45200 72600 80300 120000 142000
2020-11-20 20:30 11.91 46700 143000 (2020) 21000 (2007) 56800 21100 23000 34700 37600 45200 72600 80300 120000 142000
2020-11-20 19:30 11.92 46800 143000 (2020) 21000 (2007) 56800 21100 23000 34700 37600 45200 72600 80300 120000 142000
2020-11-20 18:30 11.92 46800 143000 (2020) 21000 (2007) 56800 21100 23000 34700 37600 45200 72600 80300 120000 142000
2020-11-20 17:30 11.92 46800 143000 (2020) 21000 (2007) 56800 21100 23000 34700 37600 45200 72600 80300 120000 142000
2020-11-20 16:30 11.94 46900 143000 (2020) 21000 (2007) 56800 21100 23000 34700 37600 45200 72600 80300 120000 142000
2020-11-20 15:30 11.95 46900 143000 (2020) 21000 (2007) 56800 21100 23000 34700 37600 45200 72600 80300 120000 142000
2020-11-20 14:30 11.94 46900 143000 (2020) 21000 (2007) 56800 21100 23000 34700 37600 45200 72600 80300 120000 142000
2020-11-20 13:30 11.95 46900 143000 (2020) 21000 (2007) 56800 21100 23000 34700 37600 45200 72600 80300 120000 142000
2020-11-20 12:30 11.96 47000 143000 (2020) 21000 (2007) 56800 21100 23000 34700 37600 45200 72600 80300 120000 142000
2020-11-20 11:30 11.98 47100 143000 (2020) 21000 (2007) 56800 21100 23000 34700 37600 45200 72600 80300 120000 142000
2020-11-20 10:30 11.99 47100 143000 (2020) 21000 (2007) 56800 21100 23000 34700 37600 45200 72600 80300 120000 142000
2020-11-20 09:30 11.98 47100 143000 (2020) 21000 (2007) 56800 21100 23000 34700 37600 45200 72600 80300 120000 142000
2020-11-20 08:30 12.00 47200 143000 (2020) 21000 (2007) 56800 21100 23000 34700 37600 45200 72600 80300 120000 142000
2020-11-20 07:30 12.02 47300 143000 (2020) 21000 (2007) 56800 21100 23000 34700 37600 45200 72600 80300 120000 142000
2020-11-20 06:30 12.01 47300 143000 (2020) 21000 (2007) 56800 21100 23000 34700 37600 45200 72600 80300 120000 142000
2020-11-20 05:30 12.03 47400 143000 (2020) 21000 (2007) 56800 21100 23000 34700 37600 45200 72600 80300 120000 142000
2020-11-20 04:30 12.03 47400 143000 (2020) 21000 (2007) 56800 21100 23000 34700 37600 45200 72600 80300 120000 142000
2020-11-20 03:30 12.02 47300 143000 (2020) 21000 (2007) 56800 21100 23000 34700 37600 45200 72600 80300 120000 142000
2020-11-20 02:30 12.03 47400 143000 (2020) 21000 (2007) 56800 21100 23000 34700 37600 45200 72600 80300 120000 142000
2020-11-20 01:30 12.03 47400 143000 (2020) 21000 (2007) 56800 21100 23000 34700 37600 45200 72600 80300 120000 142000
2020-11-20 00:30 12.01 47300 143000 (2020) 21000 (2007) 56800 21100 23000 34700 37600 45200 72600 80300 120000 142000
2020-11-19 23:30 12.01 47300 144000 (2020) 21200 (2007) 57900 21300 22900 35100 38300 45900 78400 83900 121000 143000
2020-11-19 22:30 12.04 47400 144000 (2020) 21200 (2007) 57900 21300 22900 35100 38300 45900 78400 83900 121000 143000
2020-11-19 21:30 12.05 47500 144000 (2020) 21200 (2007) 57900 21300 22900 35100 38300 45900 78400 83900 121000 143000
2020-11-19 20:30 12.08 47600 144000 (2020) 21200 (2007) 57900 21300 22900 35100 38300 45900 78400 83900 121000 143000
2020-11-19 19:30 12.12 47800 144000 (2020) 21200 (2007) 57900 21300 22900 35100 38300 45900 78400 83900 121000 143000
2020-11-19 18:30 12.14 48000 144000 (2020) 21200 (2007) 57900 21300 22900 35100 38300 45900 78400 83900 121000 143000
2020-11-19 17:30 12.14 48000 144000 (2020) 21200 (2007) 57900 21300 22900 35100 38300 45900 78400 83900 121000 143000
2020-11-19 16:30 12.08 47600 144000 (2020) 21200 (2007) 57900 21300 22900 35100 38300 45900 78400 83900 121000 143000
2020-11-19 15:30 12.13 47900 144000 (2020) 21200 (2007) 57900 21300 22900 35100 38300 45900 78400 83900 121000 143000
2020-11-19 14:30 12.16 48100 144000 (2020) 21200 (2007) 57900 21300 22900 35100 38300 45900 78400 83900 121000 143000
2020-11-19 13:30 12.16 48100 144000 (2020) 21200 (2007) 57900 21300 22900 35100 38300 45900 78400 83900 121000 143000
2020-11-19 12:30 12.15 48000 144000 (2020) 21200 (2007) 57900 21300 22900 35100 38300 45900 78400 83900 121000 143000
2020-11-19 11:30 12.14 48000 144000 (2020) 21200 (2007) 57900 21300 22900 35100 38300 45900 78400 83900 121000 143000
2020-11-19 10:30 12.15 48000 144000 (2020) 21200 (2007) 57900 21300 22900 35100 38300 45900 78400 83900 121000 143000
2020-11-19 09:30 12.20 48300 144000 (2020) 21200 (2007) 57900 21300 22900 35100 38300 45900 78400 83900 121000 143000
2020-11-19 08:30 12.14 48000 144000 (2020) 21200 (2007) 57900 21300 22900 35100 38300 45900 78400 83900 121000 143000
2020-11-19 07:30 12.18 48200 144000 (2020) 21200 (2007) 57900 21300 22900 35100 38300 45900 78400 83900 121000 143000
2020-11-19 06:30 12.19 48200 144000 (2020) 21200 (2007) 57900 21300 22900 35100 38300 45900 78400 83900 121000 143000
2020-11-19 05:30 12.18 48200 144000 (2020) 21200 (2007) 57900 21300 22900 35100 38300 45900 78400 83900 121000 143000
2020-11-19 04:30 12.17 48100 144000 (2020) 21200 (2007) 57900 21300 22900 35100 38300 45900 78400 83900 121000 143000
2020-11-19 03:30 12.16 48100 144000 (2020) 21200 (2007) 57900 21300 22900 35100 38300 45900 78400 83900 121000 143000
2020-11-19 02:30 12.20 48300 144000 (2020) 21200 (2007) 57900 21300 22900 35100 38300 45900 78400 83900 121000 143000
2020-11-19 01:30 12.20 48300 144000 (2020) 21200 (2007) 57900 21300 22900 35100 38300 45900 78400 83900 121000 143000
2020-11-19 00:30 12.22 48400 144000 (2020) 21200 (2007) 57900 21300 22900 35100 38300 45900 78400 83900 121000 143000
2020-11-18 23:30 12.25 48500 144000 (2020) 21300 (2007) 56700 21400 23300 35200 37500 46200 69200 82500 109000 142000
2020-11-18 22:30 12.25 48500 144000 (2020) 21300 (2007) 56700 21400 23300 35200 37500 46200 69200 82500 109000 142000
2020-11-18 21:30 12.27 48700 144000 (2020) 21300 (2007) 56700 21400 23300 35200 37500 46200 69200 82500 109000 142000
2020-11-18 20:30 12.23 48400 144000 (2020) 21300 (2007) 56700 21400 23300 35200 37500 46200 69200 82500 109000 142000
2020-11-18 19:30 12.27 48700 144000 (2020) 21300 (2007) 56700 21400 23300 35200 37500 46200 69200 82500 109000 142000
2020-11-18 18:30 12.26 48600 144000 (2020) 21300 (2007) 56700 21400 23300 35200 37500 46200 69200 82500 109000 142000
2020-11-18 17:30 12.26 48600 144000 (2020) 21300 (2007) 56700 21400 23300 35200 37500 46200 69200 82500 109000 142000
2020-11-18 16:30 12.27 48700 144000 (2020) 21300 (2007) 56700 21400 23300 35200 37500 46200 69200 82500 109000 142000
2020-11-18 15:30 12.22 48400 144000 (2020) 21300 (2007) 56700 21400 23300 35200 37500 46200 69200 82500 109000 142000
2020-11-18 14:30 12.26 48600 144000 (2020) 21300 (2007) 56700 21400 23300 35200 37500 46200 69200 82500 109000 142000
2020-11-18 13:30 12.27 48700 144000 (2020) 21300 (2007) 56700 21400 23300 35200 37500 46200 69200 82500 109000 142000
2020-11-18 12:30 12.27 48700 144000 (2020) 21300 (2007) 56700 21400 23300 35200 37500 46200 69200 82500 109000 142000
2020-11-18 11:30 12.29 48800 144000 (2020) 21300 (2007) 56700 21400 23300 35200 37500 46200 69200 82500 109000 142000
2020-11-18 10:30 12.28 48700 144000 (2020) 21300 (2007) 56700 21400 23300 35200 37500 46200 69200 82500 109000 142000
2020-11-18 09:30 12.30 48800 144000 (2020) 21300 (2007) 56700 21400 23300 35200 37500 46200 69200 82500 109000 142000
2020-11-18 08:30 12.34 49000 144000 (2020) 21300 (2007) 56700 21400 23300 35200 37500 46200 69200 82500 109000 142000
2020-11-18 07:30 12.38 49300 144000 (2020) 21300 (2007) 56700 21400 23300 35200 37500 46200 69200 82500 109000 142000
2020-11-18 06:30 12.39 49300 144000 (2020) 21300 (2007) 56700 21400 23300 35200 37500 46200 69200 82500 109000 142000
2020-11-18 05:30 12.37 49200 144000 (2020) 21300 (2007) 56700 21400 23300 35200 37500 46200 69200 82500 109000 142000
2020-11-18 04:30 12.39 49300 144000 (2020) 21300 (2007) 56700 21400 23300 35200 37500 46200 69200 82500 109000 142000
2020-11-18 03:30 12.43 49500 144000 (2020) 21300 (2007) 56700 21400 23300 35200 37500 46200 69200 82500 109000 142000
2020-11-18 02:30 12.46 49700 144000 (2020) 21300 (2007) 56700 21400 23300 35200 37500 46200 69200 82500 109000 142000
2020-11-18 01:30 12.48 49800 144000 (2020) 21300 (2007) 56700 21400 23300 35200 37500 46200 69200 82500 109000 142000
2020-11-18 00:30 12.48 49800 144000 (2020) 21300 (2007) 56700 21400 23300 35200 37500 46200 69200 82500 109000 142000
2020-11-17 23:30 12.51 50000 145000 (2020) 21200 (2007) 54700 21300 23400 35600 36800 46400 63100 70400 104000 143000
2020-11-17 22:30 12.51 50000 145000 (2020) 21200 (2007) 54700 21300 23400 35600 36800 46400 63100 70400 104000 143000
2020-11-17 21:30 12.49 49900 145000 (2020) 21200 (2007) 54700 21300 23400 35600 36800 46400 63100 70400 104000 143000
2020-11-17 20:30 12.51 50000 145000 (2020) 21200 (2007) 54700 21300 23400 35600 36800 46400 63100 70400 104000 143000
2020-11-17 19:30 12.52 50000 145000 (2020) 21200 (2007) 54700 21300 23400 35600 36800 46400 63100 70400 104000 143000
2020-11-17 18:30 12.54 50200 145000 (2020) 21200 (2007) 54700 21300 23400 35600 36800 46400 63100 70400 104000 143000
2020-11-17 17:30 12.50 49900 145000 (2020) 21200 (2007) 54700 21300 23400 35600 36800 46400 63100 70400 104000 143000
2020-11-17 16:30 12.50 49900 145000 (2020) 21200 (2007) 54700 21300 23400 35600 36800 46400 63100 70400 104000 143000
2020-11-17 15:30 12.51 50000 145000 (2020) 21200 (2007) 54700 21300 23400 35600 36800 46400 63100 70400 104000 143000
2020-11-17 14:30 12.51 50000 145000 (2020) 21200 (2007) 54700 21300 23400 35600 36800 46400 63100 70400 104000 143000
2020-11-17 13:30 12.54 50200 145000 (2020) 21200 (2007) 54700 21300 23400 35600 36800 46400 63100 70400 104000 143000
2020-11-17 12:30 12.57 50300 145000 (2020) 21200 (2007) 54700 21300 23400 35600 36800 46400 63100 70400 104000 143000
2020-11-17 11:30 12.57 50300 145000 (2020) 21200 (2007) 54700 21300 23400 35600 36800 46400 63100 70400 104000 143000
2020-11-17 10:30 12.58 50400 145000 (2020) 21200 (2007) 54700 21300 23400 35600 36800 46400 63100 70400 104000 143000
2020-11-17 09:30 12.59 50400 145000 (2020) 21200 (2007) 54700 21300 23400 35600 36800 46400 63100 70400 104000 143000
2020-11-17 08:30 12.60 50500 145000 (2020) 21200 (2007) 54700 21300 23400 35600 36800 46400 63100 70400 104000 143000
2020-11-17 07:30 12.59 50400 145000 (2020) 21200 (2007) 54700 21300 23400 35600 36800 46400 63100 70400 104000 143000
2020-11-17 06:30 12.57 50300 145000 (2020) 21200 (2007) 54700 21300 23400 35600 36800 46400 63100 70400 104000 143000
2020-11-17 05:30 12.58 50400 145000 (2020) 21200 (2007) 54700 21300 23400 35600 36800 46400 63100 70400 104000 143000
2020-11-17 04:30 12.57 50300 145000 (2020) 21200 (2007) 54700 21300 23400 35600 36800 46400 63100 70400 104000 143000
2020-11-17 03:30 12.57 50300 145000 (2020) 21200 (2007) 54700 21300 23400 35600 36800 46400 63100 70400 104000 143000
2020-11-17 02:30 12.56 50300 145000 (2020) 21200 (2007) 54700 21300 23400 35600 36800 46400 63100 70400 104000 143000
2020-11-17 01:30 12.56 50300 145000 (2020) 21200 (2007) 54700 21300 23400 35600 36800 46400 63100 70400 104000 143000
2020-11-17 00:30 12.55 50200 145000 (2020) 21200 (2007) 54700 21300 23400 35600 36800 46400 63100 70400 104000 143000
2020-11-16 23:30 12.53 50100 146000 (2020) 21000 (2007) 54100 21100 23600 36200 36600 46600 56500 63500 105000 144000
2020-11-16 22:30 12.49 49900 146000 (2020) 21000 (2007) 54100 21100 23600 36200 36600 46600 56500 63500 105000 144000
2020-11-16 21:30 12.52 50000 146000 (2020) 21000 (2007) 54100 21100 23600 36200 36600 46600 56500 63500 105000 144000
2020-11-16 20:30 12.51 50000 146000 (2020) 21000 (2007) 54100 21100 23600 36200 36600 46600 56500 63500 105000 144000
2020-11-16 19:30 12.51 50000 146000 (2020) 21000 (2007) 54100 21100 23600 36200 36600 46600 56500 63500 105000 144000
2020-11-16 18:30 12.50 49900 146000 (2020) 21000 (2007) 54100 21100 23600 36200 36600 46600 56500 63500 105000 144000
2020-11-16 17:30 12.49 49900 146000 (2020) 21000 (2007) 54100 21100 23600 36200 36600 46600 56500 63500 105000 144000
2020-11-16 16:30 12.48 49800 146000 (2020) 21000 (2007) 54100 21100 23600 36200 36600 46600 56500 63500 105000 144000
2020-11-16 15:30 12.47 49800 146000 (2020) 21000 (2007) 54100 21100 23600 36200 36600 46600 56500 63500 105000 144000
2020-11-16 14:30 12.47 49800 146000 (2020) 21000 (2007) 54100 21100 23600 36200 36600 46600 56500 63500 105000 144000
2020-11-16 13:30 12.49 49900 146000 (2020) 21000 (2007) 54100 21100 23600 36200 36600 46600 56500 63500 105000 144000
2020-11-16 12:30 12.50 49900 146000 (2020) 21000 (2007) 54100 21100 23600 36200 36600 46600 56500 63500 105000 144000
2020-11-16 11:30 12.47 49800 146000 (2020) 21000 (2007) 54100 21100 23600 36200 36600 46600 56500 63500 105000 144000
2020-11-16 10:30 12.47 49800 146000 (2020) 21000 (2007) 54100 21100 23600 36200 36600 46600 56500 63500 105000 144000
2020-11-16 09:30 12.47 49800 146000 (2020) 21000 (2007) 54100 21100 23600 36200 36600 46600 56500 63500 105000 144000
2020-11-16 08:30 12.47 49800 146000 (2020) 21000 (2007) 54100 21100 23600 36200 36600 46600 56500 63500 105000 144000
2020-11-16 07:30 12.51 50000 146000 (2020) 21000 (2007) 54100 21100 23600 36200 36600 46600 56500 63500 105000 144000
2020-11-16 06:30 12.54 50200 146000 (2020) 21000 (2007) 54100 21100 23600 36200 36600 46600 56500 63500 105000 144000
2020-11-16 05:30 12.55 50200 146000 (2020) 21000 (2007) 54100 21100 23600 36200 36600 46600 56500 63500 105000 144000
2020-11-16 04:30 12.56 50300 146000 (2020) 21000 (2007) 54100 21100 23600 36200 36600 46600 56500 63500 105000 144000
2020-11-16 03:30 12.52 50000 146000 (2020) 21000 (2007) 54100 21100 23600 36200 36600 46600 56500 63500 105000 144000
2020-11-16 02:30 12.56 50300 146000 (2020) 21000 (2007) 54100 21100 23600 36200 36600 46600 56500 63500 105000 144000
2020-11-16 01:30 12.55 50200 146000 (2020) 21000 (2007) 54100 21100 23600 36200 36600 46600 56500 63500 105000 144000
2020-11-16 00:30 12.56 50300 146000 (2020) 21000 (2007) 54100 21100 23600 36200 36600 46600 56500 63500 105000 144000
2020-11-15 23:30 12.56 50300 146000 (2020) 20900 (2007) 54000 21000 23500 36600 36900 46800 57000 64400 107000 144000
2020-11-15 22:30 12.57 50300 146000 (2020) 20900 (2007) 54000 21000 23500 36600 36900 46800 57000 64400 107000 144000
2020-11-15 21:30 12.58 50400 146000 (2020) 20900 (2007) 54000 21000 23500 36600 36900 46800 57000 64400 107000 144000
2020-11-15 20:30 12.58 50400 146000 (2020) 20900 (2007) 54000 21000 23500 36600 36900 46800 57000 64400 107000 144000
2020-11-15 19:30 12.58 50400 146000 (2020) 20900 (2007) 54000 21000 23500 36600 36900 46800 57000 64400 107000 144000
2020-11-15 18:30 12.57 50300 146000 (2020) 20900 (2007) 54000 21000 23500 36600 36900 46800 57000 64400 107000 144000
2020-11-15 17:30 12.58 50400 146000 (2020) 20900 (2007) 54000 21000 23500 36600 36900 46800 57000 64400 107000 144000
2020-11-15 16:30 12.54 50200 146000 (2020) 20900 (2007) 54000 21000 23500 36600 36900 46800 57000 64400 107000 144000
2020-11-15 15:30 12.55 50200 146000 (2020) 20900 (2007) 54000 21000 23500 36600 36900 46800 57000 64400 107000 144000
2020-11-15 14:30 12.55 50200 146000 (2020) 20900 (2007) 54000 21000 23500 36600 36900 46800 57000 64400 107000 144000
2020-11-15 13:30 12.52 50000 146000 (2020) 20900 (2007) 54000 21000 23500 36600 36900 46800 57000 64400 107000 144000
2020-11-15 12:30 12.52 50000 146000 (2020) 20900 (2007) 54000 21000 23500 36600 36900 46800 57000 64400 107000 144000
2020-11-15 11:30 12.51 50000 146000 (2020) 20900 (2007) 54000 21000 23500 36600 36900 46800 57000 64400 107000 144000
2020-11-15 10:30 12.49 49900 146000 (2020) 20900 (2007) 54000 21000 23500 36600 36900 46800 57000 64400 107000 144000
2020-11-15 09:30 12.50 49900 146000 (2020) 20900 (2007) 54000 21000 23500 36600 36900 46800 57000 64400 107000 144000
2020-11-15 08:30 12.50 49900 146000 (2020) 20900 (2007) 54000 21000 23500 36600 36900 46800 57000 64400 107000 144000
2020-11-15 07:30 12.48 49800 146000 (2020) 20900 (2007) 54000 21000 23500 36600 36900 46800 57000 64400 107000 144000
2020-11-15 06:30 12.47 49800 146000 (2020) 20900 (2007) 54000 21000 23500 36600 36900 46800 57000 64400 107000 144000
2020-11-15 05:30 12.46 49700 146000 (2020) 20900 (2007) 54000 21000 23500 36600 36900 46800 57000 64400 107000 144000
2020-11-15 04:30 12.47 49800 146000 (2020) 20900 (2007) 54000 21000 23500 36600 36900 46800 57000 64400 107000 144000
2020-11-15 03:30 12.47 49800 146000 (2020) 20900 (2007) 54000 21000 23500 36600 36900 46800 57000 64400 107000 144000
2020-11-15 02:30 12.43 49500 146000 (2020) 20900 (2007) 54000 21000 23500 36600 36900 46800 57000 64400 107000 144000
2020-11-15 01:30 12.44 49600 146000 (2020) 20900 (2007) 54000 21000 23500 36600 36900 46800 57000 64400 107000 144000
2020-11-15 00:30 12.44 49600 146000 (2020) 20900 (2007) 54000 21000 23500 36600 36900 46800 57000 64400 107000 144000
2020-11-14 23:30 12.39 49300 145000 (2020) 20900 (2007) 53800 21000 23200 37000 37100 47100 59000 65500 107000 143000
2020-11-14 22:30 12.41 49400 145000 (2020) 20900 (2007) 53800 21000 23200 37000 37100 47100 59000 65500 107000 143000
2020-11-14 21:30 12.41 49400 145000 (2020) 20900 (2007) 53800 21000 23200 37000 37100 47100 59000 65500 107000 143000
2020-11-14 20:30 12.40 49400 145000 (2020) 20900 (2007) 53800 21000 23200 37000 37100 47100 59000 65500 107000 143000
2020-11-14 19:30 12.32 48900 145000 (2020) 20900 (2007) 53800 21000 23200 37000 37100 47100 59000 65500 107000 143000
2020-11-14 18:30 12.27 48700 145000 (2020) 20900 (2007) 53800 21000 23200 37000 37100 47100 59000 65500 107000 143000
2020-11-14 17:30 12.24 48500 145000 (2020) 20900 (2007) 53800 21000 23200 37000 37100 47100 59000 65500 107000 143000
2020-11-14 16:30 12.24 48500 145000 (2020) 20900 (2007) 53800 21000 23200 37000 37100 47100 59000 65500 107000 143000
2020-11-14 15:30 12.20 48300 145000 (2020) 20900 (2007) 53800 21000 23200 37000 37100 47100 59000 65500 107000 143000
2020-11-14 14:30 12.20 48300 145000 (2020) 20900 (2007) 53800 21000 23200 37000 37100 47100 59000 65500 107000 143000
2020-11-14 13:30 12.17 48100 145000 (2020) 20900 (2007) 53800 21000 23200 37000 37100 47100 59000 65500 107000 143000
2020-11-14 12:30 12.19 48200 145000 (2020) 20900 (2007) 53800 21000 23200 37000 37100 47100 59000 65500 107000 143000
2020-11-14 11:30 12.16 48100 145000 (2020) 20900 (2007) 53800 21000 23200 37000 37100 47100 59000 65500 107000 143000
2020-11-14 10:30 12.13 47900 145000 (2020) 20900 (2007) 53800 21000 23200 37000 37100 47100 59000 65500 107000 143000
2020-11-14 09:30 12.15 48000 145000 (2020) 20900 (2007) 53800 21000 23200 37000 37100 47100 59000 65500 107000 143000
2020-11-14 08:30 12.13 47900 145000 (2020) 20900 (2007) 53800 21000 23200 37000 37100 47100 59000 65500 107000 143000
2020-11-14 07:30 12.12 47800 145000 (2020) 20900 (2007) 53800 21000 23200 37000 37100 47100 59000 65500 107000 143000
2020-11-14 06:30 12.12 47800 145000 (2020) 20900 (2007) 53800 21000 23200 37000 37100 47100 59000 65500 107000 143000
2020-11-14 05:30 12.10 47700 145000 (2020) 20900 (2007) 53800 21000 23200 37000 37100 47100 59000 65500 107000 143000
2020-11-14 04:30 12.04 47400 145000 (2020) 20900 (2007) 53800 21000 23200 37000 37100 47100 59000 65500 107000 143000
2020-11-14 03:30 12.01 47300 145000 (2020) 20900 (2007) 53800 21000 23200 37000 37100 47100 59000 65500 107000 143000
2020-11-14 02:30 11.99 47100 145000 (2020) 20900 (2007) 53800 21000 23200 37000 37100 47100 59000 65500 107000 143000
2020-11-14 01:30 12.02 47300 145000 (2020) 20900 (2007) 53800 21000 23200 37000 37100 47100 59000 65500 107000 143000
2020-11-14 00:30 11.99 47100 145000 (2020) 20900 (2007) 53800 21000 23200 37000 37100 47100 59000 65500 107000 143000
2020-11-13 23:30 11.98 47100 143000 (2020) 21000 (2007) 54000 21100 22900 37200 37400 47800 61100 67500 108000 141000
2020-11-13 22:30 11.99 47100 143000 (2020) 21000 (2007) 54000 21100 22900 37200 37400 47800 61100 67500 108000 141000
2020-11-13 21:30 11.99 47100 143000 (2020) 21000 (2007) 54000 21100 22900 37200 37400 47800 61100 67500 108000 141000
2020-11-13 20:30 11.97 47000 143000 (2020) 21000 (2007) 54000 21100 22900 37200 37400 47800 61100 67500 108000 141000
2020-11-13 19:30 11.98 47100 143000 (2020) 21000 (2007) 54000 21100 22900 37200 37400 47800 61100 67500 108000 141000
2020-11-13 18:30 11.94 46900 143000 (2020) 21000 (2007) 54000 21100 22900 37200 37400 47800 61100 67500 108000 141000
2020-11-13 17:30 11.94 46900 143000 (2020) 21000 (2007) 54000 21100 22900 37200 37400 47800 61100 67500 108000 141000
2020-11-13 16:30 11.92 46800 143000 (2020) 21000 (2007) 54000 21100 22900 37200 37400 47800 61100 67500 108000 141000
2020-11-13 15:30 11.91 46700 143000 (2020) 21000 (2007) 54000 21100 22900 37200 37400 47800 61100 67500 108000 141000
2020-11-13 14:30 11.85 46400 143000 (2020) 21000 (2007) 54000 21100 22900 37200 37400 47800 61100 67500 108000 141000
2020-11-13 13:30 11.89 46600 143000 (2020) 21000 (2007) 54000 21100 22900 37200 37400 47800 61100 67500 108000 141000
2020-11-13 12:30 11.90 46700 143000 (2020) 21000 (2007) 54000 21100 22900 37200 37400 47800 61100 67500 108000 141000
2020-11-13 11:30 11.89 46600 143000 (2020) 21000 (2007) 54000 21100 22900 37200 37400 47800 61100 67500 108000 141000
2020-11-13 10:30 11.91 46700 143000 (2020) 21000 (2007) 54000 21100 22900 37200 37400 47800 61100 67500 108000 141000
2020-11-13 09:30 11.92 46800 143000 (2020) 21000 (2007) 54000 21100 22900 37200 37400 47800 61100 67500 108000 141000
2020-11-13 08:30 11.92 46800 143000 (2020) 21000 (2007) 54000 21100 22900 37200 37400 47800 61100 67500 108000 141000
2020-11-13 07:30 11.91 46700 143000 (2020) 21000 (2007) 54000 21100 22900 37200 37400 47800 61100 67500 108000 141000
2020-11-13 06:30 11.92 46800 143000 (2020) 21000 (2007) 54000 21100 22900 37200 37400 47800 61100 67500 108000 141000
2020-11-13 05:30 11.90 46700 143000 (2020) 21000 (2007) 54000 21100 22900 37200 37400 47800 61100 67500 108000 141000
2020-11-13 04:30 11.92 46800 143000 (2020) 21000 (2007) 54000 21100 22900 37200 37400 47800 61100 67500 108000 141000
2020-11-13 03:30 11.92 46800 143000 (2020) 21000 (2007) 54000 21100 22900 37200 37400 47800 61100 67500 108000 141000
2020-11-13 02:30 11.91 46700 143000 (2020) 21000 (2007) 54000 21100 22900 37200 37400 47800 61100 67500 108000 141000
2020-11-13 01:30 11.93 46800 143000 (2020) 21000 (2007) 54000 21100 22900 37200 37400 47800 61100 67500 108000 141000
2020-11-13 00:30 11.91 46700 143000 (2020) 21000 (2007) 54000 21100 22900 37200 37400 47800 61100 67500 108000 141000
2020-11-12 23:30 11.87 46500 142000 (2020) 21200 (2007) 54200 21200 22700 37200 38000 48700 62600 69700 106000 140000
2020-11-12 22:30 11.91 46700 142000 (2020) 21200 (2007) 54200 21200 22700 37200 38000 48700 62600 69700 106000 140000
2020-11-12 21:30 11.86 46500 142000 (2020) 21200 (2007) 54200 21200 22700 37200 38000 48700 62600 69700 106000 140000
2020-11-12 20:30 11.85 46400 142000 (2020) 21200 (2007) 54200 21200 22700 37200 38000 48700 62600 69700 106000 140000
2020-11-12 19:30 11.90 46700 142000 (2020) 21200 (2007) 54200 21200 22700 37200 38000 48700 62600 69700 106000 140000
2020-11-12 18:30 11.88 46600 142000 (2020) 21200 (2007) 54200 21200 22700 37200 38000 48700 62600 69700 106000 140000
2020-11-12 17:30 11.87 46500 142000 (2020) 21200 (2007) 54200 21200 22700 37200 38000 48700 62600 69700 106000 140000
2020-11-12 16:30 11.86 46500 142000 (2020) 21200 (2007) 54200 21200 22700 37200 38000 48700 62600 69700 106000 140000
2020-11-12 15:30 11.80 46100 142000 (2020) 21200 (2007) 54200 21200 22700 37200 38000 48700 62600 69700 106000 140000
2020-11-12 14:30 11.78 46000 142000 (2020) 21200 (2007) 54200 21200 22700 37200 38000 48700 62600 69700 106000 140000
2020-11-12 13:30 11.81 46200 142000 (2020) 21200 (2007) 54200 21200 22700 37200 38000 48700 62600 69700 106000 140000
2020-11-12 12:30 11.77 46000 142000 (2020) 21200 (2007) 54200 21200 22700 37200 38000 48700 62600 69700 106000 140000
2020-11-12 11:30 11.75 45900 142000 (2020) 21200 (2007) 54200 21200 22700 37200 38000 48700 62600 69700 106000 140000
2020-11-12 10:30 11.73 45800 142000 (2020) 21200 (2007) 54200 21200 22700 37200 38000 48700 62600 69700 106000 140000
2020-11-12 09:30 11.76 45900 142000 (2020) 21200 (2007) 54200 21200 22700 37200 38000 48700 62600 69700 106000 140000
2020-11-12 08:30 11.80 46100 142000 (2020) 21200 (2007) 54200 21200 22700 37200 38000 48700 62600 69700 106000 140000
2020-11-12 07:30 11.82 46200 142000 (2020) 21200 (2007) 54200 21200 22700 37200 38000 48700 62600 69700 106000 140000
2020-11-12 06:30 11.81 46200 142000 (2020) 21200 (2007) 54200 21200 22700 37200 38000 48700 62600 69700 106000 140000
2020-11-12 05:30 11.80 46100 142000 (2020) 21200 (2007) 54200 21200 22700 37200 38000 48700 62600 69700 106000 140000
2020-11-12 04:30 11.79 46100 142000 (2020) 21200 (2007) 54200 21200 22700 37200 38000 48700 62600 69700 106000 140000
2020-11-12 03:30 11.78 46000 142000 (2020) 21200 (2007) 54200 21200 22700 37200 38000 48700 62600 69700 106000 140000
2020-11-12 02:30 11.78 46000 142000 (2020) 21200 (2007) 54200 21200 22700 37200 38000 48700 62600 69700 106000 140000
2020-11-12 01:30 11.78 46000 142000 (2020) 21200 (2007) 54200 21200 22700 37200 38000 48700 62600 69700 106000 140000
2020-11-12 00:30 11.77 46000 142000 (2020) 21200 (2007) 54200 21200 22700 37200 38000 48700 62600 69700 106000 140000
2020-11-11 23:30 11.77 46000 141000 (2020) 21300 (2007) 54600 21300 22600 37100 38700 49200 63300 70800 106000 139000
2020-11-11 22:30 11.76 45900 141000 (2020) 21300 (2007) 54600 21300 22600 37100 38700 49200 63300 70800 106000 139000
2020-11-11 21:30 11.76 45900 141000 (2020) 21300 (2007) 54600 21300 22600 37100 38700 49200 63300 70800 106000 139000
2020-11-11 20:30 11.75 45900 141000 (2020) 21300 (2007) 54600 21300 22600 37100 38700 49200 63300 70800 106000 139000
2020-11-11 19:30 11.73 45800 141000 (2020) 21300 (2007) 54600 21300 22600 37100 38700 49200 63300 70800 106000 139000
2020-11-11 18:30 11.72 45700 141000 (2020) 21300 (2007) 54600 21300 22600 37100 38700 49200 63300 70800 106000 139000
2020-11-11 17:30 11.70 45600 141000 (2020) 21300 (2007) 54600 21300 22600 37100 38700 49200 63300 70800 106000 139000
2020-11-11 16:30 11.67 45500 141000 (2020) 21300 (2007) 54600 21300 22600 37100 38700 49200 63300 70800 106000 139000
2020-11-11 15:30 11.67 45500 141000 (2020) 21300 (2007) 54600 21300 22600 37100 38700 49200 63300 70800 106000 139000
2020-11-11 14:30 11.66 45400 141000 (2020) 21300 (2007) 54600 21300 22600 37100 38700 49200 63300 70800 106000 139000
2020-11-11 13:30 11.64 45300 141000 (2020) 21300 (2007) 54600 21300 22600 37100 38700 49200 63300 70800 106000 139000
2020-11-11 12:30 11.66 45400 141000 (2020) 21300 (2007) 54600 21300 22600 37100 38700 49200 63300 70800 106000 139000
2020-11-11 11:30 11.66 45400 141000 (2020) 21300 (2007) 54600 21300 22600 37100 38700 49200 63300 70800 106000 139000
2020-11-11 10:30 11.68 45500 141000 (2020) 21300 (2007) 54600 21300 22600 37100 38700 49200 63300 70800 106000 139000
2020-11-11 09:30 11.70 45600 141000 (2020) 21300 (2007) 54600 21300 22600 37100 38700 49200 63300 70800 106000 139000
2020-11-11 08:30 11.71 45700 141000 (2020) 21300 (2007) 54600 21300 22600 37100 38700 49200 63300 70800 106000 139000
2020-11-11 07:30 11.71 45700 141000 (2020) 21300 (2007) 54600 21300 22600 37100 38700 49200 63300 70800 106000 139000
2020-11-11 06:30 11.71 45700 141000 (2020) 21300 (2007) 54600 21300 22600 37100 38700 49200 63300 70800 106000 139000
2020-11-11 05:30 11.72 45700 141000 (2020) 21300 (2007) 54600 21300 22600 37100 38700 49200 63300 70800 106000 139000
2020-11-11 04:30 11.71 45700 141000 (2020) 21300 (2007) 54600 21300 22600 37100 38700 49200 63300 70800 106000 139000
2020-11-11 03:30 11.72 45700 141000 (2020) 21300 (2007) 54600 21300 22600 37100 38700 49200 63300 70800 106000 139000
2020-11-11 02:30 11.73 45800 141000 (2020) 21300 (2007) 54600 21300 22600 37100 38700 49200 63300 70800 106000 139000
2020-11-11 01:30 11.73 45800 141000 (2020) 21300 (2007) 54600 21300 22600 37100 38700 49200 63300 70800 106000 139000
2020-11-11 00:30 11.74 45800 141000 (2020) 21300 (2007) 54600 21300 22600 37100 38700 49200 63300 70800 106000 139000
2020-11-10 23:30 11.75 45900 141000 (2020) 21300 (2007) 55300 21300 22800 37200 39300 49000 63800 70900 106000 139000
2020-11-10 22:30 11.75 45900 141000 (2020) 21300 (2007) 55300 21300 22800 37200 39300 49000 63800 70900 106000 139000
2020-11-10 21:30 11.75 45900 141000 (2020) 21300 (2007) 55300 21300 22800 37200 39300 49000 63800 70900 106000 139000
2020-11-10 20:30 11.72 45700 141000 (2020) 21300 (2007) 55300 21300 22800 37200 39300 49000 63800 70900 106000 139000
2020-11-10 19:30 11.71 45700 141000 (2020) 21300 (2007) 55300 21300 22800 37200 39300 49000 63800 70900 106000 139000
2020-11-10 18:30 11.71 45700 141000 (2020) 21300 (2007) 55300 21300 22800 37200 39300 49000 63800 70900 106000 139000
2020-11-10 17:30 11.70 45600 141000 (2020) 21300 (2007) 55300 21300 22800 37200 39300 49000 63800 70900 106000 139000
2020-11-10 16:30 11.69 45600 141000 (2020) 21300 (2007) 55300 21300 22800 37200 39300 49000 63800 70900 106000 139000
2020-11-10 15:30 11.70 45600 141000 (2020) 21300 (2007) 55300 21300 22800 37200 39300 49000 63800 70900 106000 139000
2020-11-10 14:30 11.69 45600 141000 (2020) 21300 (2007) 55300 21300 22800 37200 39300 49000 63800 70900 106000 139000
2020-11-10 13:30 11.71 45700 141000 (2020) 21300 (2007) 55300 21300 22800 37200 39300 49000 63800 70900 106000 139000
2020-11-10 12:30 11.65 45400 141000 (2020) 21300 (2007) 55300 21300 22800 37200 39300 49000 63800 70900 106000 139000
2020-11-10 11:30 11.63 45300 141000 (2020) 21300 (2007) 55300 21300 22800 37200 39300 49000 63800 70900 106000 139000
2020-11-10 10:30 11.57 44900 141000 (2020) 21300 (2007) 55300 21300 22800 37200 39300 49000 63800 70900 106000 139000
2020-11-10 09:30 11.58 45000 141000 (2020) 21300 (2007) 55300 21300 22800 37200 39300 49000 63800 70900 106000 139000
2020-11-10 08:30 11.57 44900 141000 (2020) 21300 (2007) 55300 21300 22800 37200 39300 49000 63800 70900 106000 139000
2020-11-10 07:30 11.56 44900 141000 (2020) 21300 (2007) 55300 21300 22800 37200 39300 49000 63800 70900 106000 139000
2020-11-10 06:30 11.56 44900 141000 (2020) 21300 (2007) 55300 21300 22800 37200 39300 49000 63800 70900 106000 139000
2020-11-10 05:30 11.56 44900 141000 (2020) 21300 (2007) 55300 21300 22800 37200 39300 49000 63800 70900 106000 139000
2020-11-10 04:30 11.55 44800 141000 (2020) 21300 (2007) 55300 21300 22800 37200 39300 49000 63800 70900 106000 139000
2020-11-10 03:30 11.57 44900 141000 (2020) 21300 (2007) 55300 21300 22800 37200 39300 49000 63800 70900 106000 139000
2020-11-10 02:30 11.60 45100 141000 (2020) 21300 (2007) 55300 21300 22800 37200 39300 49000 63800 70900 106000 139000
2020-11-10 01:30 11.59 45100 141000 (2020) 21300 (2007) 55300 21300 22800 37200 39300 49000 63800 70900 106000 139000
2020-11-10 00:30 11.59 45100 141000 (2020) 21300 (2007) 55300 21300 22800 37200 39300 49000 63800 70900 106000 139000
2020-11-09 23:30 11.61 45200 140000 (2020) 21300 (2007) 56100 21300 23100 37600 40500 49100 68900 71100 106000 139000
2020-11-09 22:30 11.61 45200 140000 (2020) 21300 (2007) 56100 21300 23100 37600 40500 49100 68900 71100 106000 139000
2020-11-09 21:30 11.59 45100 140000 (2020) 21300 (2007) 56100 21300 23100 37600 40500 49100 68900 71100 106000 139000
2020-11-09 20:30 11.61 45200 140000 (2020) 21300 (2007) 56100 21300 23100 37600 40500 49100 68900 71100 106000 139000
2020-11-09 19:30 11.61 45200 140000 (2020) 21300 (2007) 56100 21300 23100 37600 40500 49100 68900 71100 106000 139000
2020-11-09 18:30 11.60 45100 140000 (2020) 21300 (2007) 56100 21300 23100 37600 40500 49100 68900 71100 106000 139000
2020-11-09 17:30 11.62 45200 140000 (2020) 21300 (2007) 56100 21300 23100 37600 40500 49100 68900 71100 106000 139000
2020-11-09 16:30 11.68 45500 140000 (2020) 21300 (2007) 56100 21300 23100 37600 40500 49100 68900 71100 106000 139000
2020-11-09 15:30 11.64 45300 140000 (2020) 21300 (2007) 56100 21300 23100 37600 40500 49100 68900 71100 106000 139000
2020-11-09 14:30 11.64 45300 140000 (2020) 21300 (2007) 56100 21300 23100 37600 40500 49100 68900 71100 106000 139000
2020-11-09 13:30 11.64 45300 140000 (2020) 21300 (2007) 56100 21300 23100 37600 40500 49100 68900 71100 106000 139000
2020-11-09 12:30 11.64 45300 140000 (2020) 21300 (2007) 56100 21300 23100 37600 40500 49100 68900 71100 106000 139000
2020-11-09 11:30 11.66 45400 140000 (2020) 21300 (2007) 56100 21300 23100 37600 40500 49100 68900 71100 106000 139000
2020-11-09 10:30 11.62 45200 140000 (2020) 21300 (2007) 56100 21300 23100 37600 40500 49100 68900 71100 106000 139000
2020-11-09 09:30 11.61 45200 140000 (2020) 21300 (2007) 56100 21300 23100 37600 40500 49100 68900 71100 106000 139000
2020-11-09 08:30 11.62 45200 140000 (2020) 21300 (2007) 56100 21300 23100 37600 40500 49100 68900 71100 106000 139000
2020-11-09 07:30 11.64 45300 140000 (2020) 21300 (2007) 56100 21300 23100 37600 40500 49100 68900 71100 106000 139000
2020-11-09 06:30 11.66 45400 140000 (2020) 21300 (2007) 56100 21300 23100 37600 40500 49100 68900 71100 106000 139000
2020-11-09 05:30 11.67 45500 140000 (2020) 21300 (2007) 56100 21300 23100 37600 40500 49100 68900 71100 106000 139000
2020-11-09 04:30 11.65 45400 140000 (2020) 21300 (2007) 56100 21300 23100 37600 40500 49100 68900 71100 106000 139000
2020-11-09 03:30 11.65 45400 140000 (2020) 21300 (2007) 56100 21300 23100 37600 40500 49100 68900 71100 106000 139000
2020-11-09 02:30 11.69 45600 140000 (2020) 21300 (2007) 56100 21300 23100 37600 40500 49100 68900 71100 106000 139000
2020-11-09 01:30 11.70 45600 140000 (2020) 21300 (2007) 56100 21300 23100 37600 40500 49100 68900 71100 106000 139000
2020-11-09 00:30 11.67 45500 140000 (2020) 21300 (2007) 56100 21300 23100 37600 40500 49100 68900 71100 106000 139000
2020-11-08 23:30 11.67 45500 139000 (2020) 21600 (2007) 57200 21600 23400 38800 41400 49600 65400 73200 108000 138000
2020-11-08 22:30 11.65 45400 139000 (2020) 21600 (2007) 57200 21600 23400 38800 41400 49600 65400 73200 108000 138000
2020-11-08 21:30 11.64 45300 139000 (2020) 21600 (2007) 57200 21600 23400 38800 41400 49600 65400 73200 108000 138000
2020-11-08 20:30 11.65 45400 139000 (2020) 21600 (2007) 57200 21600 23400 38800 41400 49600 65400 73200 108000 138000
2020-11-08 19:30 11.64 45300 139000 (2020) 21600 (2007) 57200 21600 23400 38800 41400 49600 65400 73200 108000 138000
2020-11-08 18:30 11.65 45400 139000 (2020) 21600 (2007) 57200 21600 23400 38800 41400 49600 65400 73200 108000 138000
2020-11-08 17:30 11.69 45600 139000 (2020) 21600 (2007) 57200 21600 23400 38800 41400 49600 65400 73200 108000 138000
2020-11-08 16:30 11.61 45200 139000 (2020) 21600 (2007) 57200 21600 23400 38800 41400 49600 65400 73200 108000 138000
2020-11-08 15:30 11.63 45300 139000 (2020) 21600 (2007) 57200 21600 23400 38800 41400 49600 65400 73200 108000 138000
2020-11-08 14:30 11.60 45100 139000 (2020) 21600 (2007) 57200 21600 23400 38800 41400 49600 65400 73200 108000 138000
2020-11-08 13:30 11.62 45200 139000 (2020) 21600 (2007) 57200 21600 23400 38800 41400 49600 65400 73200 108000 138000
2020-11-08 12:30 11.62 45200 139000 (2020) 21600 (2007) 57200 21600 23400 38800 41400 49600 65400 73200 108000 138000
2020-11-08 11:30 11.67 45500 139000 (2020) 21600 (2007) 57200 21600 23400 38800 41400 49600 65400 73200 108000 138000
2020-11-08 10:30 11.65 45400 139000 (2020) 21600 (2007) 57200 21600 23400 38800 41400 49600 65400 73200 108000 138000
2020-11-08 09:30 11.63 45300 139000 (2020) 21600 (2007) 57200 21600 23400 38800 41400 49600 65400 73200 108000 138000
2020-11-08 08:30 11.66 45400 139000 (2020) 21600 (2007) 57200 21600 23400 38800 41400 49600 65400 73200 108000 138000
2020-11-08 07:30 11.65 45400 139000 (2020) 21600 (2007) 57200 21600 23400 38800 41400 49600 65400 73200 108000 138000
2020-11-08 06:30 11.68 45500 139000 (2020) 21600 (2007) 57200 21600 23400 38800 41400 49600 65400 73200 108000 138000
2020-11-08 05:30 11.72 45700 139000 (2020) 21600 (2007) 57200 21600 23400 38800 41400 49600 65400 73200 108000 138000
2020-11-08 04:30 11.68 45500 139000 (2020) 21600 (2007) 57200 21600 23400 38800 41400 49600 65400 73200 108000 138000
2020-11-08 03:30 11.69 45600 139000 (2020) 21600 (2007) 57200 21600 23400 38800 41400 49600 65400 73200 108000 138000
2020-11-08 02:30 11.69 45600 139000 (2020) 21600 (2007) 57200 21600 23400 38800 41400 49600 65400 73200 108000 138000
2020-11-08 01:30 11.69 45600 139000 (2020) 21600 (2007) 57200 21600 23400 38800 41400 49600 65400 73200 108000 138000
2020-11-08 00:30 11.70 45600 139000 (2020) 21600 (2007) 57200 21600 23400 38800 41400 49600 65400 73200 108000 138000
2020-11-07 23:30 11.71 45700 138000 (2020) 21800 (2007) 57200 21800 23800 39800 42500 48300 66000 73900 108000 137000
2020-11-07 22:30 11.71 45700 138000 (2020) 21800 (2007) 57200 21800 23800 39800 42500 48300 66000 73900 108000 137000
2020-11-07 21:30 11.73 45800 138000 (2020) 21800 (2007) 57200 21800 23800 39800 42500 48300 66000 73900 108000 137000
2020-11-07 20:30 11.76 45900 138000 (2020) 21800 (2007) 57200 21800 23800 39800 42500 48300 66000 73900 108000 137000
2020-11-07 19:30 11.76 45900 138000 (2020) 21800 (2007) 57200 21800 23800 39800 42500 48300 66000 73900 108000 137000
2020-11-07 18:30 11.75 45900 138000 (2020) 21800 (2007) 57200 21800 23800 39800 42500 48300 66000 73900 108000 137000
2020-11-07 17:30 11.74 45800 138000 (2020) 21800 (2007) 57200 21800 23800 39800 42500 48300 66000 73900 108000 137000
2020-11-07 16:30 11.72 45700 138000 (2020) 21800 (2007) 57200 21800 23800 39800 42500 48300 66000 73900 108000 137000
2020-11-07 15:30 11.68 45500 138000 (2020) 21800 (2007) 57200 21800 23800 39800 42500 48300 66000 73900 108000 137000
2020-11-07 14:30 11.65 45400 138000 (2020) 21800 (2007) 57200 21800 23800 39800 42500 48300 66000 73900 108000 137000
2020-11-07 13:30 11.67 45500 138000 (2020) 21800 (2007) 57200 21800 23800 39800 42500 48300 66000 73900 108000 137000
2020-11-07 12:30 11.66 45400 138000 (2020) 21800 (2007) 57200 21800 23800 39800 42500 48300 66000 73900 108000 137000
2020-11-07 11:30 11.69 45600 138000 (2020) 21800 (2007) 57200 21800 23800 39800 42500 48300 66000 73900 108000 137000
2020-11-07 10:30 11.69 45600 138000 (2020) 21800 (2007) 57200 21800 23800 39800 42500 48300 66000 73900 108000 137000
2020-11-07 09:30 11.69 45600 138000 (2020) 21800 (2007) 57200 21800 23800 39800 42500 48300 66000 73900 108000 137000
2020-11-07 08:30 11.71 45700 138000 (2020) 21800 (2007) 57200 21800 23800 39800 42500 48300 66000 73900 108000 137000
2020-11-07 07:30 11.77 46000 138000 (2020) 21800 (2007) 57200 21800 23800 39800 42500 48300 66000 73900 108000 137000
2020-11-07 06:30 11.78 46000 138000 (2020) 21800 (2007) 57200 21800 23800 39800 42500 48300 66000 73900 108000 137000
2020-11-07 05:30 11.78 46000 138000 (2020) 21800 (2007) 57200 21800 23800 39800 42500 48300 66000 73900 108000 137000
2020-11-07 04:30 11.78 46000 138000 (2020) 21800 (2007) 57200 21800 23800 39800 42500 48300 66000 73900 108000 137000
2020-11-07 03:30 11.76 45900 138000 (2020) 21800 (2007) 57200 21800 23800 39800 42500 48300 66000 73900 108000 137000
2020-11-07 02:30 11.77 46000 138000 (2020) 21800 (2007) 57200 21800 23800 39800 42500 48300 66000 73900 108000 137000
2020-11-07 01:30 11.76 45900 138000 (2020) 21800 (2007) 57200 21800 23800 39800 42500 48300 66000 73900 108000 137000
2020-11-07 00:30 11.77 46000 138000 (2020) 21800 (2007) 57200 21800 23800 39800 42500 48300 66000 73900 108000 137000
2020-11-06 23:30 11.75 45900 137000 (2020) 21800 (2007) 56100 21800 24100 40400 42700 48200 65300 67300 107000 136000
2020-11-06 22:30 11.75 45900 137000 (2020) 21800 (2007) 56100 21800 24100 40400 42700 48200 65300 67300 107000 136000
2020-11-06 21:30 11.73 45800 137000 (2020) 21800 (2007) 56100 21800 24100 40400 42700 48200 65300 67300 107000 136000
2020-11-06 20:30 11.71 45700 137000 (2020) 21800 (2007) 56100 21800 24100 40400 42700 48200 65300 67300 107000 136000
2020-11-06 19:30 11.74 45800 137000 (2020) 21800 (2007) 56100 21800 24100 40400 42700 48200 65300 67300 107000 136000
2020-11-06 18:30 11.72 45700 137000 (2020) 21800 (2007) 56100 21800 24100 40400 42700 48200 65300 67300 107000 136000
2020-11-06 17:30 11.71 45700 137000 (2020) 21800 (2007) 56100 21800 24100 40400 42700 48200 65300 67300 107000 136000
2020-11-06 16:30 11.70 45600 137000 (2020) 21800 (2007) 56100 21800 24100 40400 42700 48200 65300 67300 107000 136000
2020-11-06 15:30 11.66 45400 137000 (2020) 21800 (2007) 56100 21800 24100 40400 42700 48200 65300 67300 107000 136000
2020-11-06 14:30 11.61 45200 137000 (2020) 21800 (2007) 56100 21800 24100 40400 42700 48200 65300 67300 107000 136000
2020-11-06 13:30 11.65 45400 137000 (2020) 21800 (2007) 56100 21800 24100 40400 42700 48200 65300 67300 107000 136000
2020-11-06 12:30 11.66 45400 137000 (2020) 21800 (2007) 56100 21800 24100 40400 42700 48200 65300 67300 107000 136000
2020-11-06 11:30 11.67 45500 137000 (2020) 21800 (2007) 56100 21800 24100 40400 42700 48200 65300 67300 107000 136000
2020-11-06 10:30 11.67 45500 137000 (2020) 21800 (2007) 56100 21800 24100 40400 42700 48200 65300 67300 107000 136000
2020-11-06 09:30 11.68 45500 137000 (2020) 21800 (2007) 56100 21800 24100 40400 42700 48200 65300 67300 107000 136000
2020-11-06 08:30 11.69 45600 137000 (2020) 21800 (2007) 56100 21800 24100 40400 42700 48200 65300 67300 107000 136000
2020-11-06 07:30 11.72 45700 137000 (2020) 21800 (2007) 56100 21800 24100 40400 42700 48200 65300 67300 107000 136000
2020-11-06 06:30 11.72 45700 137000 (2020) 21800 (2007) 56100 21800 24100 40400 42700 48200 65300 67300 107000 136000
2020-11-06 05:30 11.71 45700 137000 (2020) 21800 (2007) 56100 21800 24100 40400 42700 48200 65300 67300 107000 136000
2020-11-06 04:30 11.69 45600 137000 (2020) 21800 (2007) 56100 21800 24100 40400 42700 48200 65300 67300 107000 136000
2020-11-06 03:30 11.69 45600 137000 (2020) 21800 (2007) 56100 21800 24100 40400 42700 48200 65300 67300 107000 136000
2020-11-06 02:30 11.67 45500 137000 (2020) 21800 (2007) 56100 21800 24100 40400 42700 48200 65300 67300 107000 136000
2020-11-06 01:30 11.67 45500 137000 (2020) 21800 (2007) 56100 21800 24100 40400 42700 48200 65300 67300 107000 136000
2020-11-06 00:30 11.66 45400 137000 (2020) 21800 (2007) 56100 21800 24100 40400 42700 48200 65300 67300 107000 136000
2020-11-05 23:30 11.66 45400 138000 (2020) 22000 (2007) 56600 22000 24100 40600 42600 49300 66500 70100 106000 137000
2020-11-05 22:30 11.64 45300 138000 (2020) 22000 (2007) 56600 22000 24100 40600 42600 49300 66500 70100 106000 137000
2020-11-05 21:30 11.63 45300 138000 (2020) 22000 (2007) 56600 22000 24100 40600 42600 49300 66500 70100 106000 137000
2020-11-05 20:30 11.63 45300 138000 (2020) 22000 (2007) 56600 22000 24100 40600 42600 49300 66500 70100 106000 137000
2020-11-05 19:30 11.62 45200 138000 (2020) 22000 (2007) 56600 22000 24100 40600 42600 49300 66500 70100 106000 137000
2020-11-05 18:30 11.60 45100 138000 (2020) 22000 (2007) 56600 22000 24100 40600 42600 49300 66500 70100 106000 137000
2020-11-05 17:30 11.59 45100 138000 (2020) 22000 (2007) 56600 22000 24100 40600 42600 49300 66500 70100 106000 137000
2020-11-05 16:30 11.58 45000 138000 (2020) 22000 (2007) 56600 22000 24100 40600 42600 49300 66500 70100 106000 137000
2020-11-05 15:30 11.55 44800 138000 (2020) 22000 (2007) 56600 22000 24100 40600 42600 49300 66500 70100 106000 137000
2020-11-05 14:30 11.55 44800 138000 (2020) 22000 (2007) 56600 22000 24100 40600 42600 49300 66500 70100 106000 137000
2020-11-05 13:30 11.51 44600 138000 (2020) 22000 (2007) 56600 22000 24100 40600 42600 49300 66500 70100 106000 137000
2020-11-05 12:30 11.53 44700 138000 (2020) 22000 (2007) 56600 22000 24100 40600 42600 49300 66500 70100 106000 137000
2020-11-05 11:30 11.55 44800 138000 (2020) 22000 (2007) 56600 22000 24100 40600 42600 49300 66500 70100 106000 137000
2020-11-05 10:30 11.55 44800 138000 (2020) 22000 (2007) 56600 22000 24100 40600 42600 49300 66500 70100 106000 137000
2020-11-05 09:30 11.56 44900 138000 (2020) 22000 (2007) 56600 22000 24100 40600 42600 49300 66500 70100 106000 137000
2020-11-05 08:30 11.56 44900 138000 (2020) 22000 (2007) 56600 22000 24100 40600 42600 49300 66500 70100 106000 137000
2020-11-05 07:30 11.56 44900 138000 (2020) 22000 (2007) 56600 22000 24100 40600 42600 49300 66500 70100 106000 137000
2020-11-05 06:30 11.56 44900 138000 (2020) 22000 (2007) 56600 22000 24100 40600 42600 49300 66500 70100 106000 137000
2020-11-05 05:30 11.54 44800 138000 (2020) 22000 (2007) 56600 22000 24100 40600 42600 49300 66500 70100 106000 137000
2020-11-05 04:30 11.56 44900 138000 (2020) 22000 (2007) 56600 22000 24100 40600 42600 49300 66500 70100 106000 137000
2020-11-05 03:30 11.56 44900 138000 (2020) 22000 (2007) 56600 22000 24100 40600 42600 49300 66500 70100 106000 137000
2020-11-05 02:30 11.54 44800 138000 (2020) 22000 (2007) 56600 22000 24100 40600 42600 49300 66500 70100 106000 137000
2020-11-05 01:30 11.55 44800 138000 (2020) 22000 (2007) 56600 22000 24100 40600 42600 49300 66500 70100 106000 137000
2020-11-05 00:30 11.55 44800 138000 (2020) 22000 (2007) 56600 22000 24100 40600 42600 49300 66500 70100 106000 137000
2020-11-04 23:30 11.55 44800 139000 (2020) 22500 (2007) 57500 22500 24400 41200 42400 49900 67100 75100 105000 137000
2020-11-04 22:30 11.55 44800 139000 (2020) 22500 (2007) 57500 22500 24400 41200 42400 49900 67100 75100 105000 137000
2020-11-04 21:30 11.54 44800 139000 (2020) 22500 (2007) 57500 22500 24400 41200 42400 49900 67100 75100 105000 137000
2020-11-04 20:30 11.53 44700 139000 (2020) 22500 (2007) 57500 22500 24400 41200 42400 49900 67100 75100 105000 137000
2020-11-04 19:30 11.51 44600 139000 (2020) 22500 (2007) 57500 22500 24400 41200 42400 49900 67100 75100 105000 137000
2020-11-04 18:30 11.51 44600 139000 (2020) 22500 (2007) 57500 22500 24400 41200 42400 49900 67100 75100 105000 137000
2020-11-04 17:30 11.46 44400 139000 (2020) 22500 (2007) 57500 22500 24400 41200 42400 49900 67100 75100 105000 137000
2020-11-04 16:30 11.43 44200 139000 (2020) 22500 (2007) 57500 22500 24400 41200 42400 49900 67100 75100 105000 137000
2020-11-04 15:30 11.49 44500 139000 (2020) 22500 (2007) 57500 22500 24400 41200 42400 49900 67100 75100 105000 137000
2020-11-04 14:30 11.48 44500 139000 (2020) 22500 (2007) 57500 22500 24400 41200 42400 49900 67100 75100 105000 137000
2020-11-04 13:30 11.46 44400 139000 (2020) 22500 (2007) 57500 22500 24400 41200 42400 49900 67100 75100 105000 137000
2020-11-04 12:30 11.46 44400 139000 (2020) 22500 (2007) 57500 22500 24400 41200 42400 49900 67100 75100 105000 137000
2020-11-04 11:30 11.43 44200 139000 (2020) 22500 (2007) 57500 22500 24400 41200 42400 49900 67100 75100 105000 137000
2020-11-04 10:30 11.46 44400 139000 (2020) 22500 (2007) 57500 22500 24400 41200 42400 49900 67100 75100 105000 137000
2020-11-04 09:30 11.48 44500 139000 (2020) 22500 (2007) 57500 22500 24400 41200 42400 49900 67100 75100 105000 137000
2020-11-04 08:30 11.49 44500 139000 (2020) 22500 (2007) 57500 22500 24400 41200 42400 49900 67100 75100 105000 137000
2020-11-04 07:30 11.46 44400 139000 (2020) 22500 (2007) 57500 22500 24400 41200 42400 49900 67100 75100 105000 137000
2020-11-04 06:30 11.48 44500 139000 (2020) 22500 (2007) 57500 22500 24400 41200 42400 49900 67100 75100 105000 137000
2020-11-04 05:30 11.48 44500 139000 (2020) 22500 (2007) 57500 22500 24400 41200 42400 49900 67100 75100 105000 137000
2020-11-04 04:30 11.49 44500 139000 (2020) 22500 (2007) 57500 22500 24400 41200 42400 49900 67100 75100 105000 137000
2020-11-04 03:30 11.51 44600 139000 (2020) 22500 (2007) 57500 22500 24400 41200 42400 49900 67100 75100 105000 137000
2020-11-04 02:30 11.50 44600 139000 (2020) 22500 (2007) 57500 22500 24400 41200 42400 49900 67100 75100 105000 137000
2020-11-04 01:30 11.53 44700 139000 (2020) 22500 (2007) 57500 22500 24400 41200 42400 49900 67100 75100 105000 137000
2020-11-04 00:30 11.51 44600 139000 (2020) 22500 (2007) 57500 22500 24400 41200 42400 49900 67100 75100 105000 137000
2020-11-03 23:30 11.54 44800 139000 (2020) 23100 (2007) 58900 23100 24900 41500 42600 52100 67700 78100 105000 137000
2020-11-03 22:30 11.55 44800 139000 (2020) 23100 (2007) 58900 23100 24900 41500 42600 52100 67700 78100 105000 137000
2020-11-03 21:30 11.53 44700 139000 (2020) 23100 (2007) 58900 23100 24900 41500 42600 52100 67700 78100 105000 137000
2020-11-03 20:30 11.54 44800 139000 (2020) 23100 (2007) 58900 23100 24900 41500 42600 52100 67700 78100 105000 137000
2020-11-03 19:30 11.53 44700 139000 (2020) 23100 (2007) 58900 23100 24900 41500 42600 52100 67700 78100 105000 137000
2020-11-03 18:30 11.53 44700 139000 (2020) 23100 (2007) 58900 23100 24900 41500 42600 52100 67700 78100 105000 137000
2020-11-03 17:30 11.53 44700 139000 (2020) 23100 (2007) 58900 23100 24900 41500 42600 52100 67700 78100 105000 137000
2020-11-03 16:30 11.53 44700 139000 (2020) 23100 (2007) 58900 23100 24900 41500 42600 52100 67700 78100 105000 137000
2020-11-03 15:30 11.48 44500 139000 (2020) 23100 (2007) 58900 23100 24900 41500 42600 52100 67700 78100 105000 137000
2020-11-03 14:30 11.48 44500 139000 (2020) 23100 (2007) 58900 23100 24900 41500 42600 52100 67700 78100 105000 137000
2020-11-03 13:30 11.48 44500 139000 (2020) 23100 (2007) 58900 23100 24900 41500 42600 52100 67700 78100 105000 137000
2020-11-03 12:30 11.49 44500 139000 (2020) 23100 (2007) 58900 23100 24900 41500 42600 52100 67700 78100 105000 137000
2020-11-03 11:30 11.51 44600 139000 (2020) 23100 (2007) 58900 23100 24900 41500 42600 52100 67700 78100 105000 137000
2020-11-03 10:30 11.55 44800 139000 (2020) 23100 (2007) 58900 23100 24900 41500 42600 52100 67700 78100 105000 137000
2020-11-03 09:30 11.56 44900 139000 (2020) 23100 (2007) 58900 23100 24900 41500 42600 52100 67700 78100 105000 137000
2020-11-03 08:30 11.57 44900 139000 (2020) 23100 (2007) 58900 23100 24900 41500 42600 52100 67700 78100 105000 137000
2020-11-03 07:30 11.61 45200 139000 (2020) 23100 (2007) 58900 23100 24900 41500 42600 52100 67700 78100 105000 137000
2020-11-03 06:30 11.62 45200 139000 (2020) 23100 (2007) 58900 23100 24900 41500 42600 52100 67700 78100 105000 137000
2020-11-03 05:30 11.60 45100 139000 (2020) 23100 (2007) 58900 23100 24900 41500 42600 52100 67700 78100 105000 137000
2020-11-03 04:30 11.64 45300 139000 (2020) 23100 (2007) 58900 23100 24900 41500 42600 52100 67700 78100 105000 137000
2020-11-03 03:30 11.62 45200 139000 (2020) 23100 (2007) 58900 23100 24900 41500 42600 52100 67700 78100 105000 137000
2020-11-03 02:30 11.64 45300 139000 (2020) 23100 (2007) 58900 23100 24900 41500 42600 52100 67700 78100 105000 137000
2020-11-03 01:30 11.64 45300 139000 (2020) 23100 (2007) 58900 23100 24900 41500 42600 52100 67700 78100 105000 137000
2020-11-03 00:30 11.64 45300 139000 (2020) 23100 (2007) 58900 23100 24900 41500 42600 52100 67700 78100 105000 137000
2020-11-02 23:30 11.64 45300 141000 (2020) 24200 (2006) 60300 24200 25300 41100 43200 53500 68600 79300 108000 139000
2020-11-02 22:30 11.63 45300 141000 (2020) 24200 (2006) 60300 24200 25300 41100 43200 53500 68600 79300 108000 139000
2020-11-02 21:30 11.63 45300 141000 (2020) 24200 (2006) 60300 24200 25300 41100 43200 53500 68600 79300 108000 139000
2020-11-02 20:30 11.63 45300 141000 (2020) 24200 (2006) 60300 24200 25300 41100 43200 53500 68600 79300 108000 139000
2020-11-02 19:30 11.62 45200 141000 (2020) 24200 (2006) 60300 24200 25300 41100 43200 53500 68600 79300 108000 139000
2020-11-02 18:30 11.62 45200 141000 (2020) 24200 (2006) 60300 24200 25300 41100 43200 53500 68600 79300 108000 139000
2020-11-02 17:30 11.62 45200 141000 (2020) 24200 (2006) 60300 24200 25300 41100 43200 53500 68600 79300 108000 139000
2020-11-02 16:30 11.62 45200 141000 (2020) 24200 (2006) 60300 24200 25300 41100 43200 53500 68600 79300 108000 139000
2020-11-02 15:30 11.58 45000 141000 (2020) 24200 (2006) 60300 24200 25300 41100 43200 53500 68600 79300 108000 139000
2020-11-02 14:30 11.58 45000 141000 (2020) 24200 (2006) 60300 24200 25300 41100 43200 53500 68600 79300 108000 139000
2020-11-02 13:30 11.57 44900 141000 (2020) 24200 (2006) 60300 24200 25300 41100 43200 53500 68600 79300 108000 139000
2020-11-02 12:30 11.56 44900 141000 (2020) 24200 (2006) 60300 24200 25300 41100 43200 53500 68600 79300 108000 139000
2020-11-02 11:30 11.57 44900 141000 (2020) 24200 (2006) 60300 24200 25300 41100 43200 53500 68600 79300 108000 139000
2020-11-02 10:30 11.59 45100 141000 (2020) 24200 (2006) 60300 24200 25300 41100 43200 53500 68600 79300 108000 139000
2020-11-02 09:30 11.62 45200 141000 (2020) 24200 (2006) 60300 24200 25300 41100 43200 53500 68600 79300 108000 139000
2020-11-02 08:30 11.63 45300 141000 (2020) 24200 (2006) 60300 24200 25300 41100 43200 53500 68600 79300 108000 139000
2020-11-02 07:30 11.71 45700 141000 (2020) 24200 (2006) 60300 24200 25300 41100 43200 53500 68600 79300 108000 139000
2020-11-02 06:30 11.72 45700 141000 (2020) 24200 (2006) 60300 24200 25300 41100 43200 53500 68600 79300 108000 139000
2020-11-02 05:30 11.72 45700 141000 (2020) 24200 (2006) 60300 24200 25300 41100 43200 53500 68600 79300 108000 139000
2020-11-02 04:30 11.72 45700 141000 (2020) 24200 (2006) 60300 24200 25300 41100 43200 53500 68600 79300 108000 139000
2020-11-02 03:30 11.69 45600 141000 (2020) 24200 (2006) 60300 24200 25300 41100 43200 53500 68600 79300 108000 139000
2020-11-02 02:30 11.72 45700 141000 (2020) 24200 (2006) 60300 24200 25300 41100 43200 53500 68600 79300 108000 139000
2020-11-02 01:30 11.72 45700 141000 (2020) 24200 (2006) 60300 24200 25300 41100 43200 53500 68600 79300 108000 139000
2020-11-02 00:30 11.74 45800 141000 (2020) 24200 (2006) 60300 24200 25300 41100 43200 53500 68600 79300 108000 139000
2020-11-01 23:30 11.75 45900 143000 (2020) 24600 (2006) 60800 24700 26900 40700 42000 51000 70400 79900 114000 142000
2020-11-01 22:30 11.76 45900 143000 (2020) 24600 (2006) 60800 24700 26900 40700 42000 51000 70400 79900 114000 142000
2020-11-01 21:30 11.77 46000 143000 (2020) 24600 (2006) 60800 24700 26900 40700 42000 51000 70400 79900 114000 142000
2020-11-01 20:30 11.78 46000 143000 (2020) 24600 (2006) 60800 24700 26900 40700 42000 51000 70400 79900 114000 142000
2020-11-01 19:30 11.79 46100 143000 (2020) 24600 (2006) 60800 24700 26900 40700 42000 51000 70400 79900 114000 142000
2020-11-01 18:30 11.78 46000 143000 (2020) 24600 (2006) 60800 24700 26900 40700 42000 51000 70400 79900 114000 142000
2020-11-01 17:30 11.80 46100 143000 (2020) 24600 (2006) 60800 24700 26900 40700 42000 51000 70400 79900 114000 142000
2020-11-01 16:30 11.81 46200 143000 (2020) 24600 (2006) 60800 24700 26900 40700 42000 51000 70400 79900 114000 142000
2020-11-01 15:30 11.81 46200 143000 (2020) 24600 (2006) 60800 24700 26900 40700 42000 51000 70400 79900 114000 142000
2020-11-01 14:30 11.80 46100 143000 (2020) 24600 (2006) 60800 24700 26900 40700 42000 51000 70400 79900 114000 142000
2020-11-01 13:30 46200 143000 (2020) 24600 (2006) 60800 24700 26900 40700 42000 51000 70400 79900 114000 142000
2020-11-01 10:30 11.82 46200 143000 (2020) 24600 (2006) 60800 24700 26900 40700 42000 51000 70400 79900 114000 142000
2020-11-01 07:30 11.95 46900 143000 (2020) 24600 (2006) 60800 24700 26900 40700 42000 51000 70400 79900 114000 142000
2020-11-01 06:30 11.97 47000 143000 (2020) 24600 (2006) 60800 24700 26900 40700 42000 51000 70400 79900 114000 142000
2020-11-01 05:30 11.99 47100 143000 (2020) 24600 (2006) 60800 24700 26900 40700 42000 51000 70400 79900 114000 142000
2020-11-01 03:30 12.00 47200 143000 (2020) 24600 (2006) 60800 24700 26900 40700 42000 51000 70400 79900 114000 142000
2020-11-01 01:30 47300 143000 (2020) 24600 (2006) 60800 24700 26900 40700 42000 51000 70400 79900 114000 142000
2020-11-01 00:30 12.07 47600 143000 (2020) 24600 (2006) 60800 24700 26900 40700 42000 51000 70400 79900 114000 142000
2020-10-31 23:30 12.07 47600 144000 (2020) 25000 (2006) 61100 25200 29000 36000 41400 50400 73400 80700 123000 143000
2020-10-31 22:30 12.09 47700 144000 (2020) 25000 (2006) 61100 25200 29000 36000 41400 50400 73400 80700 123000 143000
2020-10-31 21:30 12.10 47700 144000 (2020) 25000 (2006) 61100 25200 29000 36000 41400 50400 73400 80700 123000 143000
2020-10-31 20:30 12.11 47800 144000 (2020) 25000 (2006) 61100 25200 29000 36000 41400 50400 73400 80700 123000 143000
2020-10-31 19:30 12.12 47800 144000 (2020) 25000 (2006) 61100 25200 29000 36000 41400 50400 73400 80700 123000 143000
2020-10-31 18:30 12.12 47800 144000 (2020) 25000 (2006) 61100 25200 29000 36000 41400 50400 73400 80700 123000 143000
2020-10-31 17:30 12.05 47500 144000 (2020) 25000 (2006) 61100 25200 29000 36000 41400 50400 73400 80700 123000 143000
2020-10-31 16:30 12.05 47500 144000 (2020) 25000 (2006) 61100 25200 29000 36000 41400 50400 73400 80700 123000 143000
2020-10-31 15:30 12.05 47500 144000 (2020) 25000 (2006) 61100 25200 29000 36000 41400 50400 73400 80700 123000 143000
2020-10-31 14:30 12.05 47500 144000 (2020) 25000 (2006) 61100 25200 29000 36000 41400 50400 73400 80700 123000 143000
2020-10-31 13:30 12.05 47500 144000 (2020) 25000 (2006) 61100 25200 29000 36000 41400 50400 73400 80700 123000 143000
2020-10-31 12:30 12.05 47500 144000 (2020) 25000 (2006) 61100 25200 29000 36000 41400 50400 73400 80700 123000 143000
2020-10-31 11:30 12.06 47500 144000 (2020) 25000 (2006) 61100 25200 29000 36000 41400 50400 73400 80700 123000 143000
2020-10-31 10:30 12.09 47700 144000 (2020) 25000 (2006) 61100 25200 29000 36000 41400 50400 73400 80700 123000 143000
2020-10-31 09:30 12.10 47700 144000 (2020) 25000 (2006) 61100 25200 29000 36000 41400 50400 73400 80700 123000 143000
2020-10-31 08:30 12.13 47900 144000 (2020) 25000 (2006) 61100 25200 29000 36000 41400 50400 73400 80700 123000 143000
2020-10-31 07:30 12.12 47800 144000 (2020) 25000 (2006) 61100 25200 29000 36000 41400 50400 73400 80700 123000 143000
2020-10-31 06:30 12.14 48000 144000 (2020) 25000 (2006) 61100 25200 29000 36000 41400 50400 73400 80700 123000 143000
2020-10-31 05:30 12.15 48000 144000 (2020) 25000 (2006) 61100 25200 29000 36000 41400 50400 73400 80700 123000 143000
2020-10-31 04:30 12.13 47900 144000 (2020) 25000 (2006) 61100 25200 29000 36000 41400 50400 73400 80700 123000 143000
2020-10-31 03:30 12.11 47800 144000 (2020) 25000 (2006) 61100 25200 29000 36000 41400 50400 73400 80700 123000 143000
2020-10-31 02:30 12.12 47800 144000 (2020) 25000 (2006) 61100 25200 29000 36000 41400 50400 73400 80700 123000 143000
2020-10-31 01:30 12.15 48000 144000 (2020) 25000 (2006) 61100 25200 29000 36000 41400 50400 73400 80700 123000 143000
2020-10-31 00:30 12.09 47700 144000 (2020) 25000 (2006) 61100 25200 29000 36000 41400 50400 73400 80700 123000 143000
2020-10-30 23:30 12.12 47800 144000 (2020) 25200 (2006) 61000 25500 31300 36100 41300 50500 76100 80800 112000 142000
2020-10-30 22:30 12.14 48000 144000 (2020) 25200 (2006) 61000 25500 31300 36100 41300 50500 76100 80800 112000 142000
2020-10-30 21:30 12.14 48000 144000 (2020) 25200 (2006) 61000 25500 31300 36100 41300 50500 76100 80800 112000 142000
2020-10-30 20:30 12.13 47900 144000 (2020) 25200 (2006) 61000 25500 31300 36100 41300 50500 76100 80800 112000 142000
2020-10-30 19:30 12.10 47700 144000 (2020) 25200 (2006) 61000 25500 31300 36100 41300 50500 76100 80800 112000 142000
2020-10-30 18:30 12.08 47600 144000 (2020) 25200 (2006) 61000 25500 31300 36100 41300 50500 76100 80800 112000 142000
2020-10-30 17:30 12.06 47500 144000 (2020) 25200 (2006) 61000 25500 31300 36100 41300 50500 76100 80800 112000 142000
2020-10-30 16:30 12.05 47500 144000 (2020) 25200 (2006) 61000 25500 31300 36100 41300 50500 76100 80800 112000 142000
2020-10-30 15:30 12.04 47400 144000 (2020) 25200 (2006) 61000 25500 31300 36100 41300 50500 76100 80800 112000 142000
2020-10-30 14:30 12.04 47400 144000 (2020) 25200 (2006) 61000 25500 31300 36100 41300 50500 76100 80800 112000 142000
2020-10-30 13:30 12.05 47500 144000 (2020) 25200 (2006) 61000 25500 31300 36100 41300 50500 76100 80800 112000 142000
2020-10-30 12:30 12.06 47500 144000 (2020) 25200 (2006) 61000 25500 31300 36100 41300 50500 76100 80800 112000 142000
2020-10-30 11:30 12.07 47600 144000 (2020) 25200 (2006) 61000 25500 31300 36100 41300 50500 76100 80800 112000 142000
2020-10-30 10:30 12.07 47600 144000 (2020) 25200 (2006) 61000 25500 31300 36100 41300 50500 76100 80800 112000 142000
2020-10-30 09:30 12.06 47500 144000 (2020) 25200 (2006) 61000 25500 31300 36100 41300 50500 76100 80800 112000 142000
2020-10-30 08:30 12.05 47500 144000 (2020) 25200 (2006) 61000 25500 31300 36100 41300 50500 76100 80800 112000 142000
2020-10-30 07:30 12.04 47400 144000 (2020) 25200 (2006) 61000 25500 31300 36100 41300 50500 76100 80800 112000 142000
2020-10-30 06:30 12.04 47400 144000 (2020) 25200 (2006) 61000 25500 31300 36100 41300 50500 76100 80800 112000 142000
2020-10-30 05:30 12.03 47400 144000 (2020) 25200 (2006) 61000 25500 31300 36100 41300 50500 76100 80800 112000 142000
2020-10-30 04:30 12.03 47400 144000 (2020) 25200 (2006) 61000 25500 31300 36100 41300 50500 76100 80800 112000 142000
2020-10-30 03:30 12.02 47300 144000 (2020) 25200 (2006) 61000 25500 31300 36100 41300 50500 76100 80800 112000 142000
2020-10-30 02:30 12.01 47300 144000 (2020) 25200 (2006) 61000 25500 31300 36100 41300 50500 76100 80800 112000 142000
2020-10-30 01:30 12.01 47300 144000 (2020) 25200 (2006) 61000 25500 31300 36100 41300 50500 76100 80800 112000 142000
2020-10-30 00:30 11.99 47100 144000 (2020) 25200 (2006) 61000 25500 31300 36100 41300 50500 76100 80800 112000 142000
2020-10-29 23:30 11.97 47000 143000 (2020) 25700 (2006) 59500 25900 29200 35800 41300 50400 74800 79700 108000 141000
2020-10-29 22:30 11.95 46900 143000 (2020) 25700 (2006) 59500 25900 29200 35800 41300 50400 74800 79700 108000 141000
2020-10-29 21:30 11.93 46800 143000 (2020) 25700 (2006) 59500 25900 29200 35800 41300 50400 74800 79700 108000 141000
2020-10-29 20:30 11.93 46800 143000 (2020) 25700 (2006) 59500 25900 29200 35800 41300 50400 74800 79700 108000 141000
2020-10-29 19:30 11.93 46800 143000 (2020) 25700 (2006) 59500 25900 29200 35800 41300 50400 74800 79700 108000 141000
2020-10-29 18:30 11.93 46800 143000 (2020) 25700 (2006) 59500 25900 29200 35800 41300 50400 74800 79700 108000 141000
2020-10-29 17:30 11.89 46600 143000 (2020) 25700 (2006) 59500 25900 29200 35800 41300 50400 74800 79700 108000 141000
2020-10-29 16:30 11.89 46600 143000 (2020) 25700 (2006) 59500 25900 29200 35800 41300 50400 74800 79700 108000 141000
2020-10-29 15:30 11.87 46500 143000 (2020) 25700 (2006) 59500 25900 29200 35800 41300 50400 74800 79700 108000 141000
2020-10-29 14:30 11.87 46500 143000 (2020) 25700 (2006) 59500 25900 29200 35800 41300 50400 74800 79700 108000 141000
2020-10-29 13:30 11.87 46500 143000 (2020) 25700 (2006) 59500 25900 29200 35800 41300 50400 74800 79700 108000 141000
2020-10-29 12:30 11.85 46400 143000 (2020) 25700 (2006) 59500 25900 29200 35800 41300 50400 74800 79700 108000 141000
2020-10-29 11:30 11.87 46500 143000 (2020) 25700 (2006) 59500 25900 29200 35800 41300 50400 74800 79700 108000 141000
2020-10-29 10:30 11.89 46600 143000 (2020) 25700 (2006) 59500 25900 29200 35800 41300 50400 74800 79700 108000 141000
2020-10-29 09:30 11.87 46500 143000 (2020) 25700 (2006) 59500 25900 29200 35800 41300 50400 74800 79700 108000 141000
2020-10-29 08:30 11.86 46500 143000 (2020) 25700 (2006) 59500 25900 29200 35800 41300 50400 74800 79700 108000 141000
2020-10-29 07:30 11.89 46600 143000 (2020) 25700 (2006) 59500 25900 29200 35800 41300 50400 74800 79700 108000 141000
2020-10-29 06:30 11.94 46900 143000 (2020) 25700 (2006) 59500 25900 29200 35800 41300 50400 74800 79700 108000 141000
2020-10-29 05:30 11.93 46800 143000 (2020) 25700 (2006) 59500 25900 29200 35800 41300 50400 74800 79700 108000 141000
2020-10-29 04:30 11.94 46900 143000 (2020) 25700 (2006) 59500 25900 29200 35800 41300 50400 74800 79700 108000 141000
2020-10-29 03:30 11.94 46900 143000 (2020) 25700 (2006) 59500 25900 29200 35800 41300 50400 74800 79700 108000 141000
2020-10-29 02:30 11.95 46900 143000 (2020) 25700 (2006) 59500 25900 29200 35800 41300 50400 74800 79700 108000 141000
2020-10-29 01:30 11.94 46900 143000 (2020) 25700 (2006) 59500 25900 29200 35800 41300 50400 74800 79700 108000 141000
2020-10-29 00:30 11.95 46900 143000 (2020) 25700 (2006) 59500 25900 29200 35800 41300 50400 74800 79700 108000 141000
2020-10-28 23:30 11.98 47100 142000 (2020) 25500 (2007) 60400 25500 26900 35700 40800 50000 79400 81300 109000 140000
2020-10-28 22:30 11.98 47100 142000 (2020) 25500 (2007) 60400 25500 26900 35700 40800 50000 79400 81300 109000 140000
2020-10-28 21:30 11.98 47100 142000 (2020) 25500 (2007) 60400 25500 26900 35700 40800 50000 79400 81300 109000 140000
2020-10-28 20:30 11.98 47100 142000 (2020) 25500 (2007) 60400 25500 26900 35700 40800 50000 79400 81300 109000 140000
2020-10-28 19:30 11.98 47100 142000 (2020) 25500 (2007) 60400 25500 26900 35700 40800 50000 79400 81300 109000 140000
2020-10-28 18:30 11.98 47100 142000 (2020) 25500 (2007) 60400 25500 26900 35700 40800 50000 79400 81300 109000 140000
2020-10-28 17:30 11.99 47100 142000 (2020) 25500 (2007) 60400 25500 26900 35700 40800 50000 79400 81300 109000 140000
2020-10-28 16:30 12.00 47200 142000 (2020) 25500 (2007) 60400 25500 26900 35700 40800 50000 79400 81300 109000 140000
2020-10-28 15:30 12.00 47200 142000 (2020) 25500 (2007) 60400 25500 26900 35700 40800 50000 79400 81300 109000 140000
2020-10-28 14:30 12.00 47200 142000 (2020) 25500 (2007) 60400 25500 26900 35700 40800 50000 79400 81300 109000 140000
2020-10-28 13:30 12.00 47200 142000 (2020) 25500 (2007) 60400 25500 26900 35700 40800 50000 79400 81300 109000 140000
2020-10-28 12:30 12.01 47300 142000 (2020) 25500 (2007) 60400 25500 26900 35700 40800 50000 79400 81300 109000 140000
2020-10-28 11:30 12.01 47300 142000 (2020) 25500 (2007) 60400 25500 26900 35700 40800 50000 79400 81300 109000 140000
2020-10-28 10:30 12.01 47300 142000 (2020) 25500 (2007) 60400 25500 26900 35700 40800 50000 79400 81300 109000 140000
2020-10-28 09:30 12.03 47400 142000 (2020) 25500 (2007) 60400 25500 26900 35700 40800 50000 79400 81300 109000 140000
2020-10-28 08:30 12.03 47400 142000 (2020) 25500 (2007) 60400 25500 26900 35700 40800 50000 79400 81300 109000 140000
2020-10-28 07:30 12.03 47400 142000 (2020) 25500 (2007) 60400 25500 26900 35700 40800 50000 79400 81300 109000 140000
2020-10-28 06:30 12.03 47400 142000 (2020) 25500 (2007) 60400 25500 26900 35700 40800 50000 79400 81300 109000 140000
2020-10-28 05:30 12.03 47400 142000 (2020) 25500 (2007) 60400 25500 26900 35700 40800 50000 79400 81300 109000 140000
2020-10-28 04:30 12.04 47400 142000 (2020) 25500 (2007) 60400 25500 26900 35700 40800 50000 79400 81300 109000 140000
2020-10-28 03:30 12.05 47500 142000 (2020) 25500 (2007) 60400 25500 26900 35700 40800 50000 79400 81300 109000 140000
2020-10-28 02:30 12.05 47500 142000 (2020) 25500 (2007) 60400 25500 26900 35700 40800 50000 79400 81300 109000 140000
2020-10-28 01:30 12.06 47500 142000 (2020) 25500 (2007) 60400 25500 26900 35700 40800 50000 79400 81300 109000 140000
2020-10-28 00:30 12.07 47600 142000 (2020) 25500 (2007) 60400 25500 26900 35700 40800 50000 79400 81300 109000 140000
2020-10-27 23:30 12.07 47600 142000 (2020) 24200 (2007) 61900 24300 27400 35600 40600 50000 80900 89900 111000 141000
2020-10-27 22:30 12.07 47600 142000 (2020) 24200 (2007) 61900 24300 27400 35600 40600 50000 80900 89900 111000 141000
2020-10-27 21:30 12.08 47600 142000 (2020) 24200 (2007) 61900 24300 27400 35600 40600 50000 80900 89900 111000 141000
2020-10-27 20:30 12.08 47600 142000 (2020) 24200 (2007) 61900 24300 27400 35600 40600 50000 80900 89900 111000 141000
2020-10-27 19:30 12.08 47600 142000 (2020) 24200 (2007) 61900 24300 27400 35600 40600 50000 80900 89900 111000 141000
2020-10-27 18:30 12.07 47600 142000 (2020) 24200 (2007) 61900 24300 27400 35600 40600 50000 80900 89900 111000 141000
2020-10-27 17:30 12.07 47600 142000 (2020) 24200 (2007) 61900 24300 27400 35600 40600 50000 80900 89900 111000 141000
2020-10-27 16:30 12.07 47600 142000 (2020) 24200 (2007) 61900 24300 27400 35600 40600 50000 80900 89900 111000 141000
2020-10-27 15:30 12.09 47700 142000 (2020) 24200 (2007) 61900 24300 27400 35600 40600 50000 80900 89900 111000 141000
2020-10-27 14:30 12.10 47700 142000 (2020) 24200 (2007) 61900 24300 27400 35600 40600 50000 80900 89900 111000 141000
2020-10-27 13:30 12.10 47700 142000 (2020) 24200 (2007) 61900 24300 27400 35600 40600 50000 80900 89900 111000 141000
2020-10-27 12:30 12.11 47800 142000 (2020) 24200 (2007) 61900 24300 27400 35600 40600 50000 80900 89900 111000 141000
2020-10-27 11:30 12.12 47800 142000 (2020) 24200 (2007) 61900 24300 27400 35600 40600 50000 80900 89900 111000 141000
2020-10-27 10:30 12.12 47800 142000 (2020) 24200 (2007) 61900 24300 27400 35600 40600 50000 80900 89900 111000 141000
2020-10-27 09:30 12.11 47800 142000 (2020) 24200 (2007) 61900 24300 27400 35600 40600 50000 80900 89900 111000 141000
2020-10-27 08:30 12.13 47900 142000 (2020) 24200 (2007) 61900 24300 27400 35600 40600 50000 80900 89900 111000 141000
2020-10-27 07:30 12.13 47900 142000 (2020) 24200 (2007) 61900 24300 27400 35600 40600 50000 80900 89900 111000 141000
2020-10-27 06:30 12.14 48000 142000 (2020) 24200 (2007) 61900 24300 27400 35600 40600 50000 80900 89900 111000 141000
2020-10-27 05:30 12.13 47900 142000 (2020) 24200 (2007) 61900 24300 27400 35600 40600 50000 80900 89900 111000 141000
2020-10-27 04:30 12.14 48000 142000 (2020) 24200 (2007) 61900 24300 27400 35600 40600 50000 80900 89900 111000 141000
2020-10-27 03:30 12.14 48000 142000 (2020) 24200 (2007) 61900 24300 27400 35600 40600 50000 80900 89900 111000 141000
2020-10-27 02:30 12.15 48000 142000 (2020) 24200 (2007) 61900 24300 27400 35600 40600 50000 80900 89900 111000 141000
2020-10-27 01:30 12.16 48100 142000 (2020) 24200 (2007) 61900 24300 27400 35600 40600 50000 80900 89900 111000 141000
2020-10-27 00:30 12.15 48000 142000 (2020) 24200 (2007) 61900 24300 27400 35600 40600 50000 80900 89900 111000 141000
2020-10-26 23:30 12.15 48000 146000 (2020) 24100 (2007) 63700 24200 27000 35900 40600 50200 82300 93900 121000 145000
2020-10-26 22:30 12.15 48000 146000 (2020) 24100 (2007) 63700 24200 27000 35900 40600 50200 82300 93900 121000 145000
2020-10-26 21:30 12.14 48000 146000 (2020) 24100 (2007) 63700 24200 27000 35900 40600 50200 82300 93900 121000 145000
2020-10-26 20:30 12.14 48000 146000 (2020) 24100 (2007) 63700 24200 27000 35900 40600 50200 82300 93900 121000 145000
2020-10-26 19:30 12.14 48000 146000 (2020) 24100 (2007) 63700 24200 27000 35900 40600 50200 82300 93900 121000 145000
2020-10-26 18:30 12.15 48000 146000 (2020) 24100 (2007) 63700 24200 27000 35900 40600 50200 82300 93900 121000 145000
2020-10-26 17:30 12.16 48100 146000 (2020) 24100 (2007) 63700 24200 27000 35900 40600 50200 82300 93900 121000 145000
2020-10-26 16:30 12.17 48100 146000 (2020) 24100 (2007) 63700 24200 27000 35900 40600 50200 82300 93900 121000 145000
2020-10-26 15:30 12.19 48200 146000 (2020) 24100 (2007) 63700 24200 27000 35900 40600 50200 82300 93900 121000 145000
2020-10-26 14:30 12.20 48300 146000 (2020) 24100 (2007) 63700 24200 27000 35900 40600 50200 82300 93900 121000 145000
2020-10-26 13:30 12.17 48100 146000 (2020) 24100 (2007) 63700 24200 27000 35900 40600 50200 82300 93900 121000 145000
2020-10-26 12:30 12